     2              OBSERVATION DATA    G (GPS)             RINEX VERSION / TYPE
ASRINEXO V2.9.9 LH AIUB 01-FEB- 1 17:16                     PGM / RUN BY / DATE
BERN ASHTECH Z-12                                           COMMENT
BIT 2 OF LLI (+4) FLAGS DATA COLLECTED UNDER "AS" CONDITION COMMENT
USNB                                                        MARKER NAME
                                                            OBSERVER / AGENCY
? ASHTECH Z-XII3 1D15                                       REC # / TYPE / VERS
? CHOKE RING                                                ANT # / TYPE
  1112165.0600 -4842868.2200  3985510.0700                  APPROX POSITION XYZ
        0.0000        0.0000        0.0000                  ANTENNA: DELTA H/E/N
     1     1                                                WAVELENGTH FACT L1/2
     5    C1    L1    L2    P1    P2                        # / TYPES OF OBSERV
  2000     7    10     0     0   30.000000                  TIME OF FIRST OBS
                                                            END OF HEADER
 00  7 10  0  0 30.0000000  0  8 21 05 11 15 25 23 30 29
  20556509.422   -24228328.451 9 -18859760.08847  20556512.560    20556522.1034
  22802551.665   -11725302.959 8  -9119012.87346  22802557.701    22802567.4364
  23767897.634    -5653747.895 8  -4392221.99945  23767901.003    23767912.6204
  23132363.037    -6931622.594 8  -5378578.58846  23132367.054    23132380.2964
  21530776.081   -19780601.920 9 -15380946.29647  21530780.859    21530789.8584
  23745573.541    -7553806.149 7  -5868704.16245  23745581.730    23745596.2624
  21493192.245   -16694589.760 9 -12995717.36647  21493196.176    21493205.1444
  20552897.050   -22754555.022 9 -17486989.05948  20552900.174    20552908.4224
 00  7 10  0  1  0.0000000  0  8 21 05 11 15 25 23 30 29
  20566287.299   -24176936.868 9 -18819714.74947  20566292.293    20566301.8334
  22812316.168   -11674011.000 8  -9079045.14946  22812318.708    22812328.6014
  23768377.164    -5651167.952 8  -4390211.67345  23768390.918    23768402.8504
  23149834.257    -6839814.624 8  -5307040.06746  23149836.966    23149851.0954
  21520175.736   -19836317.707 9 -15424361.14247  21520178.884    21520187.4824
  23765217.108    -7450617.282 7  -5788297.53845  23765218.139    23765233.6064
  21489170.756   -16715726.545 9 -13012187.55747  21489173.542    21489182.9724
  20555156.259   -22742678.129 9 -17477734.35048  20555160.368    20555168.5634
 00  7 10  0  1 30.0000000  0  8 21 05 11 15 25 23 30 29
  20576172.943   -24125000.699 9 -18779245.06047  20576175.405    20576185.4404
  22822175.650   -11622211.916 8  -9038682.28346  22822175.649    22822185.7054
  23768976.902    -5648079.270 8  -4387804.95545  23768980.006    23768990.6574
  23167342.776    -6747804.804 8  -5235344.26246  23167346.878    23167359.8364
  21509636.267   -19891708.137 9 -15467522.48647  21509638.089    21509646.7354
  23784891.022    -7347226.720 8  -5707733.71945  23784892.912    23784908.2844
  21485260.479   -16736272.413 9 -13028197.29947  21485264.104    21485273.1804
  20557463.110   -22730561.720 9 -17468293.00348  20557466.095    20557474.2684
 00  7 10  0  2  0.0000000  0  8 21 05 11 15 25 23 30 29
  20586158.083   -24072521.023 9 -18738351.85547  20586162.199    20586171.5784
  22832127.383   -11569907.368 8  -8997925.52746  22832128.567    22832139.2074
  23769659.350    -5644482.685 8  -4385002.44345  23769663.073    23769675.9654
  23184893.598    -6655596.690 8  -5163493.96846  23184893.324    23184906.6774
  21499156.585   -19946772.760 9 -15510429.94147  21499158.929    21499168.0624
  23804601.125    -7243636.174 7  -5627014.06545  23804605.877    23804620.1714
  21481467.659   -16756226.434 9 -13043745.86247  21481466.949    21481476.0514
  20559814.984   -22718205.339 9 -17458664.66648  20559817.642    20559825.6034
 00  7 10  0  2 30.0000000  0  8 21 05 11 15 25 23 30 29
  20596247.848   -24019498.841 9 -18697035.91347  20596251.499    20596261.4074
  22842173.557   -11517098.998 8  -8956776.18146  22842177.835    22842189.2694
  23770440.575    -5640379.132 8  -4381804.90445  23770444.325    23770456.0964
  23202477.174    -6563193.456 8  -5091491.58746  23202477.935    23202490.3904
  21488740.212   -20001511.716 9 -15553083.62447  21488742.362    21488752.0754
  23824357.231    -7139847.818 7  -5546140.25445  23824355.301    23824371.9464
  21477777.543   -16775587.469 9 -13058832.36047  21477782.098    21477791.5694
  20562212.600   -22705608.655 9 -17448849.07648  20562214.799    20562223.0034
 00  7 10  0  3  0.0000000  0  8 21 05 11 15 25 23 30 29
  20606441.973   -23965935.579 9 -18655298.35447  20606444.478    20606453.8614
  22852324.196   -11463788.660 8  -8915235.72746  22852322.338    22852333.8124
  23771324.410    -5635769.418 8  -4378212.94045  23771321.409    23771335.2704
  23220094.676    -6470598.735 8  -5019340.01346  23220098.250    23220111.4304
  21478385.008   -20055924.580 9 -15595483.19447  21478388.029    21478398.0114
  23844144.773    -7035863.584 7  -5465113.91845  23844143.762    23844159.1444
  21474208.410   -16794354.360 9 -13073455.89447  21474211.408    21474220.2514
  20564653.875   -22692770.884 9 -17438845.62648  20564657.842    20564665.7534
 00  7 10  0  3 30.0000000  0  8 21 05 11 15 25 23 30 29
  20616736.131   -23911832.405 9 -18613140.07647  20616739.741    20616749.4144
  22862554.180   -11409978.144 8  -8873305.50746  22862562.683    22862572.7744
  23772295.639    -5630654.474 8  -4374227.28645  23772295.711    23772306.8814
  23237749.100    -6377815.821 8  -4947041.79446  23237752.907    23237767.8524
  21468093.411   -20110010.552 9 -15637628.05147  21468096.233    21468105.4724
  23863977.297    -6931685.518 8  -5383936.40345  23863968.779    23863983.8234
  21470748.861   -16812526.473 9 -13087615.95947  21470753.576    21470762.4264
  20567144.352   -22679691.747 9 -17428654.09848  20567146.695    20567154.7594
 00  7 10  0  4  0.0000000  0  8 21 05 11 15 25 23 30 29
  20627136.498   -23857189.606 9 -18570561.31747  20627138.060    20627148.2894
  22872895.537   -11355669.089 8  -8830986.80246  22872896.459    22872907.1954
  23773366.326    -5625035.140 8  -4369848.60145  23773365.274    23773377.6464
  23255434.573    -6284847.817 8  -4874599.36345  23255444.540    23255458.1744
  21457864.101   -20163769.998 9 -15679518.47847  21457865.994    21457874.8404
  23883816.613    -6827315.471 7  -5302609.34545  23883829.043    23883845.4234
  21467407.883   -16830102.628 9 -13101311.63947  21467408.792    21467417.7094
  20569678.307   -22666370.727 9 -17418274.09548  20569681.607    20569689.5864
 00  7 10  0  4 30.0000000  0  8 21 05 11 15 25 23 30 29
  20637634.771   -23802008.786 9 -18527563.33247  20637639.077    20637648.7734
  22883322.542   -11300863.181 8  -8788280.93146  22883325.690    22883336.6474
  23774526.301    -5618912.253 7  -4365077.55745  23774529.537    23774541.7584
  23273172.633    -6191698.246 8  -4802015.43946  23273170.735    23273184.6074
  21447695.252   -20217202.784 9 -15721154.37047  21447698.313    21447707.1544
  23903729.572    -6722755.511 8  -5221134.30445  23903727.504    23903743.6754
  21464173.379   -16847082.034 9 -13114542.33347  21464178.059    21464186.4934
  20572258.305   -22652807.396 9 -17407705.27148  20572262.655    20572270.8794
 00  7 10  0  5  0.0000000  0  8 21 05 11 15 25 23 30 29
  20648240.902   -23746291.402 9 -18484147.23847  20648242.260    20648251.4004
  22893848.488   -11245562.180 8  -8745189.29646  22893848.877    22893859.5914
  23775788.525    -5612286.731 8  -4359914.86145  23775789.917    23775802.1534
  23290929.703    -6098370.458 8  -4729292.62146  23290931.554    23290944.1034
  21437587.947   -20270308.543 9 -15762535.44547  21437592.323    21437601.1544
  23923651.574    -6618007.747 7  -5139512.97745  23923659.882    23923676.4504
  21461058.235   -16863463.624 9 -13127307.19447  21461060.464    21461068.9584
  20574884.968   -22639001.195 9 -17396947.20548  20574890.106    20574898.2444
 00  7 10  0  5 30.0000000  0  8 21 05 11 15 25 23 30 29
  20658943.070   -23690038.226 9 -18440313.63747  20658946.609    20658956.0354
  22904463.812   -11189768.044 8  -8701713.38646  22904466.191    22904476.8684
  23777144.919    -5605159.572 8  -4354361.22445  23777146.785    23777158.9564
  23308719.454    -6004867.822 8  -4656433.57146  23308724.342    23308737.7094
  21427545.429   -20323087.093 9 -15803661.54147  21427548.468    21427557.8914
  23943628.431    -6513074.205 7  -5057746.81345  23943628.139    23943643.6204
  21458057.023   -16879246.538 9 -13139605.55947  21458056.772    21458065.6504
  20577560.712   -22624951.606 9 -17385999.48248  20577563.367    20577571.6304
 00  7 10  0  6  0.0000000  0  8 21 05 11 15 25 23 30 29
  20669750.178   -23633250.733 9 -18396063.68347  20669752.853    20669762.1564
  22915173.383   -11133482.431 8  -8657854.51746  22915176.900    22915187.7024
  23778596.124    -5597531.782 8  -4348417.52345  23778599.023    23778610.4214
  23326546.955    -5911193.773 8  -4583440.95446  23326549.892    23326563.4964
  21417565.306   -20375538.288 9 -15844532.55747  21417567.720    21417576.5644
  23963633.599    -6407956.921 7  -4975837.48345  23963631.119    23963646.8834
  21455164.311   -16894430.214 9 -13151436.97447  21455167.581    21455176.0434
  20580279.962   -22610658.203 9 -17374861.77148  20580283.335    20580291.5234
 00  7 10  0  6 30.0000000  0  8 21 05 11 15 25 23 30 29
  20680657.899   -23575929.826 9 -18351398.08547  20680660.586    20680670.4604
  22925976.215   -11076707.396 8  -8613614.28446  22925981.199    22925990.9524
  23780141.460    -5589404.300 8  -4342084.44445  23780146.102    23780158.3024
  23344403.389    -5817351.442 8  -4510317.22845  23344406.413    23344421.1874
  21407645.813   -20427661.699 9 -15885148.16047  21407648.653    21407657.8064
  23983661.872    -6302657.823 7  -4893786.48445  23983669.139    23983685.2524
  21452388.370   -16909013.597 9 -13162800.64047  21452392.277    21452400.9214
  20583046.411   -22596120.463 9 -17363533.66948  20583049.620    20583057.9544
 00  7 10  0  7  0.0000000  0  8 21 05 11 15 25 23 30 29
  20691667.572   -23518076.972 9 -18306317.98747  20691669.958    20691679.3154
  22936873.278   -11019444.625 8  -8568993.98246  22936877.448    22936887.7864
  23781785.484    -5580778.168 8  -4335362.79045  23781788.156    23781798.7204
  23362295.626    -5723344.116 8  -4437064.93345  23362296.160    23362310.3654
  21397788.345   -20479457.394 9 -15925508.39847  21397791.823    21397801.3124
  24003741.180    -6197179.209 7  -4811595.58745  24003741.452    24003757.5114
  21449726.908   -16922995.769 9 -13173695.82847  21449731.214    21449740.3424
  20585858.708   -22581338.068 9 -17352014.92448  20585862.575    20585870.9164
 00  7 10  0  7 30.0000000  0  8 21 05 11 15 25 23 30 29
  20702776.669   -23459693.347 9 -18260824.30447  20702779.754    20702789.4084
  22947866.907   -10961696.129 8  -8523995.21346  22947867.461    22947877.5434
  23783521.919    -5571654.474 8  -4328253.42345  23783523.322    23783535.9844
  23380210.294    -5629175.157 8  -4363686.69646  23380216.710    23380230.2844
  21387994.492   -20530924.973 9 -15965612.96747  21387998.562    21388007.3954
  24023842.437    -6091523.103 7  -4729266.40645  24023848.523    24023863.8284
  21447181.104   -16936376.028 9 -13184121.99847  21447185.201    21447194.3004
  20588719.497   -22566310.260 9 -17340304.94948  20588722.412    20588730.7394
 00  7 10  0  8  0.0000000  0  8 21 05 11 15 25 23 30 29
  20713988.263   -23400780.135 9 -18214917.95347  20713990.653    20714000.0024
  22958946.665   -10903463.602 8  -8478619.26546  22958949.700    22958958.6844
  23785346.082    -5562034.190 8  -4320757.10545  23785352.263    23785364.8214
  23398165.655    -5534847.902 8  -4290185.07945  23398166.117    23398179.7514
  21378265.532   -20582064.747 9 -16005462.09947  21378266.818    21378275.6544
  24043986.898    -5985691.452 7  -4646800.42945  24043985.921    24044004.0604
  21444751.926   -16949153.839 9 -13194078.71647  21444754.214    21444762.6134
  20591625.673   -22551036.624 9 -17328403.42348  20591628.609    20591637.1374
 00  7 10  0  8 30.0000000  0  8 21 05 11 15 25 23 30 29
  20725298.775   -23341338.446 9 -18168599.79147  20725301.852    20725311.2254
  22970122.768   -10844748.888 8  -8432867.58046  22970122.199    22970132.5054
  23787274.564    -5551918.349 7  -4312874.68945  23787278.531    23787290.6164
  23416143.812    -5440365.779 8  -4216562.77445  23416145.815    23416159.4764
  21368594.570   -20632876.269 9 -16045055.45547  21368597.682    21368606.8254
  24064157.854    -5879686.412 7  -4564199.36345  24064159.431    24064175.0284
  21442434.086   -16961328.516 9 -13203565.46447  21442437.216    21442445.8564
  20594579.128   -22535516.590 9 -17316309.89848  20594582.256    20594590.6064
 00  7 10  0  9  0.0000000  0  8 21 05 11 15 25 23 30 29
  20736711.966   -23281369.957 9 -18121871.14147  20736714.014    20736723.5514
  22981382.167   -10785554.058 8  -8386741.79546  22981386.231    22981397.6094
  23789292.805    -5541308.199 8  -4304607.03345  23789297.402    23789309.9364
  23434150.565    -5345732.084 8  -4142822.39845  23434154.883    23434167.7624
  21358988.151   -20683359.846 9 -16084393.26547  21358991.082    21358999.8344
  24084368.720    -5773509.787 7  -4481464.64244  24084361.030    24084379.9664
  21440229.758   -16972899.242 9 -13212581.60847  21440235.218    21440244.2844
  20597579.619   -22519749.794 9 -17304024.09848  20597582.677    20597591.0024
 00  7 10  0  9 30.0000000  0  8 21 05 11 15 25 23 30 29
  20748222.558   -23220875.940 9 -18074732.99047  20748225.493    20748234.9534
  22992742.371   -10725880.836 8  -8340243.25746  22992741.211    22992752.1944
  23791406.854    -5530204.618 8  -4295954.92045  23791411.267    23791423.3574
  23452182.784    -5250950.156 8  -4068966.48245  23452189.594    23452203.9594
  21349443.906   -20733515.192 9 -16123475.31547  21349446.649    21349455.4674
  24104602.732    -5667163.626 7  -4398597.76644  24104601.676    24104617.6884
  21438146.929   -16983865.389 9 -13221126.64447  21438148.493    21438157.1954
  20600626.944   -22503735.783 9 -17291545.65548  20600629.841    20600638.4034
 00  7 10  0 10  0.0000000  0  8 21 05 11 15 25 23 30 29
  20759832.252   -23159857.567 9 -18027186.25947  20759836.194    20759846.5814
  23004184.498   -10665731.299 8  -8293373.54046  23004187.962    23004198.2204
  23793618.396    -5518608.896 7  -4286919.28745  23793616.865    23793630.7784
  23470251.508    -5156023.193 8  -3994997.59345  23470254.320    23470267.7364
  21339961.220   -20783341.992 9 -16162301.36447  21339965.080    21339973.7654
  24124866.197    -5560650.219 7  -4315600.52844  24124869.164    24124886.1434
  21436175.097   -16994226.414 9 -13229200.15747  21436177.053    21436185.4204
  20603720.403   -22487473.994 9 -17278874.14148  20603724.488    20603732.4874
 00  7 10  0 10 30.0000000  0  8 21 05 11 15 25 23 30 29
  20771543.296   -23098316.509 9 -17979232.24347  20771547.205    20771557.4034
  23015722.909   -10605107.519 8  -8246134.26646  23015724.622    23015735.0744
  23795912.614    -5506522.212 7  -4277501.12545  23795917.374    23795930.4724
  23488346.938    -5060954.668 8  -3920918.37645  23488346.228    23488359.3204
  21330542.417   -20832840.006 9 -16200871.20947  21330545.815    21330554.5274
  24145173.513    -5453971.787 7  -4232474.77045  24145170.455    24145187.2494
  21434317.709   -17003981.315 9 -13236801.37047  21434320.339    21434329.0864
  20606862.891   -22470963.891 9 -17266009.13648  20606866.340    20606874.1814
 00  7 10  0 11  0.0000000  0  8 21 05 11 15 25 23 30 29
  20783355.189   -23036253.851 9 -17930871.77847  20783357.849    20783367.3974
  23027345.269   -10544011.250 8  -8198526.84346  23027349.955    23027362.2804
  23798303.779    -5493945.824 8  -4267701.36845  23798310.018    23798322.1884
  23506457.348    -4965747.991 8  -3846731.50945  23506464.024    23506477.0134
  21321185.520   -20882009.608 9 -16239185.14047  21321188.722    21321197.5734
  24165494.819    -5347130.268 7  -4149221.90045  24165501.083    24165518.3514
  21432576.100   -17013129.713 9 -13243929.97547  21432579.583    21432588.1954
  20610052.088   -22454205.016 9 -17252950.28148  20610055.387    20610063.4664
 00  7 10  0 11 30.0000000  0  8 21 05 11 15 25 23 30 29
  20795265.419   -22973671.470 9 -17882106.33147  20795266.954    20795277.2574
  23039060.461   -10482444.448 8  -8150552.77846  23039066.281    23039077.1554
  23800798.226    -5480880.910 8  -4257520.95945  23800796.034    23800808.5154
  23524606.511    -4870406.243 8  -3772439.39345  23524606.400    23524620.1644
  21311891.766   -20930850.490 9 -16277242.93947  21311894.771    21311903.5554
  24185860.228    -5240127.728 7  -4065843.56444  24185864.082    24185880.2734
  21430949.198   -17021671.028 9 -13250585.53747  21430954.544    21430963.0694
  20613289.147   -22437196.797 9 -17239697.13248  20613292.010    20613299.9394
 00  7 10  0 12  0.0000000  0  8 21 05 11 15 25 23 30 29
  20807270.433   -22910570.078 9 -17832936.46847  20807274.561    20807284.6844
  23050867.306   -10420409.090 8  -8102213.56446  23050870.970    23050881.7644
  23803367.223    -5467328.457 8  -4246960.65045  23803375.884    23803387.0344
  23542766.987    -4774932.834 8  -3698044.69545  23542773.424    23542787.9994
  21302661.389   -20979362.418 9 -16315044.40947  21302663.745    21302671.6804
  24206250.658    -5132966.208 7  -3982341.36245  24206255.129    24206272.8424
  21429444.423   -17029604.757 9 -13256767.65447  21429445.142    21429453.3274
  20616573.439   -22419938.876 9 -17226249.41548  20616576.021    20616584.3464
 00  7 10  0 12 30.0000000  0  8 21 05 11 15 25 23 30 29
  20819379.259   -22846951.347 9 -17783363.47547  20819380.865    20819390.7054
  23062761.928   -10357907.051 8  -8053510.71146  23062764.514    23062776.5494
  23806045.393    -5453289.840 7  -4236021.52145  23806046.051    23806059.1544
  23560963.172    -4679331.146 8  -3623550.04145  23560966.954    23560979.7264
  21293490.679   -21027545.365 9 -16352589.53347  21293494.707    21293503.1724
  24226663.766    -5025648.009 7  -3898717.04445  24226679.301    24226696.7954
  21428048.996   -17036930.399 9 -13262475.93047  21428050.922    21428059.2594
  20619903.473   -22402430.628 9 -17212606.63948  20619907.680    20619916.1324
 00  7 10  0 13  0.0000000  0  8 21 05 11 15 25 23 30 29
  20831581.483   -22782816.673 9 -17733388.46847  20831585.327    20831595.5074
  23074746.915   -10294940.555 8  -8004445.96946  23074747.168    23074758.5994
  23808806.762    -5438766.251 7  -4224704.49345  23808810.303    23808822.7394
  23579181.955    -4583604.463 8  -3548957.99745  23579183.524    23579196.9784
  21284385.490   -21075399.157 9 -16389878.18047  21284388.098    21284397.1304
  24247129.674    -4918174.950 7  -3814972.10844  24247131.424    24247145.3984
  21426766.889   -17043647.547 9 -13267710.05947  21426772.024    21426780.9724
  20623283.217   -22384671.672 9 -17198768.50148  20623286.884    20623295.5574
 00  7 10  0 13 30.0000000  0  8 21 05 11 15 25 23 30 29
  20843882.935   -22718167.975 9 -17683012.91147  20843888.015    20843897.4544
  23086810.326   -10231511.509 8  -7955020.80546  23086816.988    23086828.9924
  23811663.756    -5423759.129 8  -4213010.71545  23811666.803    23811679.2094
  23597415.475    -4487756.032 8  -3474271.08845  23597423.032    23597436.9634
  21275341.945   -21122924.002 9 -16426910.49347  21275344.367    21275353.1084
  24267599.475    -4810549.344 7  -3731108.24444  24267610.067    24267626.7014
  21425608.412   -17049755.851 9 -13272469.76947  21425609.862    21425618.6104
  20626712.346   -22366661.314 9 -17184734.46548  20626714.467    20626722.5914
 00  7 10  0 14  0.0000000  0  8 21 05 11 15 25 23 30 29
  20856284.007   -22653006.523 9 -17632237.80447  20856287.679    20856297.9264
  23098973.109   -10167622.066 8  -7905236.88346  23098975.404    23098985.9594
  23814610.045    -5408269.665 8  -4200941.04345  23814614.374    23814626.4804
  23615677.805    -4391789.075 8  -3399491.83645  23615685.411    23615698.7264
  21266360.876   -21170119.758 9 -16463686.37947  21266363.659    21266371.9264
  24288120.277    -4702773.401 7  -3647127.25444  24288120.344    24288137.2234
  21424559.910   -17055254.737 9 -13276754.60047  21424563.559    21424571.7514
  20630186.456   -22348399.291 9 -17170504.32848  20630189.654    20630198.0374
 00  7 10  0 14 30.0000000  0  8 21 05 11 15 25 23 30 29
  20868780.724   -22587334.190 9 -17581064.61147  20868784.774    20868794.5224
  23111218.833   -10103274.438 8  -7855095.90646  23111220.817    23111230.7404
  23817654.964    -5392299.262 8  -4188496.66645  23817653.923    23817667.1484
  23633964.523    -4295707.048 8  -3324622.91445  23633967.576    23633982.8324
  21257441.710   -21216986.381 9 -16500205.79347  21257444.936    21257453.6684
  24308661.124    -4594849.155 7  -3563030.65744  24308657.702    24308672.6894
  21423630.138   -17060143.670 9 -13280564.14847  21423633.447    21423641.5174
  20633709.496   -22329885.002 9 -17156077.61948  20633712.870    20633721.2094
 00  7 10  0 15  0.0000000  0  8 21 05 11 15 25 23 30 29
  20881375.167   -22521152.171 9 -17529494.25147  20881378.890    20881388.5264
  23123548.708   -10038470.639 8  -7804599.50346  23123552.160    23123563.2544
  23820780.425    -5375849.272 8  -4175678.57045  23820785.565    23820796.1534
  23652272.737    -4199513.311 7  -3249666.93045  23652274.529    23652288.4124
  21248584.969   -21263523.816 9 -16536468.69247  21248589.091    21248598.2954
  24329238.673    -4486778.681 7  -3478820.18744  24329225.625    24329241.5434
  21422814.401   -17064422.447 9 -13283898.25047  21422819.004    21422827.1984
  20637281.256   -22311117.922 9 -17141453.93748  20637284.193    20637292.4224
 00  7 10  0 15 30.0000000  0  8 21 05 11 15 25 23 30 29
  20894069.324   -22454462.236 9 -17477528.12047  20894070.116    20894079.5324
  23135972.187    -9973212.686 8  -7753749.20946  23135971.236    23135981.3424
  23823995.259    -5358920.999 7  -4162487.80845  23824004.787    23824018.5694
  23670593.427    -4103211.058 8  -3174626.43545  23670600.171    23670614.5534
  21239794.964   -21309732.382 9 -16572475.33147  21239796.185    21239805.0564
  24349813.654    -4378564.114 7  -3394497.38644  24349819.219    24349832.6724
  21422117.168   -17068090.806 9 -13286756.70647  21422121.190    21422129.4754
  20640898.685   -22292097.543 9 -17126632.87247  20640903.665    20640911.7774
 00  7 10  0 16  0.0000000  0  8 21 05 11 15 25 23 30 29
  20906855.681   -22387266.107 9 -17425167.54947  20906856.760    20906866.2064
  23148472.784    -9907502.497 8  -7702546.53346  23148474.817    23148485.2434
  23827312.993    -5341515.847 7  -4148925.43945  23827316.710    23827330.1894
  23688946.389    -4006803.544 8  -3099503.87745  23688946.442    23688960.5814
  21231061.776   -21355611.673 9 -16608225.38447  21231065.546    21231074.1464
  24370446.776    -4270207.545 7  -3310063.97344  24370437.277    24370452.7984
  21421536.259   -17071148.195 9 -13289139.08347  21421539.064    21421547.8614
  20644567.874   -22272823.457 9 -17111614.11447  20644571.325    20644579.3674
 00  7 10  0 16 30.0000000  0  8 21 05 11 15 25 23 30 29
  20919736.071   -22319564.992 9 -17372413.48447  20919739.554    20919749.5514
  23161062.613    -9841342.402 8  -7650993.28946  23161065.091    23161075.0824
  23830714.817    -5323635.088 8  -4134992.47045  23830719.680    23830732.2814
  23707299.177    -3910294.051 7  -3024301.89645  23707309.904    23707325.2514
  21222395.736   -21401161.774 9 -16643718.92847  21222397.545    21222406.0724
  24391079.939    -4161711.207 7  -3225521.64044  24391083.586    24391096.7504
  21421071.338   -17073594.758 9 -13291045.47747  21421073.334    21421081.9114
  20648283.648   -22253294.900 9 -17096397.06447  20648287.381    20648295.4044
 00  7 10  0 17  0.0000000  0  7 21 05 11 15 25 30 29
  20932714.696   -22251360.670 9 -17319267.31247  20932718.351    20932728.9244
  23173740.906    -9774734.303 8  -7599090.91646  23173739.422    23173750.0104
  23834206.944    -5305280.267 8  -4120690.10045  23834214.132    23834226.3804
  23725696.077    -3813685.793 8  -2949022.93945  23725695.583    23725709.5814
  21213788.661   -21446382.895 9 -16678956.12747  21213792.246    21213801.0594
  21420721.239   -17075429.723 9 -13292475.30347  21420724.353    21420732.7674
  20652047.190   -22233511.570 9 -17080981.49447  20652051.879    20652060.2324
 00  7 10  0 17 30.0000000  0  7 21 05 11 15 25 30 29
  20945790.502   -22182655.209 9 -17265730.65547  20945792.437    20945802.8954
  23186497.685    -9707680.246 8  -7546841.05246  23186498.711    23186510.1744
  23837793.269    -5286452.884 8  -4106019.44645  23837796.403    23837807.8474
  23744086.577    -3716982.120 7  -2873669.63845  23744097.064    23744112.1694
  21205246.279   -21491275.108 9 -16713937.03547  21205249.189    21205258.2134
  21420487.456   -17076653.030 9 -13293428.51447  21420491.384    21420500.0934
  20655861.701   -22213473.062 9 -17065367.08247  20655864.918    20655873.8144
 00  7 10  0 18  0.0000000  0  7 21 05 11 15 25 30 29
  20958960.566   -22113449.976 9 -17211804.56547  20958962.316    20958972.5754
  23199340.966    -9640182.615 8  -7494245.58646  23199343.739    23199354.2364
  23841461.381    -5267154.139 8  -4090981.50145  23841467.689    23841480.0604
  23762515.772    -3620186.098 8  -2798244.35445  23762517.637    23762531.0984
  21196765.537   -21535838.155 9 -16748661.43447  21196769.358    21196778.1504
  21420372.811   -17077264.549 9 -13293905.01647  21420375.053    21420384.0144
  20659723.914   -22193178.681 9 -17049553.28548  20659727.103    20659735.5434
 00  7 10  0 18 30.0000000  0  7 21 05 11 15 25 30 29
  20972223.051   -22043746.182 9 -17157489.97347  20972226.351    20972235.8824
  23212269.355    -9572243.603 8  -7441306.12846  23212272.874    23212282.7844
  23845229.929    -5247385.647 8  -4075577.54945  23845230.121    23845242.3224
  23780950.950    -3523301.206 7  -2722749.84345  23780953.438    23780968.4624
  21188347.817   -21580072.025 9 -16783129.34548  21188352.045    21188360.7424
  21420371.996   -17077263.861 9 -13293904.47147  21420375.063    21420383.9334
  20663634.884   -22172628.183 9 -17033539.92048  20663637.844    20663646.2464
 00  7 10  0 19  0.0000000  0  7 21 05 11 15 25 30 29
  20985581.341   -21973545.959 9 -17102788.54347  20985585.157    20985594.7774
  23225279.326    -9503865.253 8  -7388024.33846  23225284.348    23225295.4204
  23849075.730    -5227149.088 8  -4059808.81645  23849080.662    23849092.4904
  23799401.567    -3426330.763 8  -2647188.66145  23799406.924    23799421.0044
  21179992.616   -21623977.253 9 -16817341.18147  21179996.897    21180005.8124
  21420487.291   -17076650.979 9 -13293426.88447  21420491.400    21420500.1264
  20667594.169   -22151820.823 9 -17017326.39848  20667597.245    20667605.5324
 00  7 10  0 19 30.0000000  0  7 21 05 11 15 25 30 29
  20999035.803   -21902851.161 9 -17047701.73647  20999037.909    20999047.4084
  23238379.442    -9435049.739 8  -7334401.93746  23238379.371    23238390.8884
  23853011.544    -5206445.752 8  -4043676.38245  23853021.324    23853033.6814
  23817872.056    -3329277.735 8  -2571563.15245  23817875.499    23817889.3454
  21171700.913   -21667553.769 9 -16851296.87848  21171705.051    21171713.2644
  21420722.308   -17075425.927 9 -13292472.28647  21420724.949    21420733.4824
  20671603.342   -22130756.345 9 -17000912.52748  20671605.849    20671614.0884
 00  7 10  0 20  0.0000000  0  7 21 05 11 15 25 30 29
  21012581.226   -21831663.332 9 -16992230.76547  21012584.626    21012594.1384
  23251561.208    -9365799.229 8  -7280440.56346  23251558.246    23251568.4754
  23857048.124    -5185277.428 8  -4027181.62045  23857049.655    23857060.6694
  23836360.023    -3232145.442 8  -2495875.85245  23836360.321    23836374.5404
  21163470.528   -21710801.385 9 -16884996.29048  21163475.082    21163483.5684
  21421070.967   -17073588.407 9 -13291040.43447  21421074.118    21421083.1274
  20675661.550   -22109433.876 9 -16984297.62447  20675663.231    20675671.4564
 00  7 10  0 20 30.0000000  0  7 21 05 11 15 25 30 29
  21026220.231   -21759984.639 9 -16936377.29347  21026224.420    21026234.7434
  23264815.175    -9296115.992 8  -7226141.98546  23264819.179    23264828.5494
  23861160.088    -5163645.331 8  -4010325.46445  23861164.997    23861177.9044
  23854856.383    -3134937.133 8  -2420129.31945  23854858.071    23854871.1984
  21155303.619   -21753720.071 9 -16918439.38948  21155307.494    21155316.4554
  21421537.558   -17071138.327 9 -13289131.27347  21421540.564    21421549.6504
  20679766.906   -22087853.240 9 -16967481.55147  20679769.970    20679777.9404
 00  7 10  0 21  0.0000000  0  7 21 05 11 15 25 30 29
  21039955.893   -21687816.529 9 -16880142.47347  21039957.714    21039968.0774
  23278156.400    -9226002.393 8  -7171508.05646  23278160.143    23278170.6484
  23865365.480    -5141551.140 7  -3993109.21545  23865369.601    23865382.7204
  23873363.361    -3037655.984 8  -2344325.99945  23873368.735    23873383.8074
  21147201.456   -21796310.089 9 -16951626.38348  21147203.068    21147211.7174
  21422121.805   -17068075.775 9 -13286744.86047  21422123.855    21422132.4874
  20683922.677   -22066013.749 9 -16950463.77447  20683926.003    20683933.9144
 00  7 10  0 21 30.0000000  0  7 21 05 11 15 25 30 29
  21053781.546   -21615161.108 9 -16823527.92147  21053783.929    21053793.6834
  23291582.147    -9155460.513 8  -7116540.41146  23291583.788    23291594.9044
  23869663.723    -5118996.467 8  -3975534.17045  23869662.348    23869674.6124
  23891894.282    -2940305.371 7  -2268468.58745  23891894.087    23891909.9904
  21139158.992   -21838571.237 9 -16984557.11647  21139160.694    21139169.4154
  21422819.582   -17064400.648 9 -13283881.11347  21422822.937    21422831.5314
  20688127.879   -22043914.931 9 -16933243.92547  20688131.123    20688139.3684
 00  7 10  0 22  0.0000000  0  7 21 05 11 15 25 30 29
  21067696.662   -21542019.904 9 -16766534.83747  21067701.902    21067712.0364
  23305084.741    -9084492.610 8  -7061240.81746  23305088.831    23305100.0204
  23874034.345    -5095983.063 7  -3957601.64645  23874040.466    23874052.2624
  23910428.658    -2842888.521 8  -2192559.57345  23910433.149    23910446.3514
  21131177.999   -21880503.910 9 -17017231.90047  21131180.895    21131189.9374
  21423633.894   -17060112.927 9 -13280540.01647  21423638.497    21423647.7154
  20692382.088   -22021556.502 9 -16915821.78047  20692385.534    20692394.0364
 00  7 10  0 22 30.0000000  0  7 21 05 11 15 25 30 29
  21081710.723   -21468394.591 9 -16709164.53147  21081712.421    21081722.7344
  23318675.827    -9013100.993 8  -7005611.04746  23318675.138    23318685.5324
  23878507.492    -5072512.419 8  -3939312.85245  23878508.645    23878519.6444
  23928980.916    -2745408.831 8  -2116601.56145  23928983.425    23928997.4624
  21123258.953   -21922108.522 9 -17049651.04347  21123264.004    21123272.9464
  21424565.255   -17055212.734 9 -13276721.67047  21424571.115    21424579.9244
  20696685.928   -21998937.790 9 -16898196.82447  20696690.029    20696698.2754
 00  7 10  0 23  0.0000000  0  7 21 05 11 15 25 30 29
  21095810.661   -21394287.223 9 -16651418.58847  21095814.714    21095824.6364
  23332341.231    -8941287.766 8  -6949652.74846  23332340.081    23332351.4654
  23883057.946    -5048586.253 8  -3920669.10745  23883060.299    23883072.7864
  23947545.263    -2647869.275 8  -2040596.91745  23947545.318    23947559.4864
  21115404.670   -21963384.777 9 -17081814.32848  21115409.706    21115418.1854
  21425617.401   -17049700.006 9 -13272426.02047  21425620.062    21425629.0644
  20701040.911   -21976058.297 9 -16880368.66647  20701043.707    20701052.2354
 00  7 10  0 23 30.0000000  0  7 21 05 11 15 25 30 29
  21110007.457   -21319699.543 9 -16593298.38447  21110008.522    21110018.6544
  23346085.270    -8869055.152 8  -6893367.64546  23346084.948    23346096.9704
  23887697.322    -5024206.276 7  -3901671.71245  23887699.558    23887712.4984
  23966114.594    -2550272.928 8  -1964548.02545  23966115.569    23966132.1804
  21107614.594   -22004332.661 9 -17113721.75348  21107617.240    21107626.2084
  21426781.160   -17043574.959 9 -13267653.25047  21426785.644    21426794.6504
  20705443.525   -21952917.649 9 -16862337.00547  20705447.031    20705456.0684
 00  7 10  0 24  0.0000000  0  7 21 05 11 15 25 30 29
  21124290.600   -21244633.661 9 -16534805.55047  21124293.364    21124302.6614
  23359906.025    -8796405.470 8  -6836757.55446  23359910.219    23359922.2914
  23892422.653    -4999374.128 7  -3882321.98845  23892424.907    23892438.5404
  23984690.549    -2452623.254 7  -1888457.58545  23984698.225    23984713.9074
  21099883.286   -22044952.182 9 -17145373.29748  21099887.584    21099896.7274
  21428062.034   -17036837.738 9 -13262403.45347  21428068.012    21428076.5064
  20709898.699   -21929515.139 9 -16844101.30247  20709900.730    20709909.4924
 00  7 10  0 24 30.0000000  0  7 21 05 11 15 25 30 29
  21138666.691   -21169091.564 9 -16475941.63247  21138668.416    21138678.0804
  23373813.859    -8723341.062 8  -6779824.29846  23373814.948    23373826.3604
  23897226.070    -4974091.458 7  -3862621.23745  23897236.091    23897248.3784
  24003286.934    -2354923.192 8  -1812327.86645  24003290.481    24003305.0564
  21092218.997   -22085244.207 9 -17176769.65547  21092220.495    21092228.8714
  21429465.120   -17029488.304 9 -13256676.61347  21429466.554    21429475.0484
  20714402.289   -21905850.443 9 -16825661.29947  20714404.181    20714412.5234
 00  7 10  0 25  0.0000000  0  7 21 05 11 15 25 30 29
  21153127.451   -21093074.845 8 -16416707.89847  21153133.330    21153143.8774
  23387794.664    -8649864.357 8  -6722569.79646  23387796.762    23387807.9574
  23902132.075    -4948359.951 7  -3842570.73045  23902132.789    23902147.1134
  24021886.320    -2257176.096 8  -1736161.48545  24021891.156    24021906.1634
  21084612.307   -22125208.729 9 -17207910.82047  21084615.337    21084623.6744
  21430977.018   -17021526.842 9 -13250472.86947  21430981.232    21430990.1744
  20718953.256   -21881923.030 9 -16807016.58247  20718957.250    20718965.3824
 00  7 10  0 25 30.0000000  0  7 21 05 11 15 25 30 29
  21167684.464   -21016585.543 8 -16357105.91647  21167688.943    21167699.4244
  23401848.713    -8575977.584 8  -6664995.73546  23401856.462    23401868.1154
  23907113.953    -4922181.457 7  -3822171.89945  23907114.592    23907128.2714
  24040494.534    -2159385.192 8  -1659960.98845  24040500.892    24040514.9204
  21077070.301   -22164845.378 9 -17238796.49547  21077072.846    21077081.1174
  21432607.837   -17012953.825 9 -13243792.58147  21432612.529    21432621.7294
  20723557.566   -21857732.463 9 -16788166.80647  20723560.761    20723568.7744
 00  7 10  0 26  0.0000000  0  7 21 05 11 15 25 30 29
  21182332.189   -20939626.106 9 -16297137.57947  21182334.017    21182344.2114
  23415991.862    -8501682.902 8  -6607103.81146  23415994.220    23416005.2444
  23912177.150    -4895557.759 7  -3801426.17245  23912180.945    23912192.2834
  24059110.058    -2061553.731 8  -1583728.87845  24059116.929    24059132.6854
  21069588.992   -22204154.593 9 -17269427.02647  21069592.187    21069600.7254
  21434358.954   -17003769.284 9 -13236635.78547  21434360.525    21434369.1294
  20728212.716   -21833278.205 9 -16769111.56847  20728214.016    20728222.3364
 00  7 10  0 26 30.0000000  0  7 21 05 11 15 25 30 29
  21197067.399   -20862198.386 9 -16236804.36447  21197067.926    21197078.1224
  23430210.352    -8426982.739 8  -6548895.93646  23430208.827    23430220.7074
  23917327.880    -4868490.465 8  -3780334.78645  23917331.180    23917342.8584
  24077737.032    -1963684.673 8  -1507467.47945  24077741.434    24077756.2024
  21062171.521   -22243136.714 9 -17299802.67748  21062174.605    21062182.7624
  21436220.132   -16993973.670 9 -13229002.83747  21436224.631    21436233.1234
  20732914.789   -21808559.724 9 -16749850.43547  20732917.611    20732926.1864
 00  7 10  0 27  0.0000000  0  7 21 05 11 15 25 30 29
  21211887.685   -20784303.943 9 -16176107.45047  21211890.934    21211901.5034
  23444502.405    -8351879.399 8  -6490373.92146  23444501.114    23444512.6574
  23922566.291    -4840981.665 8  -3758899.39645  23922566.938    23922579.5084
  24096370.543    -1865781.238 8  -1431179.29845  24096371.274    24096388.1544
  21054814.817   -22281791.501 9 -17329923.27548  21054818.824    21054827.1964
  21438201.010   -16983566.972 9 -13220893.71847  21438205.164    21438213.4794
  20737669.571   -21783576.514 9 -16730383.02447  20737671.988    20737680.3084
 00  7 10  0 27 30.0000000  0  7 21 05 11 15 25 30 29
  21226801.280   -20705944.596 8 -16115048.30047  21226802.045    21226812.5734
  23458868.410    -8276375.195 8  -6431539.55746  23458869.297    23458880.2444
  23927882.787    -4813032.970 8  -3737121.24645  23927885.538    23927896.9384
  24115007.623    -1767846.524 8  -1354866.75845  24115009.281    24115023.5544
  21047523.311   -22320119.720 9 -17359789.38948  21047525.085    21047533.6574
  21440299.650   -16972549.457 9 -13212308.64147  21440301.762    21440310.0304
  20742474.446   -21758328.273 9 -16710709.10147  20742476.925    20742485.0894
 00  7 10  0 28  0.0000000  0  7 21 05 11 15 25 30 29
  21241798.813   -20627122.791 9 -16053628.78547  21241801.606    21241812.2834
  23473311.418    -8200472.744 8  -6372394.84046  23473313.395    23473323.7604
  23933283.388    -4784646.109 7  -3715001.62645  23933287.281    23933298.2254
  24133643.331    -1669883.992 8  -1278532.55245  24133650.306    24133666.6334
  21040290.176   -22358121.119 9 -17389400.84348  21040293.434    21040302.4604
  21442511.180   -16960921.509 9 -13203247.90047  21442514.416    21442522.8244
  20747329.605   -21732814.368 9 -16690828.16247  20747332.027    20747340.3644
 00  7 10  0 28 30.0000000  0  7 21 05 11 15 25 30 29
  21256885.206   -20547840.806 9 -15991850.68947  21256889.093    21256898.8624
  23487826.594    -8124174.313 8  -6312941.53845  23487831.951    23487843.1044
  23938765.546    -4755822.951 7  -3692542.09345  23938771.471    23938783.4884
  24152295.540    -1571896.809 8  -1202179.11745  24152297.289    24152312.6384
  21033119.826   -22395795.784 9 -17418757.69448  21033123.976    21033132.9064
  21444839.086   -16948683.554 9 -13193711.83047  21444843.131    21444851.9124
  20752235.901   -21707034.346 9 -16670739.85747  20752237.968    20752246.1904
 00  7 10  0 29  0.0000000  0  7 21 05 11 15 25 30 29
  21272060.705   -20468100.782 9 -15929715.65447  21272062.702    21272072.5984
  23502423.073    -8047481.889 8  -6253181.28245  23502425.116    23502437.5064
  23944343.676    -4726565.526 7  -3669744.13345  23944338.768    23944350.8904
  24170943.922    -1473887.779 7  -1125808.66145  24170947.515    24170963.0884
  21026013.048   -22433144.090 9 -17447860.25048  21026017.215    21026025.7164
  21447282.693   -16935835.740 9 -13183700.54147  21447287.830    21447296.5884
  20757191.295   -21680987.606 9 -16650443.72647  20757194.082    20757202.8704
 00  7 10  0 29 30.0000000  0  7 21 05 11 15 25 30 29
  21287317.679   -20387904.218 8 -15867224.89747  21287323.065    21287333.7364
  23517085.461    -7970398.089 8  -6193116.06446  23517094.329    23517106.3834
  23949983.542    -4696875.641 7  -3646609.25745  23949988.625    23950001.8384
  24189593.473    -1375860.025 7  -1049423.59445  24189599.980    24189616.5784
  21018970.266   -22470166.264 9 -17476708.67748  21018972.350    21018980.3614
  21449845.314   -16922378.826 9 -13173214.63047  21449848.363    21449857.8584
  20762198.351   -21654673.788 9 -16629939.47947  20762201.254    20762210.1124
 00  7 10  0 30  0.0000000  0  7 21 05 11 15 25 30 29
  21302668.436   -20307253.844 8 -15804380.50847  21302670.777    21302681.1944
  23531833.388    -7892925.197 8  -6132747.63846  23531837.402    23531849.0054
  23955717.093    -4666755.088 7  -3623138.75845  23955720.600    23955734.4154
  24208254.143    -1277816.810 7   -973026.52445  24208258.800    24208274.8584
  21011987.351   -22506862.662 9 -17505303.25148  21011989.260    21011997.2934
  21452521.955   -16908313.061 9 -13162254.29947  21452525.267    21452534.2004
  20767255.760   -21628092.468 9 -16609226.78547  20767259.709    20767268.2944
 00  7 10  0 30 30.0000000  0  7 21 05 11 15 25 30 29
  21318101.550   -20226151.382 8 -15741183.86447  21318104.643    21318115.3034
  23546646.800    -7815065.660 8  -6072077.91245  23546653.732    23546664.8254
  23961531.704    -4636206.020 7  -3599334.37445  23961534.687    23961547.8504
  24226906.606    -1179761.272 8   -896619.82645  24226918.754    24226934.1814
  21005064.257   -22543232.970 9 -17533643.72648  21005067.920    21005076.2764
  21455315.424   -16893638.790 9 -13150819.80147  21455317.824    21455326.3114
  20772365.791   -21601243.087 9 -16588305.21247  20772368.856    20772377.4274
 00  7 10  0 31  0.0000000  0  7 21 05 11 15 25 30 29
  21333619.763   -20144598.921 8 -15677636.56547  21333623.546    21333633.8504
  23561542.575    -7736822.083 8  -6011108.94945  23561543.379    23561554.4604
  23967428.569    -4605230.103 8  -3575197.37945  23967429.221    23967440.4624
  24245582.081    -1081696.327 8   -820205.79145  24245580.790    24245595.5174
  20998207.141   -22579277.824 9 -17561730.60448  20998208.570    20998217.2464
  21458221.992   -16878356.933 9 -13138911.86247  21458225.729    21458234.1634
  20777524.688   -21574125.321 9 -16567174.50147  20777528.971    20777537.5954
 00  7 10  0 31 30.0000000  0  7 21 05 11 15 25 30 29
  21349225.462   -20062598.784 9 -15613740.43147  21349227.066    21349238.0504
  23576506.595    -7658196.865 8  -5949842.61146  23576504.237    23576516.1704
  23973400.575    -4573829.304 7  -3550729.30545  23973404.037    23973416.0214
  24264238.716     -983625.189 8   -743786.93845  24264241.859    24264258.1424
  20991406.926   -22614997.255 9 -17589563.89148  20991411.418    20991420.0654
  21461246.587   -16862467.561 9 -13126530.53047  21461249.164    21461258.4414
  20782736.531   -21546738.560 9 -16545834.18647  20782740.470    20782749.0894
 00  7 10  0 32  0.0000000  0  7 21 05 11 15 25 30 29
  21364912.253   -19980152.880 8 -15549496.93647  21364916.749    21364927.1934
  23591539.523    -7579192.276 8  -5888280.65846  23591539.140    23591550.5334
  23979448.407    -4542005.679 7  -3525931.74745  23979459.253    23979473.5204
  24282900.111     -885551.049 8   -667365.72345  24282905.187    24282922.4074
  20984672.871   -22650392.043 9 -17617144.21448  20984676.387    20984684.7224
  21464388.278   -16845971.235 9 -13113676.24647  21464388.664    21464397.5604
  20788001.156   -21519082.211 9 -16524283.80747  20788003.495    20788011.7104
 00  7 10  0 32 30.0000000  0  7 21 05 11 15 25 30 29
  21380687.346   -19897263.793 8 -15484908.11747  21380689.703    21380700.1114
  23606643.864    -7499810.711 8  -5826424.94645  23606644.780    23606656.1274
  23985592.702    -4509761.285 7  -3500806.30545  23985594.998    23985609.2614
  24301563.999     -787476.998 7   -590944.60245  24301568.046    24301584.6464
  20977999.537   -22685462.084 9 -17644471.48848  20978002.451    20978011.1354
  21467640.282   -16828868.538 9 -13100349.47847  21467643.468    21467651.9494
  20793314.586   -21491156.051 9 -16502523.17547  20793317.702    20793326.3524
 00  7 10  0 33  0.0000000  0  7 21 05 11 15 25 30 29
  21396543.943   -19813933.611 8 -15419975.57647  21396546.965    21396556.7694
  23621819.358    -7420054.479 8  -5764277.29845  23621822.250    23621833.0394
  23991804.312    -4477097.903 7  -3475354.43145  23991811.714    23991825.0354
  24320218.610     -689406.059 7   -514525.89045  24320230.824    24320247.3184
  20971388.744   -22720207.479 9 -17671545.79048  20971390.750    20971399.3334
  21471011.135   -16811160.283 9 -13086550.83347  21471012.804    21471021.7814
  20798679.396   -21462959.497 9 -16480551.84647  20798683.251    20798692.1164
 00  7 10  0 33 30.0000000  0  7 21 05 11 15 25 30 29
  21412484.500   -19730164.350 8 -15354700.89847  21412487.847    21412497.9704
  23637071.169    -7339926.132 8  -5701839.68946  23637070.519    23637081.7944
  23998106.893    -4444017.529 7  -3449577.61345  23998108.918    23998119.2594
  24338892.510     -591341.395 7   -438112.08345  24338891.749    24338908.6164
  20964837.191   -22754628.545 9 -17698367.36948  20964840.175    20964848.9724
  21474493.314   -16792846.920 9 -13072280.67947  21474497.710    21474505.9114
  20804096.213   -21434492.125 9 -16458369.49347  20804100.136    20804109.1924
 00  7 10  0 34  0.0000000  0  7 21 05 11 15 25 30 29
  21428510.137   -19645958.482 8 -15289086.01647  21428511.714    21428522.5494
  23652390.230    -7259428.205 8  -5639114.09746  23652388.582    23652400.1464
  24004480.367    -4410522.368 7  -3423477.59845  24004479.801    24004493.4314
  24357546.106     -493285.781 7   -361705.33645  24357551.549    24357567.3414
  20958346.194   -22788725.784 9 -17724936.61048  20958351.383    20958360.4054
  21478094.902   -16773929.388 9 -13057539.74847  21478097.839    21478106.3384
  20809565.581   -21405753.448 9 -16435975.73147  20809569.142    20809577.9814
 00  7 10  0 34 30.0000000  0  7 21 05 11 15 25 30 29
  21444614.591   -19561318.053 8 -15223132.52747  21444618.283    21444629.0284
  23667773.164    -7178563.031 8  -5576102.33346  23667776.561    23667788.4424
  24010927.111    -4376614.362 7  -3397055.86145  24010933.360    24010946.4434
  24376201.594     -395242.318 7   -285308.04145  24376208.024    24376225.2724
  20951923.505   -22822499.416 9 -17751253.68848  20951924.962    20951933.6804
  21481809.806   -16754408.059 9 -13042328.32247  21481812.859    21481820.8324
  20815087.766   -21376743.054 9 -16413370.24147  20815090.443    20815098.3384
 00  7 10  0 35  0.0000000  0  7 21 05 11 15 25 30 29
  21460800.198   -19476244.946 8 -15156841.87347  21460807.191    21460817.8464
  23683233.359    -7097333.182 8  -5512806.41745  23683234.213    23683246.0734
  24017461.348    -4342295.652 8  -3370314.10345  24017463.977    24017477.1934
  24394862.806     -297214.302 7   -208922.79145  24394862.903    24394879.4544
  20945557.800   -22855950.044 9 -17777319.08448  20945559.527    20945568.2444
  21485640.487   -16734283.513 9 -13026646.85347  21485641.931    21485650.0834
  20820659.548   -21347460.453 9 -16390552.63847  20820662.449    20820670.4984
 00  7 10  0 35 30.0000000  0  7 21 05 11 15 25 30 29
  21477076.837   -19390741.910 8 -15090216.21547  21477077.712    21477089.0014
  23698757.480    -7015741.188 8  -5449228.30345  23698760.970    23698772.4224
  24024069.401    -4307568.169 8  -3343253.75445  24024072.612    24024085.4034
  24413509.854     -199204.750 7   -132551.89945  24413513.832    24413530.1104
  20939252.629   -22889077.141 9 -17803132.36848  20939255.590    20939264.5164
  21489579.941   -16713556.376 9 -13010495.82747  21489585.833    21489594.7834
  20826283.829   -21317905.140 9 -16367522.53447  20826286.920    20826294.8464
 00  7 10  0 36  0.0000000  0  7 21 05 11 15 25 30 29
  21493424.903   -19304811.473 8 -15023257.51547  21493429.741    21493440.4124
  23714351.853    -6933789.444 8  -5385369.83945  23714355.518    23714367.0354
  24030755.439    -4272433.925 7  -3315876.51845  24030757.950    24030770.9354
  24432159.445     -101216.639 7    -56197.78045  24432161.233    24432177.1904
  20933012.634   -22921881.481 9 -17828694.15548  20933013.199    20933021.9044
  21493639.540   -16692227.807 9 -12993876.16147  21493644.991    21493653.4774
  20831959.185   -21288076.762 9 -16344279.66247  20831963.281    20831971.0524
 00  7 10  0 36 30.0000000  0  8 21 05 11 15 20 25 30 29
  21509857.809   -19218455.384 8 -14955967.14547  21509863.100    21509874.0264
  23730018.214    -6851480.246 8  -5321232.85545  23730019.014    23730030.4074
  24037512.434    -4236895.209 7  -3288184.06445  24037520.403    24037534.3724
  24450793.087       -3253.037 7     20137.30145  24450802.783    24450819.4084
  24670673.751    -1907909.96217  -1444958.62955  24670674.728    24670686.1404
  20926827.254   -22954363.602 9 -17854004.86548  20926831.739    20926840.5794
  21497813.507   -16670298.314 9 -12976788.23847  21497817.944    21497826.7884
  20837688.435   -21257974.776 9 -16320823.58247  20837691.350    20837699.3914
 00  7 10  0 37  0.0000000  0  8 21 05 11 15 20 25 30 29
  21526375.449   -19131676.238 8 -14888347.11747  21526376.455    21526387.1094
  23745746.063    -6768816.127 8  -5256819.34445  23745748.938    23745760.5544
  24044359.546    -4200954.105 8  -3260178.08345  24044361.135    24044372.9674
  24469429.776       94682.830 7     96450.78345  24469439.528    24469454.0964
  24650978.906    -2011374.958 7  -1525580.55345  24650984.219    24650997.1354
  20920709.875   -22986523.591 9 -17879064.56048  20920712.435    20920720.5854
  21502103.104   -16647768.486 9 -12959232.51547  21502105.030    21502113.7884
  20843467.729   -21227598.758 9 -16297153.97847  20843472.141    20843479.8764
 00  7 10  0 37 30.0000000  0  8 21 05 11 15 20 25 30 29
  21542964.629   -19044476.045 8 -14820399.00146  21542970.042    21542980.6374
  23761540.923    -6685799.828 8  -5192131.43145  23761546.167    23761558.4574
  24051278.468    -4164612.715 7  -3231860.15945  24051276.374    24051289.4014
  24488071.738      192588.194 7    172740.46045  24488069.408    24488086.2874
  24631333.547    -2114668.637 7  -1606069.03645  24631328.762    24631340.8364
  20914651.281   -23018361.546 9 -17903873.32748  20914653.861    20914661.8344
  21506502.116   -16624639.318 9 -12941209.77347  21506506.377    21506515.3774
  20849300.675   -21196948.383 9 -16273270.58947  20849304.221    20849312.3924
 00  7 10  0 38  0.0000000  0  8 21 05 11 15 20 25 30 29
  21559642.266   -18956857.364 8 -14752124.76447  21559643.608    21559654.7284
  23777396.599    -6602433.794 8  -5127170.95845  23777409.594    23777421.6954
  24058264.654    -4127873.045 8  -3203231.90245  24058267.872    24058280.9944
  24506694.148      290460.020 8    249004.00745  24506694.640    24506711.4524
  24611708.596    -2217788.429 8  -1686422.05145  24611706.595    24611717.4954
  20908653.452   -23049877.810 9 -17928431.42248  20908656.064    20908664.2864
  21511019.232   -16600911.615 9 -12922720.64347  21511022.039    21511030.6034
  20855184.920   -21166023.005 9 -16249172.91647  20855188.995    20855197.2874
 00  7 10  0 38 30.0000000  0  8 21 05 11 15 20 25 30 29
  21576394.647   -18868822.942 8 -14683526.61347  21576396.395    21576406.4914
  23793330.548    -6518720.129 7  -5061939.55245  23793339.624    23793352.9014
  24065326.608    -4090737.425 7  -3174295.09045  24065334.222    24065347.3294
  24525299.948      388295.273 7    325239.05445  24525310.657    24525327.3884
  24592119.090    -2320731.688 8  -1766637.52145  24592118.035    24592128.0894
  20902717.159   -23081073.008 9 -17952739.33448  20902720.059    20902728.2814
  21515647.799   -16576586.475 9 -12903765.98047  21515651.176    21515659.6044
  20861124.721   -21134822.445 9 -16224860.81847  20861126.153    20861134.4734
 00  7 10  0 39  0.0000000  0  7 21 05 11 20 25 30 29
  21593222.149   -18780374.592 8 -14614605.89547  21593227.623    21593237.9034
  23809332.748    -6434661.564 8  -4996439.45045  23809335.975    23809348.5494
  24072471.870    -4053207.862 7  -3145051.31445  24072474.715    24072488.4794
  24572557.805    -2423495.842 7  -1846713.43145  24572562.882    24572572.6864
  20896842.077   -23111947.435 9 -17976797.29548  20896844.723    20896853.1874
  21520392.478   -16551664.886 9 -12884346.55047  21520393.703    21520401.6684
  20867113.181   -21103345.946 9 -16200333.70247  20867115.557    20867124.1664
 00  7 10  0 39 30.0000000  0  7 21 05 11 20 25 30 29
  21610133.232   -18691514.567 8 -14545364.41147  21610137.066    21610147.9724
  23825400.431    -6350260.491 8  -4930672.45345  23825398.068    23825409.8454
  24079686.124    -4015286.610 7  -3115502.35345  24079690.698    24079705.1674
  24553037.814    -2526078.140 7  -1926647.59045  24553040.628    24553052.7694
  20891026.616   -23142501.374 9 -18000605.52348  20891030.628    20891038.9174
  21525243.619   -16526147.293 9 -12864462.70147  21525248.741    21525257.9734
  20873155.589   -21071593.347 9 -16175591.44147  20873158.466    20873166.3724
 00  7 10  0 40  0.0000000  0  7 21 05 11 20 25 30 29
  21627119.286   -18602245.436 8 -14475804.15846  21627124.293    21627134.6444
  23841521.349    -6265519.425 8  -4864640.56845  23841524.513    23841535.3854
  24086982.137    -3976975.898 8  -3085649.84245  24086983.237    24086994.7104
  24533554.593    -2628476.141 7  -2006438.19445  24533555.665    24533565.1564
  20885274.373   -23172735.108 9 -18024164.24248  20885277.230    20885285.7584
  21530216.682   -16500034.823 9 -12844115.31647  21530217.666    21530226.3084
  20879250.715   -21039564.047 9 -16150633.57147  20879253.253    20879261.7804
 00  7 10  0 40 30.0000000  0  7 21 05 11 20 25 30 29
  21644188.876   -18512570.156 8 -14405927.35546  21644189.390    21644199.5504
  23857711.147    -6180440.919 8  -4798345.75645  23857714.131    23857725.4614
  24094351.140    -3938277.985 7  -3055495.67845  24094345.976    24094360.5674
  24514107.002    -2730687.198 7  -2086083.06945  24514104.432    24514115.2204
  20879582.540   -23202648.929 9 -18047473.67948  20879584.876    20879593.3014
  21535296.939   -16473328.604 9 -12823305.26347  21535300.123    21535308.2954
  20885396.589   -21007257.819 9 -16125459.90947  20885400.797    20885409.2554
 00  7 10  0 41  0.0000000  0  7 21 05 11 20 25 30 29
  21661328.385   -18422490.504 8 -14335735.51947  21661330.930    21661341.7934
  23873971.505    -6095027.470 8  -4731789.85445  23873968.162    23873978.4924
  24101784.902    -3899195.094 7  -3025041.52945  24101783.574    24101796.0174
  24494676.377    -2832708.709 7  -2165580.23245  24494689.708    24494701.8134
  20873949.803   -23232243.492 9 -18070534.33948  20873953.216    20873961.5704
  21540490.115   -16446029.469 9 -12802033.19247  21540495.044    21540503.1884
  20891599.576   -20974674.065 9 -16100070.00447  20891601.180    20891609.9114
 00  7 10  0 41 30.0000000  0  7 21 05 11 20 25 30 29
  21678545.384   -18332008.630 8 -14265230.24546  21678548.883    21678559.3694
  23890282.308    -6009281.605 8  -4664974.94145  23890283.599    23890295.7404
  24109292.018    -3859729.371 7  -2994289.05645  24109294.282    24109306.1314
  24475309.395    -2934538.004 7  -2244927.68645  24475313.696    24475323.2194
  20868380.107   -23261519.087 9 -18093346.45248  20868382.143    20868390.3724
  21545798.947   -16418138.245 9 -12780299.76147  21545802.071    21545810.7594
  20897852.531   -20941812.473 9 -16074463.59947  20897854.596    20897863.4264
 00  7 10  0 42  0.0000000  0  7 21 05 11 20 25 30 29
  21695840.583   -18241127.894 8 -14194414.17446  21695843.248    21695854.1044
  23906661.130    -5923205.664 8  -4597902.84845  23906663.655    23906675.1274
  24116874.911    -3819883.184 8  -2963240.07845  24116877.527    24116889.4224
  24455971.292    -3036172.342 8  -2324123.17545  24455971.851    24455982.7854
  20862869.562   -23290475.970 9 -18115910.22348  20862871.733    20862879.8424
  21551218.467   -16389656.367 9 -12758106.08347  21551222.478    21551230.3824
  20904156.421   -20908672.486 9 -16048640.26847  20904160.886    20904169.8904
 00  7 10  0 42 30.0000000  0  7 21 05 11 20 25 30 29
  21713208.003   -18149850.868 8 -14123289.31846  21713212.938    21713222.7014
  23923102.277    -5836802.418 8  -4530575.73045  23923105.686    23923116.9644
  24124525.165    -3779658.780 7  -2931896.44245  24124531.044    24124543.1534
  24436668.878    -3137609.191 8  -2403164.75245  24436670.423    24436680.0244
  20857420.148   -23319114.272 9 -18138225.75048  20857422.233    20857430.1204
  21556751.057   -16360584.639 9 -12735452.78247  21556754.637    21556762.4084
  20910517.308   -20875253.819 9 -16022599.77047  20910520.214    20910529.3904
 00  7 10  0 43  0.0000000  0  7 21 05 11 20 25 30 29
  21730654.391   -18058178.957 8 -14051856.74846  21730657.280    21730667.6904
  23939606.134    -5750074.568 8  -4462995.73245  23939609.359    23939621.3044
  24132248.793    -3739058.280 7  -2900259.77445  24132255.672    24132270.7514
  24417394.658    -3238845.789 8  -2482050.34245  24417404.424    24417416.1974
  20852028.509   -23347434.801 9 -18160293.66148  20852032.815    20852040.9734
  21562395.694   -16330924.123 9 -12712340.69347  21562398.690    21562406.9434
  20916930.286   -20841556.036 9 -15996341.78447  20916933.317    20916941.4174
 00  7 10  0 43 30.0000000  0  7 21 05 11 20 25 30 29
  21748172.764   -17966115.139 8 -13980118.78446  21748176.547    21748187.0274
  23956168.769    -5663024.444 8  -4395164.62445  23956174.939    23956185.9894
  24140053.551    -3698084.021 8  -2868331.82245  24140055.005    24140066.7154
  24398171.699    -3339879.624 7  -2560777.87845  24398178.065    24398190.9624
  20846700.616   -23375438.234 9 -18182114.49048  20846703.810    20846712.1174
  21568151.808   -16300675.986 9 -12688770.70747  21568154.556    21568163.1194
  20923396.711   -20807578.751 9 -15969866.00147  20923398.788    20923407.2974
 00  7 10  0 44  0.0000000  0  7 21 05 11 20 25 30 29
  21765766.438   -17873661.823 8 -13908077.32246  21765769.893    21765780.5254
  23972799.792    -5575654.369 8  -4327084.08845  23972800.719    23972812.1964
  24147922.089    -3656738.559 7  -2836114.61545  24147921.433    24147934.2554
  24378988.834    -3440708.092 7  -2639345.35845  24378991.336    24379003.8154
  20841433.288   -23403124.118 9 -18203687.87048  20841435.437    20841443.7504
  21574017.829   -16269841.141 9 -12664743.53647  21574022.218    21574031.0414
  20929915.037   -20773321.481 9 -15943172.04547  20929918.060    20929926.3414
 00  7 10  0 44 30.0000000  0  7 21 05 11 20 25 30 29
  21783431.686   -17780821.227 8 -13835734.07646  21783436.243    21783447.6344
  23989481.776    -5487967.234 8  -4258756.49345  23989486.847    23989498.9884
  24155858.118    -3615024.022 7  -2803609.86245  24155860.320    24155872.6844
  24359843.596    -3541328.490 7  -2717750.70045  24359844.462    24359856.8174
  20836222.517   -23430493.408 9 -18225014.55748  20836227.098    20836235.4474
  21579999.037   -16238421.101 9 -12640260.37747  21580001.369    21580009.8264
  20936485.946   -20738783.863 9 -15916259.64147  20936490.321    20936498.6294
 00  7 10  0 45  0.0000000  0  7 21 05 11 20 25 30 29
  21801169.492   -17687596.584 8 -13763091.61546  21801176.412    21801188.1574
  24006229.881    -5399965.383 8  -4190183.62145  24006233.397    24006244.8114
  24163864.651    -3572942.671 8  -2770819.22945  24163868.537    24163881.2224
  24340733.255    -3641738.340 7  -2795991.98745  24340735.817    24340748.0344
  20831076.001   -23457546.170 9 -18246094.60248  20831079.295    20831087.2864
  21586090.349   -16206416.917 9 -12615322.03847  21586091.551    21586100.2004
  20943112.373   -20703965.676 9 -15889128.59947  20943115.934    20943124.4624
 00  7 10  0 45 30.0000000  0  7 21 05 11 20 25 30 29
  21818987.664   -17593989.791 8 -13690151.34546  21818989.379    21819000.9374
  24023038.698    -5311651.372 7  -4121367.51645  24023037.484    24023050.0394
  24171943.393    -3530497.022 8  -2737744.77145  24171945.948    24171957.4784
  24321664.833    -3741934.777 7  -2874067.00745  24321668.908    24321681.0834
  20825989.140   -23484283.491 9 -18266928.84848  20825991.547    20825999.3914
  21592293.351   -16173829.808 9 -12589929.47747  21592292.697    21592301.1634
  20949791.744   -20668866.272 9 -15861778.42847  20949795.030    20949803.5834
 00  7 10  0 46  0.0000000  0  7 21 05 11 20 25 30 29
  21836872.817   -17500003.553 8 -13616915.42746  21836874.654    21836886.0904
  24039892.687    -5223027.849 7  -4052310.30645  24039902.671    24039915.0344
  24180085.933    -3487689.206 7  -2704388.09545  24180092.119    24180104.1664
  24302646.614    -3841915.244 8  -2951973.76645  24302643.638    24302655.3164
  20820960.302   -23510704.866 9 -18287516.91148  20820963.632    20820971.4434
  21598603.942   -16140660.850 9 -12564083.53147  21598604.649    21598612.8854
  20956523.802   -20633485.317 9 -15834208.86747  20956528.005    20956536.0614
 00  7 10  0 46 30.0000000  0  7 21 05 11 20 25 30 29
  21854827.313   -17405640.652 8 -13543385.97946  21854831.810    21854842.9924
  24056829.221    -5134097.363 7  -3983013.92645  24056825.438    24056838.0634
  24188303.066    -3444521.659 7  -2670751.13145  24188304.680    24188318.7774
  24283659.803    -3941677.219 7  -3029710.28545  24283658.916    24283669.9784
  20815993.657   -23536811.310 9 -18307859.57348  20815995.641    20816003.5714
  21605027.007   -16106911.341 9 -12537785.21447  21605027.370    21605035.0034
  20963311.569   -20597822.499 9 -15806419.67247  20963314.028    20963322.5804
 00  7 10  0 47  0.0000000  0  7 21 05 11 20 25 30 29
  21872856.536   -17310903.423 8 -13469564.87446  21872859.432    21872870.7584
  24073799.204    -5044862.596 7  -3913480.41345  24073806.220    24073817.9914
  24196590.308    -3400996.904 7  -2636835.82745  24196589.848    24196601.3704
  24264712.360    -4041217.750 7  -3107274.22045  24264717.371    24264728.6204
  20811084.690   -23562603.030 9 -18327956.99248  20811087.624    20811095.6774
  21611556.046   -16072582.580 9 -12511035.52747  21611559.792    21611567.2034
  20970151.561   -20561877.449 9 -15778410.55747  20970154.393    20970162.8354
 00  7 10  0 47 30.0000000  0  8 21 05 11 20 25 30 29 22
  21890953.425   -17215794.619 8 -13395454.21146  21890958.192    21890969.3624
  24090837.252    -4955325.872 8  -3843711.62145  24090845.462    24090857.3494
  24204933.540    -3357117.138 7  -2602643.89645  24204937.922    24204951.6574
  24245816.153    -4140534.174 7  -3184663.53645  24245817.949    24245830.2044
  20806236.101   -23588080.485 9 -18347809.52848  20806239.252    20806247.6554
  21618199.043   -16037675.752 9 -12483835.38347  21618202.261    21618210.3014
  20977044.805   -20525649.568 9 -15750181.05247  20977048.142    20977056.8514
  24519979.590    -3930963.69117  -3038521.94555  24519969.781    24519987.2504
 00  7 10  0 48  0.0000000  0  8 21 05 11 20 25 30 29 22
  21909130.102   -17120316.359 8 -13321055.66746  21909127.153    21909137.9054
  24107935.640    -4865489.751 8  -3773709.51345  24107940.908    24107952.7904
  24213353.949    -3312884.845 7  -2568177.24645  24213354.865    24213368.2974
  24226948.381    -4239624.009 7  -3261876.29145  24226960.839    24226974.1454
  20801447.113   -23613244.085 9 -18367417.50548  20801450.470    20801459.3424
  21624954.052   -16002192.381 9 -12456186.00347  21624954.682    21624962.9154
  20983994.394   -20489138.699 9 -15721731.04447  20983995.727    20984004.6684
  24496940.754    -4052024.627 7  -3132854.77745  24496932.184    24496948.6694
 00  7 10  0 48 30.0000000  0  8 21 05 11 20 25 30 29 22
  21927362.278   -17024471.676 8 -13246371.60646  21927365.699    21927377.2424
  24125088.634    -4775356.886 8  -3703476.17145  24125092.803    24125105.2834
  24221836.798    -3268302.424 7  -2533437.76245  24221838.875    24221852.7394
  24208144.789    -4338484.521 7  -3338910.36545  24208148.928    24208161.6124
  20796718.207   -23638094.639 9 -18386781.54548  20796721.615    20796730.2524
  21631815.035   -15966133.705 9 -12428088.33447  21631816.204    21631824.9714
  20990996.070   -20452344.600 9 -15693060.33347  20990997.179    20991006.2814
  24473880.127    -4173071.027 7  -3227176.27545  24473897.358    24473913.6034
 00  7 10  0 49  0.0000000  0  8 21 05 11 20 25 30 29 22
  21945670.726   -16928263.126 8 -13171404.00846  21945673.875    21945685.1854
  24142297.119    -4684929.745 8  -3633013.52245  24142300.863    24142312.4064
  24230381.458    -3223372.426 7  -2498427.50145  24230388.916    24230402.6264
  24189377.221    -4437113.308 8  -3415763.86745  24189380.026    24189393.0784
  20792049.474   -23662632.269 9 -18405901.74948  20792052.308    20792060.6774
  21638783.674   -15929501.031 9 -12399543.39147  21638786.870    21638795.5464
  20998050.155   -20415266.643 9 -15664168.44447  20998053.006    20998062.1724
  24450855.090    -4294100.652 7  -3321484.74545  24450868.096    24450882.7274
 00  7 10  0 49 30.0000000  0  8 21 05 11 20 25 30 29 22
  21964044.943   -16831692.948 8 -13096154.62046  21964050.824    21964061.4754
  24159560.955    -4594211.138 8  -3562323.74245  24159563.794    24159575.8774
  24239000.259    -3178097.013 7  -2463148.06745  24239004.797    24239018.1984
  24170655.012    -4535507.490 7  -3492434.62045  24170656.000    24170667.9114
  20787440.117   -23686857.363 9 -18424778.41848  20787442.495    20787450.5904
  21645862.557   -15892295.709 9 -12370552.23547  21645866.946    21645874.9824
  21005158.255   -20377904.643 9 -15635055.21847  21005162.678    21005171.9694
  24427841.849    -4415111.170 7  -3415778.34545  24427838.477    24427854.4324
 00  7 10  0 50  0.0000000  0  8 21 05 11 20 25 30 29 22
  21982495.826   -16734764.148 8 -13020625.77146  21982495.832    21982506.5494
  24176884.393    -4503203.674 8  -3491408.90545  24176881.973    24176893.5974
  24247680.179    -3132478.921 7  -2427601.56745  24247686.238    24247699.2904
  24151972.333    -4633664.210 7  -3568920.35845  24151977.564    24151987.6764
  20782889.307   -23710770.622 9 -18443412.10048  20782891.799    20782900.0694
  21653054.524   -15854519.096 9 -12341115.92047  21653055.961    21653064.0834
  21012325.066   -20340258.103 9 -15605720.26747  21012326.713    21012335.5974
  24404809.946    -4536099.549 7  -3510054.68145  24404815.906    24404831.2364
 00  7 10  0 50 30.0000000  0  8 21 05 11 20 25 30 29 22
  22001007.870   -16637479.265 8 -12944819.49146  22001008.264    22001019.4044
  24194251.449    -4411909.743 8  -3420270.85145  24194254.996    24194267.3604
  24256428.496    -3086520.506 7  -2391789.94345  24256432.235    24256445.6214
  24133340.706    -4731580.837 8  -3645218.94845  24133344.890    24133356.5054
  20778396.278   -23734372.168 9 -18461802.88948  20778400.459    20778408.9854
  21660350.224   -15816172.495 9 -12311235.45847  21660352.904    21660361.2314
  21019542.366   -20302326.778 9 -15576163.41947  21019545.323    21019553.6544
  24381780.077    -4657062.939 7  -3604311.56745  24381795.622    24381811.6114
 00  7 10  0 51  0.0000000  0  8 21 05 11 20 25 30 29 22
  22019586.252   -16539840.629 8 -12868737.54846  22019588.628    22019600.1884
  24211678.235    -4320332.054 8  -3348911.83645  24211681.333    24211693.4744
  24265239.751    -3040224.030 7  -2355714.89645  24265240.066    24265255.6474
  24114754.260    -4829254.778 7  -3721328.47745  24114758.613    24114769.7984
  20773965.238   -23757662.810 9 -18479951.41148  20773968.613    20773976.9244
  21667754.035   -15777257.643 9 -12280912.19547  21667758.189    21667766.5884
  21026813.951   -20264110.277 9 -15546384.34947  21026817.527    21026825.7704
  24358777.061    -4777998.804 7  -3698547.03745  24358782.472    24358797.7154
 00  7 10  0 51 30.0000000  0  8 21 05 11 20 25 30 29 22
  22038234.395   -16441851.048 8 -12792382.13846  22038235.718    22038246.8754
  24229160.947    -4228472.947 8  -3277333.41045  24229161.326    24229173.7714
  24274107.757    -2993592.109 7  -2319378.46145  24274115.101    24274127.4964
  24096211.599    -4926683.422 7  -3797246.83945  24096218.174    24096230.8404
  20769592.021   -23780642.841 9 -18497857.89948  20769595.470    20769603.8684
  21675268.330   -15737775.599 9 -12250146.97447  21675271.328    21675279.5474
  21034141.629   -20225608.209 9 -15516382.76147  21034144.144    21034152.6594
  24335768.700    -4898905.031 7  -3792759.37745  24335774.644    24335791.2504
 00  7 10  0 52  0.0000000  0  8 21 05 11 20 25 30 29 22
  22056948.909   -16343513.276 8 -12715755.39746  22056948.358    22056959.9594
  24246693.994    -4136334.883 8  -3205537.45445  24246695.233    24246706.6544
  24283049.332    -2946627.283 7  -2282782.56945  24283053.817    24283065.4364
  24077730.969    -5023863.912 8  -3872971.82245  24077726.186    24077737.7054
  20765278.364   -23803312.812 9 -18515522.77548  20765281.452    20765290.0434
  21682886.506   -15697728.260 9 -12218941.25447  21682891.969    21682900.4734
  21041521.381   -20186820.347 9 -15486158.47347  21041525.470    21041533.7814
  24312760.386    -5019779.106 7  -3886946.65845  24312771.188    24312788.9954
 00  7 10  0 52 30.0000000  0  8 21 05 11 20 25 30 29 22
  22075724.026   -16244830.150 8 -12638859.57146  22075727.366    22075738.2494
  24264274.825    -4043920.651 8  -3133526.37545  24264280.422    24264292.6634
  24292047.669    -2899332.001 7  -2245929.19545  24292053.032    24292065.0744
  24059276.466    -5120793.638 7  -3948501.42245  24059281.514    24059290.9204
  20761023.714   -23825673.211 9 -18532946.43748  20761026.597    20761034.9484
  21690616.190   -15657117.269 9 -12187296.33147  21690619.986    21690628.4324
  21048958.937   -20147746.367 9 -15455711.23847  21048960.796    21048969.1894
  24289786.065    -5140617.897 7  -3981106.49945  24289778.036    24289793.0084
 00  7 10  0 53  0.0000000  0  8 21 05 11 20 25 30 29 22
  22094569.718   -16145804.065 8 -12561696.49546  22094570.882    22094582.5844
  24281917.694    -3951232.899 8  -3061302.24545  24281918.897    24281930.5914
  24301114.148    -2851708.714 7  -2208820.23745  24301115.700    24301129.1614
  24040877.906    -5217470.020 7  -4023833.55245  24040882.373    24040894.8884
  20756827.701   -23847724.775 9 -18550129.43748  20756830.462    20756838.5044
  21698455.775   -15615943.998 9 -12155213.27247  21698455.361    21698462.8844
  21056447.477   -20108385.797 9 -15425040.68347  21056450.975    21056459.5374
  24266793.795    -5261418.700 7  -4075236.73545  24266790.959    24266806.0784
 00  7 10  0 53 30.0000000  0  8 21 05 11 20 25 30 29 22
  22113478.762   -16046437.524 8 -12484268.13646  22113480.576    22113491.4674
  24299601.434    -3858274.135 8  -2988866.95045  24299607.708    24299619.9974
  24310236.671    -2803760.119 7  -2171457.81145  24310239.484    24310253.0924
  24022533.355    -5313890.169 8  -4098966.11145  24022535.949    24022546.2664
  20752690.160   -23869467.407 9 -18567071.70748  20752692.751    20752700.9224
  21706393.003   -15574209.776 9 -12122693.11147  21706396.219    21706405.0704
  21063990.199   -20068738.486 9 -15394146.70047  21063995.382    21064004.4124
  24243798.446    -5382178.936 7  -4169335.34245  24243810.125    24243824.9884
 00  7 10  0 54  0.0000000  0  8 21 05 11 20 25 30 29 22
  22132449.821   -15946733.923 8 -12406577.11746  22132453.609    22132464.2564
  24317342.996    -3765046.922 7  -2916222.47045  24317349.336    24317360.0344
  24319422.409    -2755488.656 7  -2133843.77245  24319425.362    24319438.6004
  24004242.174    -5410051.395 8  -4173896.84245  24004236.589    24004246.2404
  20748612.756   -23890902.038 9 -18583773.97948  20748613.963    20748622.0424
  21714442.514   -15531916.231 9 -12089737.11147  21714444.700    21714453.5074
  21071591.290   -20028803.948 9 -15363028.89147  21071594.750    21071603.3334
  24220837.486    -5502896.462 7  -4263400.72945  24220837.881    24220853.3044
 00  7 10  0 54 30.0000000  0  8 21 05 11 20 25 30 29 22
  22151488.235   -15846695.674 8 -12328625.32046  22151491.108    22151501.6374
  24335140.611    -3671553.803 7  -2843370.77845  24335139.829    24335151.2704
  24328664.611    -2706896.805 7  -2095980.11645  24328671.499    24328684.0394
  23985980.216    -5505951.185 8  -4248623.89445  23985987.299    23985998.1514
  20744589.152   -23912028.976 9 -18600236.49148  20744593.484    20744601.3464
  21722597.556   -15489064.772 9 -12056346.37847  21722599.377    21722608.2404
  21079244.251   -19988581.957 9 -15331687.09847  21079248.673    21079257.1884
  24197882.711    -5623568.526 8  -4357430.62045  24197875.979    24197890.2354
 00  7 10  0 55  0.0000000  0  8 21 05 11 20 25 30 29 22
  22170590.287   -15746325.170 8 -12250414.65146  22170590.624    22170601.9434
  24352974.966    -3577797.291 8  -2770313.78945  24352982.152    24352992.2864
  24337976.346    -2657987.081 7  -2057868.75645  24337980.200    24337993.3574
  23967786.041    -5601586.711 8  -4323144.96845  23967787.767    23967799.1394
  20740628.777   -23932848.973 9 -18616459.82448  20740631.584    20740639.3504
  21730857.364   -15445657.161 9 -12022522.28147  21730859.320    21730868.3324
  21086955.767   -19948072.139 9 -15300121.02647  21086958.047    21086966.5454
  24174916.125    -5744192.216 8  -4451422.89045  24174921.593    24174935.5994
 00  7 10  0 55 30.0000000  0  8 21 05 11 20 25 30 29 22
  22189752.513   -15645625.279 8 -12171947.32746  22189752.550    22189764.4044
  24370868.961    -3483780.028 7  -2697053.64545  24370872.914    24370883.9204
  24347344.097    -2608762.038 7  -2019511.63045  24347346.747    24347360.1534
  23949641.265    -5696955.287 8  -4397458.03545  23949640.769    23949649.8014
  20736724.407   -23953362.607 9 -18632444.43848  20736727.989    20736736.1384
  21739221.969   -15401695.202 9 -11988266.21947  21739225.254    21739233.7004
  21094719.171   -19907274.178 9 -15268330.42347  21094721.551    21094730.2834
  24151983.593    -5864764.655 8  -4545375.22445  24151977.364    24151992.5874
 00  7 10  0 56  0.0000000  0  8 21 05 11 20 25 30 29 22
  22208969.752   -15544598.846 8 -12093225.54246  22208976.711    22208988.6784
  24388815.601    -3389504.476 7  -2623592.19945  24388812.202    24388823.7134
  24356772.763    -2559224.289 8  -1980910.87645  24356773.581    24356787.3644
  23931545.382    -5792054.407 8  -4471561.16345  23931542.764    23931552.3284
  20732878.684   -23973570.019 9 -18648190.43348  20732882.427    20732890.8414
  21747690.488   -15357180.471 9 -11953579.43947  21747696.121    21747704.5384
  21102537.816   -19866187.787 9 -15236315.07147  21102540.233    21102548.6344
  24129038.895    -5985283.481 7  -4639285.71845  24129043.704    24129058.3254
 00  7 10  0 56 30.0000000  0  8 21 05 11 20 25 30 29 22
  22228264.515   -15443248.488 8 -12014251.37346  22228263.492    22228275.0254
  24406805.068    -3294973.433 7  -2549931.66745  24406800.604    24406812.8134
  24366252.443    -2509376.311 7  -1942068.39045  24366259.730    24366273.3454
  23913494.477    -5886881.294 8  -4545452.11745  23913498.101    23913509.9904
  20729091.253   -23993472.093 9 -18663698.49948  20729095.148    20729103.4304
  21756270.741   -15312114.398 9 -11918463.02847  21756272.016    21756280.4774
  21110409.593   -19824812.777 9 -15204074.81847  21110413.300    21110421.9434
  24106112.845    -6105746.478 7  -4733152.74645  24106119.397    24106133.1414
 00  7 10  0 57  0.0000000  0  8 21 05 11 20 25 30 29 22
  22247612.797   -15341576.936 8 -11935026.91846  22247611.491    22247623.0034
  24424836.156    -3200189.510 8  -2476074.17245  24424837.530    24424850.0374
  24375796.445    -2459220.781 7  -1902986.20845  24375804.058    24375817.6684
  23895504.009    -5981433.073 8  -4619128.72545  23895506.043    23895515.5084
  20725362.320   -24013069.240 9 -18678968.95748  20725365.809    20725374.1844
  21764948.510   -15266498.934 9 -11882918.52047  21764952.266    21764960.9124
  21118338.780   -19783148.972 9 -15171609.53447  21118341.773    21118350.2414
  24083212.446    -6226150.648 8  -4826973.94945  24083207.307    24083220.6564
 00  7 10  0 57 30.0000000  0  8 21 05 11 20 25 30 29 22
  22267017.311   -15239586.990 8 -11855554.35546  22267019.537    22267031.5774
  24442922.008    -3105155.267 7  -2402021.63745  24442922.823    24442933.3094
  24385399.534    -2408760.379 7  -1863666.49345  24385406.052    24385419.7994
  23877559.466    -6075707.200 8  -4692589.02845  23877565.448    23877576.2814
  20721691.204   -24032361.863 9 -18694002.12648  20721694.967    20721703.0354
  21773733.686   -15220335.468 9 -11846946.99847  21773736.242    21773744.9634
  21126322.394   -19741195.696 9 -15138918.68347  21126325.139    21126333.7464
  24060306.650    -6346493.231 8  -4920747.11545  24060306.235    24060320.9314
 00  7 10  0 58  0.0000000  0  8 21 05 11 20 25 30 29 22
  22286483.941   -15137280.986 8 -11775835.49246  22286488.171    22286499.1204
  24461051.993    -3009873.232 7  -2327775.99245  24461054.554    24461065.7114
  24395062.513    -2357997.686 7  -1824111.22145  24395066.086    24395078.8254
  23859677.698    -6169700.903 8  -4765830.78545  23859678.955    23859690.2144
  20718078.350   -24051350.512 9 -18708798.43148  20718081.404    20718089.4384
  21782622.610   -15173626.077 9 -11810550.09147  21782625.184    21782633.7994
  21134362.242   -19698953.027 9 -15106002.33047  21134363.865    21134372.2734
  24037411.371    -6466771.369 8  -5014470.13045  24037418.193    24037431.5744
 00  7 10  0 58 30.0000000  0  8 21 05 11 20 25 30 29 22
  22306016.313   -15034662.243 8 -11695872.94346  22306015.788    22306027.8644
  24479230.118    -2914345.646 7  -2253338.91945  24479232.942    24479243.2374
  24404781.876    -2306935.117 8  -1784322.22845  24404783.089    24404796.4954
  23841843.698    -6263411.592 8  -4838851.99945  23841846.736    23841857.4784
  20714524.409   -24070035.720 9 -18723358.29048  20714525.569    20714533.6424
  21791616.519   -15126372.217 9 -11773728.93047  21791617.401    21791625.5934
  21142453.634   -19656420.522 9 -15072860.12647  21142457.247    21142465.7604
  24014544.746    -6586982.712 8  -5108141.08445  24014542.347    24014555.9514
 00  7 10  0 59  0.0000000  0  8 21 05 11 20 25 30 29 22
  22325596.019   -14931733.220 8 -11615668.64546  22325602.594    22325613.8354
  24497455.838    -2818575.555 7  -2178712.92045  24497458.183    24497468.2514
  24414558.111    -2255575.448 7  -1744301.74645  24414556.458    24414569.0814
  23824063.948    -6356836.380 8  -4911650.47645  23824067.867    23824079.1884
  20711023.826   -24088417.953 9 -18737682.07248  20711027.418    20711035.5484
  21800710.116   -15078575.961 9 -11736485.11647  21800712.644    21800720.9864
  21150603.756   -19613597.835 9 -15039491.82447  21150606.170    21150614.8794
  23991684.910    -6707124.821 8  -5201758.07745  23991680.445    23991693.7094
 00  7 10  0 59 30.0000000  0  8 21 05 11 20 25 30 29 22
  22345244.559   -14828496.930 8 -11535224.90746  22345247.476    22345259.6934
  24515725.687    -2722565.348 7  -2103899.80845  24515726.747    24515738.3774
  24424383.452    -2203921.180 7  -1704051.72445  24424385.944    24424398.6874
  23806336.819    -6449972.775 8  -4984224.19745  23806345.825    23806356.4444
  20707583.853   -24106497.888 9 -18751770.29048  20707587.048    20707595.1124
  21809909.221   -15030238.917 9 -11698819.90647  21809910.990    21809919.3094
  21158805.554   -19570484.867 9 -15005897.31747  21158810.166    21158819.2664
  23968828.013    -6827194.876 8  -5295318.93045  23968831.010    23968845.0594
 00  7 10  1  0  0.0000000  0  8 21 05 11 20 25 30 29 22
  22364949.035   -14724956.269 8 -11454543.99146  22364951.441    22364962.6454
  24534039.406    -2626317.863 7  -2028901.85245  24534041.509    24534054.6114
  24434264.214    -2151975.205 7  -1663574.36245  24434270.713    24434285.9074
  23788683.752    -6542818.025 8  -5056571.09445  23788677.267    23788687.6484
  20704200.596   -24124276.029 9 -18765623.35148  20704203.870    20704211.8444
  21819211.171   -14981362.802 9 -11660734.63947  21819212.118    21819220.3934
  21167067.580   -19527081.383 9 -14972076.44347  21167069.611    21167078.6894
  23945995.632    -6947189.900 8  -5388821.32545  23945997.297    23946010.9314
 00  7 10  1  0 30.0000000  0  8 21 05 11 20 25 30 29 22
  22384706.938   -14621113.893 8 -11373627.97746  22384711.371    22384723.4934
  24552404.308    -2529835.424 7  -1953720.85645  24552403.493    24552413.4994
  24444213.901    -2099739.851 7  -1622871.53245  24444211.349    24444224.6904
  23771061.005    -6635369.271 8  -5128688.92745  23771064.945    23771077.1904
  20700874.839   -24141752.933 9 -18779241.69048  20700878.172    20700885.9374
  21828611.053   -14931949.387 9 -11622230.69647  21828615.181    21828623.5374
  21175379.002   -19483386.961 9 -14938028.85647  21175384.618    21175393.4184
  23923168.487    -7067107.213 7  -5482263.17145  23923176.988    23923189.9194
 00  7 10  1  1  0.0000000  0  8 21 05 11 20 25 30 29 22
  22404531.333   -14516971.932 8 -11292478.52746  22404529.514    22404541.7244
  24570811.839    -2433120.621 8  -1878358.73545  24570807.860    24570817.3384
  24454202.478    -2047217.896 7  -1581945.41545  24454204.880    24454219.2104
  23753503.396    -6727623.990 8  -5200575.61145  23753508.028    23753520.3034
  20697606.956   -24158929.010 9 -18792625.61348  20697609.747    20697617.5354
  21838117.513   -14882000.600 9 -11583309.57847  21838119.927    21838128.9324
  21183752.338   -19439401.468 9 -14903754.45647  21183754.628    21183763.4684
  23900361.282    -7186944.471 7  -5575642.60445  23900371.300    23900386.2474
 00  7 10  1  1 30.0000000  0  8 21 05 11 20 25 30 29 22
  22424401.573   -14412533.755 8 -11211098.26046  22424403.574    22424415.3974
  24589254.052    -2336175.914 8  -1802817.46145  24589255.516    24589266.1614
  24464255.244    -1994412.046 7  -1540798.09245  24464254.174    24464268.7154
  23736010.660    -6819579.442 8  -5272229.13945  23736011.891    23736022.5994
  20694393.810   -24175805.180 9 -18805775.85148  20694398.077    20694406.0124
  21847723.365   -14831518.186 9 -11543972.66047  21847726.108    21847735.4024
  21192177.496   -19395124.592 9 -14869253.00747  21192180.307    21192189.1944
  23877577.852    -7306699.156 8  -5668957.73945  23877582.937    23877596.3474
 00  7 10  1  2  0.0000000  0  8 21 05 11 20 25 30 29 22
  22444330.357   -14307802.312 8 -11129489.46746  22444333.116    22444345.2634
  24607745.361    -2239003.908 7  -1727099.11845  24607745.973    24607757.4894
  24474347.875    -1941324.901 8  -1499431.54645  24474356.136    24474370.6854
  23718567.473    -6911233.016 8  -5343647.45045  23718569.816    23718581.6124
  20691241.321   -24192381.621 9 -18818692.53448  20691243.915    20691251.6244
  21857431.727   -14780504.150 9 -11504221.49547  21857433.951    21857442.9884
  21200658.675   -19350556.174 9 -14834524.37947  21200661.570    21200670.3544
  23854818.456    -7426368.391 8  -5762206.26045  23854811.602    23854825.6034
 00  7 10  1  2 30.0000000  0  7 21 11 20 25 30 29 22
  22464309.752   -14202780.259 8 -11047654.22346  22464317.652    22464330.2504
  24484511.531    -1887959.087 7  -1457847.89445  24484512.382    24484525.7344
  23701179.497    -7002581.975 8  -5414828.34345  23701186.247    23701199.3114
  20688143.230   -24208658.990 9 -18831376.17348  20688146.466    20688154.2394
  21867239.303   -14728960.145 8 -11464057.35447  21867242.346    21867251.0144
  21209194.075   -19305695.903 9 -14799568.34047  21209198.155    21209206.9264
  23832048.644    -7545949.236 8  -5855385.95545  23832055.841    23832069.0394
 00  7 10  1  3  0.0000000  0  7 21 11 20 25 30 29 22
  22484357.592   -14097470.585 8 -10965594.85346  22484358.536    22484369.8404
  24494713.892    -1834317.346 7  -1416049.20845  24494720.139    24494734.1474
  23683862.617    -7093623.379 8  -5485769.61345  23683862.042    23683872.7984
  20685102.576   -24224638.088 9 -18843827.39748  20685105.713    20685113.6184
  21877147.959   -14676888.279 9 -11423481.87847  21877151.401    21877159.8514
  21217787.394   -19260543.646 9 -14764384.77247  21217790.421    21217799.0744
  23809316.221    -7665438.863 8  -5948494.57145  23809317.146    23809331.6944
 00  7 10  1  3 30.0000000  0  6 21 20 25 30 29 22
  22504450.456   -13991876.093 8 -10883313.56246  22504452.202    22504464.1534
  23666594.669    -7184354.830 8  -5556469.39545  23666597.709    23666607.2134
  20682119.327   -24240319.048 9 -18856046.30648  20682121.702    20682129.5244
  21887158.353   -14624290.473 9 -11382496.59147  21887160.714    21887169.2384
  21226435.219   -19215099.066 9 -14728973.42847  21226438.151    21226447.0654
  23786590.784    -7784835.220 8  -6041530.44245  23786596.142    23786610.6664
 00  7 10  1  4  0.0000000  0  6 21 20 25 30 29 22
  22524601.206   -13885999.163 8 -10800812.16846  22524600.247    22524611.6584
  23649389.141    -7274773.475 8  -5626925.40745  23649389.719    23649400.7524
  20679191.016   -24255702.804 9 -18868033.62448  20679194.153    20679202.2684
  21897265.552   -14571168.685 8 -11341103.00647  21897269.318    21897278.1084
  21235139.500   -19169362.139 9 -14693334.26947  21235141.661    21235150.4244
  23763898.081    -7904135.616 8  -6134491.58545  23763895.050    23763908.9934
 00  7 10  1  4 30.0000000  0  6 21 20 25 30 29 22
  22544799.310   -13779842.872 8 -10718093.10646  22544801.255    22544813.4184
  23632239.937    -7364876.782 8  -5697135.63645  23632243.942    23632254.8614
  20676319.517   -24270789.885 9 -18879789.77148  20676322.972    20676331.2334
  21907472.581   -14517524.867 8 -11299302.65547  21907477.405    21907486.5984
  21243896.947   -19123332.580 9 -14657467.08647  21243900.338    21243909.1654
  23741215.873    -8023336.922 8  -6227375.50345  23741211.961    23741225.4354
 00  7 10  1  5  0.0000000  0  6 21 20 25 30 29 22
  22565053.817   -13673410.024 8 -10635158.54946  22565054.474    22565066.3784
  23615152.223    -7454661.969 8  -5767098.04645  23615158.651    23615169.9944
  20673503.809   -24285580.865 9 -18891315.18848  20673508.406    20673516.5564
  21917782.605   -14463360.966 8 -11257097.03947  21917784.780    21917793.4224
  21252711.804   -19077010.179 9 -14621371.72347  21252715.355    21252723.9884
  23718544.473    -8142436.346 8  -6320180.08845  23718547.894    23718560.3914
 00  7 10  1  5 30.0000000  0  6 21 20 25 30 29 22
  22585356.738   -13566703.176 8 -10552010.51146  22585359.121    22585372.6224
  23598129.927    -7544126.380 8  -5836810.47445  23598133.763    23598145.5914
  20670746.635   -24300076.241 9 -18902610.26948  20670750.184    20670758.2404
  21928188.085   -14408678.881 8 -11214487.64147  21928190.066    21928198.8914
  21261581.526   -19030394.685 9 -14585047.96947  21261585.922    21261594.8424
  23695903.729    -8261431.266 8  -6412903.22945  23695903.193    23695916.4704
 00  7 10  1  6  0.0000000  0  6 21 20 25 30 29 22
  22605718.514   -13459725.786 8 -10468651.64146  22605718.055    22605729.4424
  23581170.496    -7633267.259 8  -5906270.79345  23581170.755    23581182.1864
  20668045.767   -24314276.837 9 -18913675.65648  20668047.838    20668055.6704
  21938692.811   -14353480.772 9 -11171476.14047  21938694.774    21938702.1874
  21270509.550   -18983485.784 8 -14548495.60347  21270512.461    21270521.1634
  23673274.658    -8380319.397 8  -6505543.14845  23673279.107    23673292.5934
 00  7 10  1  6 30.0000000  0  6 21 20 25 30 29 22
  22626117.741   -13352480.411 8 -10385083.92346  22626126.476    22626137.9274
  23564264.865    -7722082.018 8  -5975476.98645  23564270.039    23564280.7584
  20665397.869   -24328182.804 9 -18924511.46648  20665401.375    20665409.3544
  21949294.332   -14297768.306 8 -11128063.85547  21949295.483    21949304.8854
  21279492.627   -18936283.591 9 -14511714.70947  21279494.821    21279503.5614
  23650672.454    -8499098.152 8  -6598097.87645  23650676.538    23650689.8694
 00  7 10  1  7  0.0000000  0  6 21 20 25 30 29 22
  22646585.317   -13244970.138 8 -10301309.80146  22646585.712    22646596.3454
  23547428.517    -7810567.885 8  -6044426.95645  23547430.791    23547442.2294
  20662807.828   -24341794.899 9 -18935118.28648  20662811.222    20662819.3234
  21959989.740   -14241543.768 8 -11084252.53847  21959994.739    21960002.7094
  21288531.992   -18888787.823 9 -14474705.05547  21288533.642    21288541.7474
  23628089.379    -8617764.319 8  -6690564.84745  23628094.687    23628107.6704
 00  7 10  1  7 30.0000000  0  6 21 20 25 30 29 22
  22667092.826   -13137197.611 8 -10217331.34846  22667093.316    22667105.9694
  23530655.776    -7898722.482 8  -6113118.82146  23530656.825    23530667.9104
  20660273.782   -24355113.770 9 -18945496.61148  20660276.609    20660284.6174
  21970786.229   -14184809.304 8 -11040043.89147  21970791.333    21970800.3354
  21297623.580   -18840998.207 9 -14437466.41847  21297627.659    21297635.4004
  23605531.686    -8736315.064 8  -6782941.89045  23605534.467    23605548.8704
 00  7 10  1  8  0.0000000  0  6 21 20 25 30 29 22
  22687651.407   -13029165.670 8 -10133150.77246  22687651.264    22687663.2814
  23513939.393    -7986542.851 8  -6181550.21746  23513944.863    23513955.8164
  20657793.811   -24368140.158 9 -18955647.02848  20657798.024    20657805.6414
  21981682.788   -14127566.643 8 -10995439.23447  21981684.295    21981692.6054
  21306773.939   -18792914.728 9 -14399998.80947  21306777.547    21306785.7404
  23582987.478    -8854747.922 7  -6875227.01945  23582996.268    23583011.1614
 00  7 10  1  8 30.0000000  0  6 21 20 25 30 29 22
  22708251.892   -12920877.394 8 -10048770.44246  22708257.491    22708270.2984
  23497295.676    -8074026.200 8  -6249718.87045  23497296.495    23497307.7484
  20655371.458   -24380874.477 9 -18965569.85848  20655374.526    20655382.4184
  21992671.558   -14069817.987 8 -10950440.29147  21992673.076    21992682.5214
  21315980.907   -18744537.143 9 -14362302.02647  21315983.442    21315992.6974
  23560471.369    -8973060.363 7  -6967418.34245  23560482.618    23560497.4064
 00  7 10  1  9  0.0000000  0  6 21 20 25 30 29 22
  22728917.360   -12812335.517 8  -9964192.48646  22728913.166    22728924.9114
  23480709.229    -8161170.129 8  -6317623.18046  23480714.062    23480725.6794
  20653003.399   -24393317.359 9 -18975265.59748  20653006.869    20653014.5954
  22003759.119   -14011565.638 8 -10905048.85747  22003758.781    22003767.5324
  21325242.990   -18695865.227 9 -14324375.91047  21325245.263    21325254.4564
  23537988.089    -9091249.848 8  -7059513.82845  23537992.947    23538005.7224
 00  7 10  1  9 30.0000000  0  6 21 20 25 30 29 22
  22749611.390   -12703542.849 8  -9879419.11746  22749614.888    22749627.1874
  23464195.673    -8247971.901 8  -6385260.84146  23464195.390    23464206.6374
  20650690.593   -24405469.541 9 -18984734.79948  20650694.341    20650701.9944
  22014936.492   -13952811.665 8 -10859266.58247  22014938.611    22014948.3974
  21334561.222   -18646898.990 9 -14286220.45147  21334563.428    21334572.3294
  23515523.393    -9209313.155 8  -7151511.05245  23515526.582    23515539.3354
 00  7 10  1 10  0.0000000  0  6 21 20 25 30 29 22
  22770359.434   -12594502.429 8  -9794452.69245  22770364.338    22770376.5974
  23447745.046    -8334428.994 8  -6452629.98345  23447742.968    23447753.8414
  20648435.040   -24417331.382 9 -18993977.75948  20648437.206    20648444.7404
  22026213.228   -13893557.940 8 -10813094.85947  22026214.629    22026223.6734
  21343933.311   -18597638.146 9 -14247835.42147  21343937.054    21343946.1374
  23493084.963    -9327247.555 8  -7243407.81545  23493084.655    23493097.0584
 00  7 10  1 10 30.0000000  0  6 21 20 25 30 29 22
  22791155.934   -12485216.779 8  -9709295.17346  22791161.611    22791174.4954
  23431350.632    -8420538.424 8  -6519728.12246  23431357.873    23431369.0074
  20646231.126   -24428903.699 9 -19002995.11148  20646235.043    20646242.7274
  22037584.820   -13833806.887 8 -10766535.66547  22037584.658    22037594.4624
  21353366.948   -18548082.695 9 -14209220.83647  21353367.566    21353376.0844
  23470661.422    -9445050.455 8  -7335202.10345  23470666.521    23470679.0804
 00  7 10  1 11  0.0000000  0  6 21 20 25 30 29 22
  22812002.344   -12375689.302 8  -9623949.22846  22812003.335    22812016.9144
  23415040.898    -8506297.754 8  -6586553.52946  23415039.000    23415048.8784
  20644084.607   -24440187.068 9 -19011787.31548  20644087.623    20644095.6124
  22049043.845   -13773560.289 8 -10719590.27247  22049048.418    22049057.4854
  21362850.410   -18498232.548 9 -14170376.60747  21362853.660    21362862.6424
  23448273.688    -9562719.571 8  -7426892.16645  23448274.890    23448286.2934
 00  7 10  1 11 30.0000000  0  6 21 20 25 30 29 22
  22832891.190   -12265922.509 8  -9538416.85246  22832891.902    22832905.1324
  23398782.860    -8591704.350 8  -6653104.03546  23398785.374    23398796.5144
  20641990.976   -24451181.767 9 -19020354.57848  20641995.170    20642003.3304
  22060601.723   -13712820.771 8 -10672260.76347  22060607.837    22060616.3774
  21372391.875   -18448087.361 9 -14131302.47747  21372395.870    21372404.9634
  23425903.896    -9680252.001 8  -7518475.63845  23425908.257    23425922.3154
 00  7 10  1 12  0.0000000  0  7 21 20 25 06 30 29 22
  22853827.163   -12155919.302 8  -9452700.19346  22853825.624    22853837.3434
  23382595.172    -8676755.441 8  -6719377.51546  23382601.155    23382612.2614
  20639953.150   -24461888.449 9 -19028697.41148  20639957.901    20639965.8454
  24855672.069    -2091902.50418  -1619300.13455  24855670.465    24855686.4034
  22072254.182   -13651590.196 8 -10624548.63347  22072259.515    22072267.5804
  21381992.111   -18397647.203 9 -14091998.49947  21381994.639    21382003.6054
  23403566.299    -9797644.705 8  -7609950.27245  23403568.708    23403582.5414
 00  7 10  1 12 30.0000000  0  7 21 20 25 06 30 29 22
  22874797.495   -12045683.180 8  -9366802.04446  22874802.644    22874815.1704
  23366478.164    -8761448.503 8  -6785372.04746  23366484.794    23366493.9314
  20637972.682   -24472307.845 9 -19036816.38948  20637975.266    20637983.1134
  24844032.271    -2153044.692 7  -1666943.28945  24844035.346    24844049.2284
  22084002.387   -13589870.791 8 -10576455.59447  22084004.233    22084012.5994
  21391645.809   -18346911.905 8 -14052464.53847  21391648.822    21391657.6554
  23381262.962    -9914894.939 8  -7701313.88745  23381257.347    23381270.7084
 00  7 10  1 13  0.0000000  0  7 21 20 25 06 30 29 22
  22895821.618   -11935216.724 8  -9280724.45846  22895823.332    22895836.0244
  23350432.398    -8845780.791 8  -6851085.43446  23350435.971    23350447.1434
  20636043.824   -24482440.546 9 -19044711.97048  20636046.991    20636054.7174
  24832438.539    -2213984.706 7  -1714428.82245  24832438.507    24832452.4654
  22095834.767   -13527664.855 8 -10527983.49347  22095841.090    22095850.8674
  21401357.882   -18295881.438 8 -14012700.57747  21401359.773    21401368.3364
  23358960.322   -10032000.195 8  -7792564.53945  23358973.217    23358986.1654
 00  7 10  1 13 30.0000000  0  7 21 20 25 06 30 29 22
  22916887.293   -11824522.878 8  -9194469.68145  22916888.077    22916899.9464
  23334457.180    -8929749.824 8  -6916515.75946  23334457.681    23334468.7284
  20634169.362   -24492287.827 9 -19052385.14448  20634173.000    20634180.7994
  24820874.739    -2274719.822 7  -1761754.68045  24820880.283    24820895.5134
  22107768.796   -13464974.447 8 -10479133.82246  22107770.245    22107780.1844
  21411123.220   -18244555.526 8 -13972706.39047  21411126.771    21411135.6964
  23336717.962   -10148958.116 8  -7883700.35746  23336716.006    23336729.6274
 00  7 10  1 14  0.0000000  0  7 21 20 25 06 30 29 22
  22937995.636   -11713604.023 8  -9108039.58345  22937995.814    22938007.9414
  23318546.820    -9013352.887 8  -6981660.93846  23318549.626    23318559.3254
  20632350.089   -24501849.701 9 -19059835.92948  20632353.232    20632361.1034
  24809361.930    -2335247.117 7  -1808918.65345  24809363.782    24809377.7704
  22119788.784   -13401801.939 8 -10429908.48747  22119792.060    22119802.1754
  21420946.676   -18192934.235 9 -13932482.02847  21420950.296    21420958.7224
  23314485.540   -10265765.679 8  -7974719.02746  23314488.620    23314500.9194
 00  7 10  1 14 30.0000000  0  7 21 20 25 06 30 29 22
  22959139.934   -11602463.848 8  -9021437.00246  22959145.035    22959157.7634
  23302709.235    -9096587.527 8  -7046519.01446  23302709.856    23302720.3384
  20630584.391   -24511126.847 9 -19067064.85648  20630587.950    20630595.7764
  24797876.176    -2395563.966 7  -1855918.64645  24797884.324    24797900.7574
  22131902.512   -13338149.547 8 -10380309.24246  22131904.447    22131914.1964
  21430826.202   -18141017.389 8 -13892027.36247  21430829.689    21430838.6174
  23292291.449   -10382419.715 8  -8065617.97246  23292290.089    23292303.2274
 00  7 10  1 15  0.0000000  0  7 21 20 25 06 30 29 22
  22980330.452   -11491104.976 8  -8934664.04145  22980335.880    22980348.6594
  23286941.290    -9179450.813 8  -7111087.73646  23286941.688    23286951.9684
  20628871.671   -24520119.800 9 -19074072.33048  20628876.551    20628884.6434
  24786454.111    -2455667.777 7  -1902752.69745  24786447.361    24786461.5184
  22144104.718   -13274019.817 8 -10330338.04746  22144108.327    22144118.4854
  21440760.265   -18088805.176 8 -13851342.54947  21440764.825    21440774.2804
  23270117.551   -10498917.912 8  -8156395.59546  23270120.686    23270133.3904
 00  7 10  1 15 30.0000000  0  7 21 20 25 06 30 29 22
  23001565.160   -11379530.322 8  -8847722.92146  23001567.540    23001580.5794
  23271238.091    -9261940.157 8  -7175365.10946  23271243.528    23271254.2384
  20627216.224   -24528829.505 9 -19080859.09148  20627219.381    20627227.1474
  24775039.844    -2515555.652 7  -1949418.45845  24775051.522    24775063.6864
  22156399.841   -13209414.545 8 -10279996.35746  22156402.037    22156411.6434
  21450753.827   -18036297.294 8 -13810427.35247  21450756.794    21450766.5644
  23247976.545   -10615257.476 8  -8247049.56745  23247981.583    23247994.0454
 00  7 10  1 16  0.0000000  0  7 21 20 25 06 30 29 22
  23022843.290   -11267742.694 8  -8760615.82246  23022840.534    23022853.3704
  23255617.018    -9344053.082 8  -7239349.13046  23255617.408    23255628.9434
  20625611.718   -24537256.791 9 -19087425.77548  20625615.720    20625623.5414
  24763693.483    -2575224.638 7  -1995913.65645  24763695.017    24763708.9804
  22168784.490   -13144336.014 8 -10229285.80346  22168785.804    22168795.4324
  21460801.565   -17983493.744 8 -13769281.76347  21460805.411    21460814.6404
  23225872.933   -10731436.122 8  -8337578.14545  23225872.121    23225885.9294
 00  7 10  1 16 30.0000000  0  7 21 20 25 06 30 29 22
  23044157.859   -11155744.830 8  -8673344.93045  23044152.533    23044166.1504
  23240056.979    -9425786.948 8  -7303037.75146  23240064.251    23240076.0144
  20624063.413   -24545401.409 9 -19093772.20748  20624065.730    20624073.7844
  24752382.370    -2634671.936 7  -2042236.03945  24752384.368    24752397.1604
  22181256.844   -13078786.579 8 -10178208.37446  22181260.003    22181269.9344
  21470905.942   -17930394.492 8 -13727905.76047  21470909.828    21470918.8684
  23203791.661   -10847450.789 8  -8427978.93145  23203796.293    23203808.8454
 00  7 10  1 17  0.0000000  0  7 21 20 25 06 30 29 22
  23065499.757   -11043539.712 8  -8585912.55445  23065504.435    23065517.5774
  23224585.281    -9507139.317 8  -7366429.09246  23224584.203    23224594.7994
  20622566.053   -24553264.486 9 -19099899.24548  20622569.572    20622577.3814
  24741113.384    -2693895.015 8  -2088383.70545  24741115.612    24741127.6624
  22193818.254   -13012768.464 8 -10126765.67546  22193822.863    22193831.3924
  21481067.015   -17876999.464 8 -13686299.27447  21481070.284    21481079.5454
  23181748.793   -10963298.451 8  -8518249.60445  23181751.906    23181762.3404
 00  7 10  1 17 30.0000000  0  7 21 20 25 06 30 29 22
  23086896.467   -10931130.291 8  -8498320.96245  23086896.582    23086908.8434
  23209171.454    -9588107.500 8  -7429521.12746  23209175.674    23209186.0254
  20621122.927   -24560846.626 9 -19105807.38348  20621126.777    20621134.3764
  24729878.162    -2752891.446 7  -2134354.78345  24729886.038    24729901.5924
  22206472.146   -12946284.667 8 -10074960.17346  22206475.217    22206484.1424
  21491287.046   -17823308.782 8 -13644462.41447  21491287.834    21491296.6734
  23159737.072   -11078976.423 8  -8608388.05446  23159737.535    23159750.9944
 00  7 10  1 18  0.0000000  0  7 21 20 25 06 30 29 22
  23108317.041   -10818519.712 8  -8410572.63645  23108325.256    23108338.5784
  23193841.075    -9668688.847 8  -7492311.68646  23193842.191    23193851.5824
  20619733.225   -24568148.668 9 -19111497.25648  20619737.132    20619744.7954
  24718702.565    -2811658.257 7  -2180146.90345  24718703.030    24718718.0284
  22219209.184   -12879336.576 8 -10022792.92246  22219214.623    22219223.7344
  21501559.288   -17769322.165 8 -13602394.95247  21501561.123    21501569.7594
  23137763.067   -11194482.457 8  -8698392.53146  23137758.291    23137768.8994
 00  7 10  1 18 30.0000000  0  7 21 20 25 06 30 29 22
  23129790.878   -10705711.045 8  -8322669.96245  23129792.987    23129804.9154
  23178579.618    -9748880.837 8  -7554798.84746  23178581.214    23178591.6494
  20618396.306   -24575170.858 9 -19116969.06348  20618400.659    20618408.5704
  24707565.846    -2870192.627 7  -2225757.89345  24707565.079    24707578.0174
  22232039.728   -12811926.765 8  -9970265.73446  22232042.596    22232051.6284
  21511887.764   -17715039.688 8 -13560096.95347  21511890.458    21511899.9014
  23115804.546   -11309813.908 8  -8788260.97746  23115811.181    23115822.7944
 00  7 10  1 19  0.0000000  0  7 21 20 25 06 30 29 22
  23151293.637   -10592707.379 8  -8234615.30445  23151296.280    23151308.9074
  23163393.315    -9828680.955 8  -7616980.64446  23163396.106    23163405.5004
  20617112.890   -24581914.060 9 -19122223.47048  20617117.555    20617125.4584
  24696471.631    -2928491.721 7  -2271185.47645  24696469.667    24696482.8694
  22244956.862   -12744057.877 8  -9917380.88946  22244957.532    22244966.0184
  21522270.902   -17660461.497 8 -13517568.51747  21522276.829    21522285.4134
  23093900.424   -11424967.675 8  -8877990.95146  23093898.236    23093909.9764
 00  7 10  1 19 30.0000000  0  7 21 20 25 06 30 29 22
  23172837.421   -10479510.781 8  -8146410.33245  23172837.437    23172849.4044
  23148281.069    -9908086.411 8  -7678854.93946  23148284.987    23148295.0964
  20615884.224   -24588378.648 9 -19127260.78048  20615887.404    20615895.2704
  24685417.115    -2986553.001 7  -2316427.82245  24685421.079    24685435.4404
  22257954.574   -12675732.245 8  -9864140.18346  22257958.924    22257968.1964
  21532715.282   -17605587.350 8 -13474809.47647  21532718.687    21532727.3394
  23072015.729   -11539940.902 8  -8967580.25246  23072018.907    23072030.2194
 00  7 10  1 20  0.0000000  0  7 21 20 25 06 30 29 22
  23194410.127   -10366124.820 8  -8058057.82945  23194413.299    23194426.8134
  23133247.452    -9987094.880 8  -7740419.83646  23133250.574    23133261.9334
  20614707.128   -24594565.626 9 -19132081.76248  20614710.025    20614718.0984
  24674413.388    -3044373.802 8  -2361482.85645  24674420.564    24674432.1304
  22271047.493   -12606952.185 8  -9810545.31146  22271047.208    22271056.3344
  21543213.625   -17550417.349 8 -13431819.89347  21543216.859    21543226.1134
  23050165.677   -11654730.952 8  -9057026.82446  23050174.780    23050186.9354
 00  7 10  1 20 30.0000000  0  7 21 20 25 06 30 29 22
  23216030.699   -10252552.203 8  -7969559.86645  23216026.487    23216039.6934
  23118292.643   -10065703.644 8  -7801673.31546  23118292.172    23118302.4694
  20613579.888   -24600475.411 9 -19136686.75748  20613585.324    20613593.3204
  24663459.572    -3101951.501 7  -2406348.42445  24663462.229    24663477.8184
  22284216.851   -12537719.960 8  -9756598.12446  22284221.796    22284230.5834
  21553768.410   -17494951.439 8 -13388599.73847  21553771.784    21553780.2684
  23028369.147   -11769335.419 8  -9146328.78746  23028366.957    23028378.7014
 00  7 10  1 21  0.0000000  0  7 21 20 25 06 30 29 22
  23237673.719   -10138795.708 8  -7880918.63545  23237673.668    23237686.4914
  23103404.069   -10143910.367 8  -7862613.51946  23103409.712    23103420.4234
  20612511.003   -24606108.703 9 -19141076.30648  20612513.492    20612521.2114
  24652552.592    -3159283.222 7  -2451022.26245  24652551.736    24652566.7254
  22297478.760   -12468038.070 8  -9702300.56346  22297481.896    22297491.0144
  21564379.941   -17439189.656 8 -13345149.02147  21564383.340    21564391.6994
  23006585.836   -11883751.700 8  -9235484.11046  23006593.678    23006605.9224
 00  7 10  1 21 30.0000000  0  7 21 20 25 06 30 29 22
  23259349.296   -10024858.777 8  -7792136.76545  23259354.918    23259368.2394
  23088596.665   -10221712.278 8  -7923238.28546  23088603.180    23088614.4424
  20611490.088   -24611466.212 9 -19145250.95548  20611493.724    20611501.7444
  24641679.119    -3216366.336 7  -2495502.31445  24641687.529    24641703.2454
  22310823.033   -12397908.830 8  -9647654.40946  22310826.603    22310836.7264
  21575044.629   -17383132.091 8 -13301467.82147  21575050.401    21575059.3374
  22984850.564   -11997976.632 8  -9324490.33746  22984856.254    22984868.8724
 00  7 10  1 22  0.0000000  0  7 21 20 25 06 30 29 22
  23281067.799    -9910744.410 8  -7703216.66445  23281070.020    23281083.7864
  23073876.619   -10299107.095 8  -7983545.83646  23073876.413    23073886.7164
  20610524.905   -24616548.833 9 -19149211.41248  20610526.495    20610534.4894
  24630867.837    -3273198.161 7  -2539786.64445  24630873.490    24630888.0524
  22324256.431   -12327334.886 8  -9592661.72046  22324257.194    22324266.1874
  21585772.224   -17326778.730 8 -13257556.14947  21585774.265    21585782.7274
  22963160.263   -12112007.438 8  -9413345.27145  22963156.427    22963169.4824
 00  7 10  1 22 30.0000000  0  7 21 20 25 06 30 29 22
  23302816.600    -9796455.193 8  -7614160.30545  23302818.755    23302831.4574
  23059224.661   -10376092.164 8  -8043534.11146  23059226.387    23059236.9374
  20609609.041   -24621356.733 9 -19152957.79548  20609611.446    20609619.6314
  24620105.672    -3329776.081 8  -2583873.11845  24620108.303    24620120.3124
  22337769.954   -12256318.534 8  -9537324.30146  22337770.707    22337779.5434
  21596547.951   -17270129.663 8 -13213414.04847  21596554.403    21596563.1374
  22941497.482   -12225841.457 8  -9502046.88546  22941495.398    22941506.3684
 00  7 10  1 23  0.0000000  0  7 21 20 25 06 30 29 22
  23324591.469    -9681994.208 8  -7524970.11945  23324599.402    23324613.0784
  23044656.578   -10452664.867 8  -8103201.06046  23044654.701    23044665.3314
  20608745.259   -24625890.955 9 -19156490.92748  20608748.638    20608756.6374
  24609385.282    -3386097.288 8  -2627759.60745  24609390.245    24609402.0314
  22351364.538   -12184862.115 8  -9481643.99346  22351368.897    22351378.2014
  21607388.264   -17213184.883 8 -13169041.51747  21607390.943    21607399.5604
  22919865.572   -12339476.376 8  -9590593.38046  22919871.112    22919883.1854
 00  7 10  1 23 30.0000000  0  7 21 20 25 06 30 29 22
  23346419.323    -9567364.136 8  -7435648.17345  23346413.821    23346427.0884
  23030156.615   -10528822.781 8  -8162544.80746  23030162.554    23030173.9674
  20607935.881   -24630151.551 9 -19159810.84748  20607937.717    20607945.8074
  24598721.163    -3442159.282 8  -2671444.09745  24598721.567    24598735.9064
  22365046.015   -12112968.004 8  -9425622.62746  22365050.074    22365058.3914
  21618280.997   -17155944.519 9 -13124438.66147  21618283.503    21618292.0934
  22898277.931   -12452909.511 8  -9678982.62946  22898284.762    22898296.7894
 00  7 10  1 24  0.0000000  0  7 21 20 25 06 30 29 22
  23368254.568    -9452568.423 8  -7346197.14545  23368259.372    23368272.4144
  23015748.403   -10604563.610 8  -8221563.51546  23015750.472    23015760.4404
  20607174.459   -24634139.385 9 -19162918.23048  20607178.902    20607186.8884
  24588097.977    -3497959.383 7  -2714924.45145  24588102.822    24588116.6454
  22378810.669   -12040638.902 8  -9369262.29346  22378813.994    22378822.5414
  21629226.657   -17098408.664 8 -13079605.55847  21629232.425    21629240.7764
  22876736.214   -12566137.618 8  -9767212.11746  22876737.725    22876749.5984
 00  7 10  1 24 30.0000000  0  7 21 20 25 06 30 29 22
  23390128.778    -9337609.507 8  -7256618.96345  23390134.533    23390148.6614
  23001407.819   -10679884.705 8  -8280255.21746  23001416.029    23001426.3154
  20606469.039   -24637855.558 9 -19165813.93148  20606471.950    20606479.6414
  24577534.192    -3553494.851 7  -2758198.63245  24577533.653    24577548.9894
  22392652.416   -11967877.006 8  -9312564.73546  22392659.584    22392669.3344
  21640235.099   -17040577.146 8 -13034542.06347  21640236.846    21640245.5014
  22855225.627   -12679157.984 8  -9855279.73446  22855231.348    22855243.5244
 00  7 10  1 25  0.0000000  0  7 21 20 25 06 30 29 22
  23412042.136    -9222490.784 8  -7166916.29445  23412041.140    23412055.0074
  22987165.634   -10754783.683 8  -8338617.97046  22987163.355    22987173.2614
  20605813.274   -24641300.192 9 -19168498.04348  20605816.532    20605824.2194
  24567008.466    -3608762.985 7  -2801264.48745  24567017.196    24567031.0624
  22406588.160   -11894684.978 8  -9255531.99046  22406588.144    22406596.6924
  21651293.677   -16982450.359 8 -12989248.49447  21651298.181    21651307.5514
  22833758.934   -12791968.201 8  -9943183.59446  22833763.690    22833776.4894
 00  7 10  1 25 30.0000000  0  7 21 20 25 06 30 29 22
  23433972.592    -9107215.008 8  -7077091.20145  23433978.313    23433991.2114
  22972986.929   -10829258.034 8  -8396649.85946  22972990.882    22973001.1514
  20605209.339   -24644474.262 9 -19170971.32448  20605212.565    20605220.3374
  24556548.176    -3663761.291 7  -2844120.12445  24556550.921    24556565.0124
  22420593.785   -11821065.281 8  -9198166.02446  22420597.079    22420606.4604
  21662411.872   -16924028.126 8 -12943724.71447  21662415.732    21662424.7074
  22812334.354   -12904565.734 8 -10030921.70746  22812337.938    22812349.0024
 00  7 10  1 26  0.0000000  0  7 21 20 25 06 30 29 22
  23455941.248    -8991784.522 8  -6987145.52145  23455944.072    23455958.0214
  22958898.429   -10903305.216 8  -8454348.89846  22958900.739    22958910.6864
  20604655.738   -24647378.078 9 -19173234.02148  20604660.006    20604667.5664
  24546131.866    -3718487.097 7  -2886763.38745  24546137.424    24546151.4544
  22434682.791   -11747020.322 8  -9140468.69846  22434687.861    22434696.7654
  21673587.660   -16865310.663 8 -12897970.87347  21673589.096    21673597.9014
  22790944.330   -13016947.890 8 -10118492.01346  22790951.827    22790962.9804
 00  7 10  1 26 30.0000000  0  7 21 20 25 06 30 29 22
  23477929.829    -8876202.804 8  -6897082.06545  23477937.238    23477953.0034
  22944896.101   -10976922.745 8  -8511713.13846  22944891.890    22944902.0234
  20604156.652   -24650012.253 9 -19175286.60948  20604158.864    20604166.2524
  24535773.846    -3772937.767 7  -2929192.27145  24535775.995    24535788.7214
  22448856.432   -11672552.523 8  -9082441.85546  22448858.276    22448867.1694
  21684816.249   -16806298.081 8 -12851987.06547  21684818.537    21684827.3654
  22769609.338   -13129111.489 8 -10205892.05246  22769608.082    22769618.5334
 00  7 10  1 27  0.0000000  0  7 21 20 25 06 30 29 22
  23499955.471    -8760473.045 7  -6806903.32445  23499960.375    23499974.9154
  22930964.473   -11050108.218 8  -8568740.69146  22930965.565    22930975.1344
  20603704.379   -24652377.645 9 -19177129.76048  20603708.374    20603716.3044
  24525466.373    -3827110.727 7  -2971404.75745  24525466.340    24525478.1184
  22463105.588   -11597664.468 8  -9024087.52246  22463109.263    22463118.1874
  21696100.002   -16746990.484 8 -12805773.37747  21696104.798    21696113.1344
  22748305.147   -13241053.749 8 -10293119.58446  22748306.088    22748317.0064
 00  7 10  1 27 30.0000000  0  7 21 20 25 06 30 29 22
  23522006.510    -8644597.515 7  -6716610.87845  23522011.607    23522025.5154
  22917120.194   -11122859.228 8  -8625429.73746  22917120.863    22917130.6324
  20603304.857   -24654475.140 9 -19178764.15548  20603309.180    20603317.1354
  24515203.524    -3881003.417 7  -3013398.86545  24515209.901    24515224.7264
  22477437.834   -11522358.559 8  -8965407.60446  22477439.155    22477448.6274
  21707441.283   -16687388.008 8 -12759329.91047  21707446.842    21707455.3854
  22727037.697   -13352772.394 8 -10380172.90046  22727045.329    22727057.9124
 00  7 10  1 28  0.0000000  0  7 21 20 25 06 30 29 22
  23544079.195    -8528579.787 8  -6626207.59145  23544088.845    23544103.2384
  22903354.281   -11195173.349 8  -8681778.31946  22903358.936    22903368.9374
  20602957.450   -24656305.296 9 -19180190.22948  20602960.565    20602968.6484
  24505009.633    -3934613.178 7  -3055172.54345  24505009.475    24505022.1724
  22491842.853   -11446637.242 8  -8906404.02446  22491848.708    22491857.8904
  21718843.656   -16627490.679 8 -12712656.69547  21718845.280    21718853.7344
  22705828.611   -13464265.047 8 -10467050.10746  22705829.321    22705841.7884
 00  7 10  1 28 30.0000000  0  7 21 20 25 06 30 29 22
  23566193.525    -8412422.466 8  -6535695.61145  23566193.375    23566207.4334
  22889678.937   -11267048.107 8  -8737784.54446  22889682.368    22889692.5554
  20602659.488   -24657868.422 9 -19181408.23648  20602663.316    20602671.2174
  24494855.133    -3987937.312 7  -3096723.63545  24494861.139    24494874.7374
  22506334.539   -11370503.273 8  -8847078.88646  22506336.900    22506345.9304
  21730299.477   -16567298.702 8 -12665753.88347  21730299.644    21730307.7614
  22684654.156   -13575528.606 8 -10553748.78146  22684656.000    22684668.2034
 00  7 10  1 29  0.0000000  0  7 21 20 25 06 30 29 22
  23588327.059    -8296128.657 8  -6445077.26945  23588323.890    23588337.9134
  22876083.494   -11338481.110 8  -8793446.55346  22876088.789    22876098.7154
  20602414.131   -24659165.177 9 -19182418.68048  20602416.895    20602424.7054
  24484762.910    -4040973.201 7  -3138050.13045  24484769.184    24484782.6754
  22520902.814   -11293959.091 8  -8787434.11346  22520902.964    22520911.3094
  21741807.184   -16506812.261 8 -12618621.62647  21741808.999    21741818.3174
  22663525.215   -13686560.144 8 -10640266.68246  22663528.254    22663539.4654
 00  7 10  1 29 30.0000000  0  7 21 20 25 06 30 29 22
  23610468.587    -8179701.152 8  -6354354.70545  23610479.322    23610493.0624
  22862579.360   -11409470.125 8  -8848762.58046  22862579.744    22862590.5144
  20602217.034   -24660196.619 9 -19183222.38548  20602220.490    20602228.2864
  24474724.355    -4093718.201 7  -3179149.96745  24474731.248    24474745.2944
  22535544.099   -11217007.352 8  -8727471.73946  22535545.887    22535555.0214
  21753372.086   -16446031.358 8 -12571259.90147  21753374.920    21753384.6894
  22642437.052   -13797356.949 8 -10726601.67546  22642444.059    22642455.5414
 00  7 10  1 30  0.0000000  0  7 21 20 25 06 30 29 22
  23632658.022    -8063143.232 8  -6263530.50945  23632660.030    23632672.8444
  22849153.079   -11480012.578 8  -8903730.60946  22849156.777    22849166.7274
  20602071.361   -24660963.072 9 -19183819.60448  20602074.485    20602082.5924
  24464744.720    -4146170.029 7  -3220021.32445  24464748.690    24464763.3414
  22550259.960   -11139650.519 8  -8667193.69946  22550266.059    22550275.5094
  21764995.212   -16384956.283 8 -12523668.96647  21764997.602    21765007.2074
  22621402.367   -13907916.652 8 -10812751.89446  22621405.247    22621416.0414
 00  7 10  1 30 30.0000000  0  7 21 20 25 06 30 29 22
  23654858.983    -7946457.930 7  -6172607.09345  23654863.374    23654878.0854
  22835816.401   -11550106.177 8  -8958348.92446  22835817.780    22835827.6174
  20601975.848   -24661465.306 9 -19184210.94248  20601978.899    20601986.6404
  24454821.378    -4198325.873 7  -3260662.07045  24454826.706    24454838.9064
  22565057.378   -11061890.977 8  -8606601.87546  22565062.955    22565072.9604
  21776673.379   -16323587.174 8 -12475848.91947  21776675.862    21776684.5934
  22600414.904   -14018236.826 8 -10898715.48946  22600411.464    22600422.1934
 00  7 10  1 31  0.0000000  0  7 21 20 25 06 30 29 22
  23677075.319    -7829647.628 7  -6081586.27745  23677090.902    23677105.6224
  22822567.226   -11619748.474 8  -9012615.55746  22822566.100    22822575.7114
  20601929.911   -24661704.148 9 -19184397.03948  20601933.499    20601941.2854
  24444957.691    -4250183.233 7  -3301070.23445  24444956.505    24444969.6374
  22579932.527   -10983731.480 8  -8545698.42346  22579936.543    22579946.2384
  21788406.401   -16261924.205 8 -12427799.88047  21788410.138    21788418.8374
  22579461.187   -14128314.543 8 -10984490.14646  22579464.080    22579474.8754
 00  7 10  1 31 30.0000000  0  7 21 20 25 06 30 29 22
  23699338.961    -7712715.425 7  -5990470.51645  23699342.875    23699357.5704
  22809396.104   -11688937.119 8  -9066528.67246  22809398.581    22809409.7824
  20601934.005   -24661679.939 9 -19184378.16648  20601938.031    20601945.9454
  24435140.564    -4301739.555 7  -3341243.84245  24435147.591    24435160.1154
  22594883.825   -10905174.542 8  -8484485.25346  22594886.063    22594895.0644
  21800198.301   -16199967.593 8 -12379522.02847  21800200.043    21800208.6544
  22558565.447   -14238146.758 8 -11070073.51546  22558564.502    22558575.3364
 00  7 10  1 32  0.0000000  0  7 21 20 25 06 30 29 22
  23721619.713    -7595664.442 7  -5899262.15145  23721616.808    23721630.8714
  22796317.699   -11757669.894 8  -9120086.58846  22796319.465    22796330.2094
  20601990.021   -24661393.470 9 -19184154.93648  20601992.835    20602000.2674
  24425391.923    -4352992.361 7  -3381180.94745  24425391.950    24425407.3404
  22609906.603   -10826222.766 8  -8422964.42546  22609909.427    22609919.0564
  21812043.305   -16137717.477 8 -12331015.46847  21812045.208    21812054.3774
  22537708.152   -14347730.775 8 -11155463.45846  22537710.597    22537720.9184
 00  7 10  1 32 30.0000000  0  7 21 20 25 06 30 29 22
  23743907.236    -7478497.782 8  -5807963.66045  23743915.612    23743926.5384
  22783323.657   -11825944.636 8  -9173287.57346  22783326.998    22783337.3524
  20602094.591   -24660844.852 9 -19183727.42048  20602097.194    20602104.6404
  24415697.741    -4403939.105 8  -3420879.52745  24415698.923    24415712.7784
  22625009.322   -10746878.553 8  -8361137.80446  22625008.135    22625017.9964
  21823943.055   -16075174.020 8 -12282280.35247  21823946.684    21823956.1614
  22516903.240   -14457064.399 8 -11240658.29546  22516905.011    22516915.3874
 00  7 10  1 33  0.0000000  0  7 21 20 25 06 30 29 22
  23766226.509    -7361217.741 7  -5716576.70645  23766231.648    23766247.3424
  22770417.429   -11893758.870 8  -9226129.75946  22770423.493    22770431.7044
  20602247.621   -24660035.277 9 -19183096.57348  20602250.898    20602258.6744
  24406060.725    -4454577.236 8  -3460337.64245  24406063.367    24406074.7524
  22640177.906   -10667144.752 8  -8299007.59946  22640180.664    22640189.9644
  21835900.848   -16012337.377 8 -12233316.76547  21835904.554    21835913.6934
  22496146.171   -14566145.087 8 -11325656.03146  22496146.474    22496157.8614
 00  7 10  1 33 30.0000000  0  7 21 20 25 06 30 29 22
  23788566.624    -7243827.702 7  -5625104.12145  23788571.048    23788585.2164
  22757606.650   -11961110.224 8  -9278611.23646  22757606.719    22757616.1684
  20602448.871   -24658965.319 9 -19182262.82848  20602454.382    20602462.2924
  24396482.488    -4504904.410 7  -3499553.45245  24396483.995    24396497.0894
  22655425.183   -10587023.672 8  -8236575.63046  22655427.495    22655437.3684
  21847913.003   -15949208.008 8 -12184125.09047  21847917.719    21847926.9114
  22475435.477   -14674969.752 8 -11410454.25546  22475438.498    22475448.6104
 00  7 10  1 34  0.0000000  0  7 21 20 25 06 30 29 22
  23810926.324    -7126330.897 7  -5533548.40545  23810929.139    23810944.9384
  22744875.387   -12027996.420 8  -9330730.24246  22744878.261    22744887.5644
  20602705.245   -24657635.420 9 -19181226.51748  20602707.907    20602715.0974
  24386961.237    -4554917.979 7  -3538524.89945  24386967.487    24386979.8644
  22670744.266   -10506517.987 8  -8173843.97446  22670746.988    22670756.9484
  21859984.631   -15885785.986 8 -12134705.36846  21859987.257    21859995.1934
  22454780.430   -14783535.659 8 -11495050.89346  22454778.128    22454789.4624
 00  7 10  1 34 30.0000000  0  7 21 20 25 06 30 29 22
  23833304.866    -7008729.427 7  -5441911.14445  23833308.007    23833323.5844
  22732237.278   -12094415.340 8  -9382485.15446  22732239.148    22732247.9574
  20603006.882   -24656046.505 9 -19179988.38648  20603010.033    20603017.5374
  24377505.708    -4604615.330 7  -3577249.98445  24377510.424    24377522.5454
  22686139.331   -10425630.467 8  -8110814.75246  22686140.124    22686148.5084
  21872105.583   -15822071.655 8 -12085057.86346  21872111.028    21872120.2534
  22434168.228   -14891840.036 8 -11579443.69046  22434168.677    22434179.4384
 00  7 10  1 35  0.0000000  0  7 21 20 25 06 30 29 22
  23855695.124    -6891026.757 7  -5350194.99345  23855707.193    23855721.4114
  22719689.832   -12160364.474 8  -9433874.01246  22719689.974    22719699.6134
  20603358.359   -24654198.946 9 -19178548.70148  20603361.517    20603369.5444
  24368106.130    -4653994.028 7  -3615726.71745  24368113.998    24368127.0154
  22701601.675   -10344363.473 8  -8047489.84546  22701604.792    22701614.1474
  21884287.325   -15758064.922 8 -12035182.53346  21884291.277    21884299.4424
  22413598.846   -14999880.788 8 -11663631.11346  22413608.915    22413620.5744
 00  7 10  1 35 30.0000000  0  7 21 20 25 06 30 29 22
  23878120.522    -6773225.412 8  -5258401.93545  23878124.391    23878138.9234
  22707225.958   -12225841.613 8  -9484895.07946  22707229.303    22707239.1654
  20603760.271   -24652093.593 9 -19176908.14248  20603762.477    20603770.1014
  24358770.543    -4703051.578 7  -3653953.17845  24358779.095    24358791.2604
  22717139.404   -10262719.827 8  -7983871.46246  22717140.724    22717149.8814
  21896524.786   -15693766.404 8 -11985079.82946  21896526.936    21896535.4054
  22393097.470   -15107655.283 8 -11747611.05046  22393100.652    22393111.1064
 00  7 10  1 36  0.0000000  0  7 21 20 25 06 30 29 22
  23900561.467    -6655328.616 8  -5166534.54645  23900559.509    23900574.6934
  22694857.337   -12290844.679 8  -9535546.73046  22694859.881    22694869.7524
  20604208.771   -24649731.039 9 -19175067.17948  20604211.990    20604219.5094
  24349494.150    -4751785.571 7  -3691927.49845  24349503.151    24349517.1094
  22732745.363   -10180702.106 8  -7919961.58346  22732748.021    22732758.0454
  21908814.562   -15629176.181 8 -11934749.81946  21908818.731    21908826.7734
  22372638.908   -15215160.518 8 -11831381.16946  22372643.100    22372653.5534
 00  7 10  1 36 30.0000000  0  7 21 20 25 06 30 29 22
  23923018.121    -6537339.366 7  -5074595.04445  23923012.126    23923025.9224
  22682579.163   -12355371.267 8  -9585827.12246  22682580.909    22682590.6254
  20604706.396   -24647111.952 9 -19173026.32848  20604710.155    20604718.0954
  24340278.849    -4800193.490 7  -3729647.76645  24340292.337    24340305.4194
  22748425.306   -10098312.769 8  -7855762.15046  22748426.641    22748435.9114
  21921162.237   -15564294.461 8 -11884192.66646  21921165.159    21921173.1974
  22352232.858   -15322393.522 8 -11914939.19346  22352237.729    22352248.2304
 00  7 10  1 37  0.0000000  0  7 21 20 25 06 30 29 22
  23945468.033    -6419260.458 7  -4982585.63545  23945481.514    23945496.3374
  22670391.405   -12419419.222 8  -9635734.54546  22670391.982    22670401.9924
  20605254.529   -24644236.797 9 -19170785.93848  20605256.940    20605265.1804
  24331141.639    -4848272.995 8  -3767112.11845  24331142.948    24331155.2994
  22764169.132   -10015554.501 8  -7791275.22946  22764173.993    22764183.6704
  21933563.493   -15499121.736 8 -11833408.76647  21933567.397    21933576.4004
  22331885.752   -15429352.018 8 -11998283.30246  22331883.407    22331893.5334
 00  7 10  1 37 30.0000000  0  7 21 20 25 06 30 29 22
  23967966.006    -6301094.636 7  -4890508.60045  23967968.675    23967982.9964
  22658293.215   -12482986.207 8  -9685267.19946  22658295.477    22658306.2874
  20605850.910   -24641106.223 9 -19168346.51048  20605852.599    20605860.6614
  24322050.147    -4896021.643 8  -3804318.66945  24322056.908    24322069.2914
  22779987.139    -9932429.868 8  -7726502.81846  22779992.605    22780001.8014
  21946022.812   -15433658.043 8 -11782398.14247  21946025.220    21946032.9464
  22311577.349   -15536033.642 8 -12081411.68546  22311581.942    22311592.4574
 00  7 10  1 38  0.0000000  0  7 21 20 25 06 30 29 22
  23990463.753    -6182845.392 7  -4798366.53045  23990471.165    23990485.7354
  22646290.365   -12546070.182 8  -9734423.45946  22646292.088    22646301.7814
  20606492.249   -24637721.038 9 -19165708.68448  20606496.832    20606504.8444
  24313030.378    -4943436.929 7  -3841265.47545  24313033.813    24313044.2104
  22795878.510    -9848941.476 8  -7661446.97546  22795879.899    22795889.1384
  21958536.218   -15367903.912 8 -11731161.18647  21958537.402    21958545.8674
  22291331.396   -15642435.805 8 -12164322.29346  22291334.290    22291345.1584
 00  7 10  1 38 30.0000000  0  7 21 20 25 06 30 29 22
  24012988.464    -6064515.060 7  -4706161.27045  24012988.393    24013001.7604
  22634374.766   -12608669.057 8  -9783201.75746  22634379.418    22634389.0134
  20607184.543   -24634082.028 9 -19162873.08248  20607189.296    20607197.5024
  24304071.583    -4990516.560 7  -3877950.73645  24304074.540    24304085.9814
  22811832.448    -9765092.148 8  -7596109.87546  22811836.442    22811845.0704
  21971101.810   -15301859.435 8 -11679697.98746  21971105.089    21971113.3294
  22271135.751   -15748555.485 8 -12247012.79846  22271140.560    22271150.8214
 00  7 10  1 39  0.0000000  0  7 21 20 25 06 30 29 22
  24035505.893    -5946106.934 7  -4613895.37645  24035519.417    24035534.7714
  22622557.238   -12670780.637 8  -9831600.32646  22622559.955    22622569.6174
  20607926.747   -24630189.288 9 -19159839.77548  20607930.418    20607938.2204
  24295177.576    -5037258.054 8  -3914372.52445  24295181.108    24295193.3994
  22827860.821    -9680884.323 8  -7530493.42546  22827860.053    22827869.1864
  21983723.628   -15235525.030 8 -11628008.86846  21983727.111    21983736.4564
  22251000.759   -15854389.855 8 -12329481.01046  22251001.233    22251011.3634
 00  7 10  1 39 30.0000000  0  7 21 20 25 06 30 29 22
  24058051.345    -5827623.634 7  -4521570.84645  24058066.104    24058082.1134
  22610831.279   -12732402.846 8  -9879617.55246  22610833.320    22610843.1004
  20608715.184   -24626043.834 9 -19156609.54248  20608719.063    20608727.2164
  24286339.547    -5083658.826 7  -3950528.80745  24286349.550    24286363.1854
  22843950.909    -9596320.657 8  -7464599.72946  22843952.257    22843961.4494
  21996403.672   -15168900.879 8 -11576093.99746  21996405.728    21996415.1744
  22230913.961   -15959936.615 8 -12411725.09046  22230916.126    22230926.3664
 00  7 10  1 40  0.0000000  0  7 21 20 25 06 30 29 22
  24080645.600    -5709068.048 7  -4429190.09245  24080628.191    24080641.9444
  22599198.468   -12793533.293 8  -9927251.62646  22599201.184    22599211.2514
  20609552.352   -24621646.198 9 -19153182.80748  20609556.142    20609564.0534
  24277578.347    -5129716.621 8  -3986417.83345  24277586.176    24277597.7784
  22860107.653    -9511403.897 8  -7398430.85646  22860111.680    22860120.8894
  22009137.180   -15101987.477 8 -11523953.71846  22009139.024    22009148.2494
  22210886.136   -16065193.434 8 -12493743.25446  22210886.647    22210896.7594
 00  7 10  1 40 30.0000000  0  7 21 20 25 06 30 29 22
  24103197.253    -5590443.310 7  -4336755.45145  24103201.770    24103218.2334
  22587657.787   -12854170.188 8  -9974501.08946  22587661.645    22587672.1524
  20610437.232   -24616997.273 9 -19149560.25648  20610441.037    20610448.4614
  24268882.665    -5175429.043 8  -4022037.75045  24268886.714    24268899.2934
  22876330.304    -9426136.893 8  -7331989.08746  22876337.101    22876346.4914
  22021920.873   -15034785.061 8 -11471588.24246  22021926.558    22021936.1824
  22190910.287   -16170157.600 8 -12575533.38846  22190912.151    22190922.4154
 00  7 10  1 41  0.0000000  0  7 21 20 25 06 30 29 22
  24125774.807    -5471752.173 7  -4244269.13045  24125787.982    24125803.3534
  22576213.036   -12914311.095 8 -10021364.07646  22576216.005    22576226.6864
  20611368.925   -24612097.041 9 -19145741.88748  20611373.232    20611380.7634
  24260248.435    -5220793.725 8  -4057386.69545  24260254.038    24260265.5984
  22892627.690    -9340521.832 8  -7265276.11746  22892629.157    22892637.7184
  22034768.300   -14967294.061 8 -11418997.88446  22034770.428    22034779.2734
  22170993.404   -16274826.131 8 -12657093.17246  22170994.873    22171004.5374
 00  7 10  1 41 30.0000000  0  7 21 20 25 06 30 29 22
  24148381.809    -5352997.199 7  -4151732.99645  24148386.250    24148401.4334
  22564865.836   -12973954.127 8 -10067839.09446  22564866.838    22564877.8334
  20612350.579   -24606946.356 9 -19141728.35948  20612353.335    20612361.2314
  24251688.128    -5265808.246 8  -4092462.76645  24251687.258    24251699.3944
  22908985.104    -9254561.681 8  -7198294.21946  22908987.306    22908996.0844
  22047664.896   -14899514.841 8 -11366182.95446  22047667.970    22047677.8634
  22151133.480   -16379196.373 8 -12738420.51146  22151133.635    22151142.9824
 00  7 10  1 42  0.0000000  0  7 21 20 25 06 30 29 22
  24170993.822    -5234181.651 7  -4059149.63045  24170996.341    24171012.0344
  22553606.688   -13033097.180 8 -10113924.56046  22553612.778    22553622.7064
  20613376.931   -24601545.807 9 -19137520.11448  20613381.033    20613388.9434
  24243190.061    -5310470.299 7  -4127264.23245  24243188.261    24243200.2474
  22925406.759    -9168258.959 8  -7131045.38846  22925409.647    22925419.4524
  22060617.841   -14831447.491 8 -11313143.51246  22060620.488    22060630.7334
  22131324.610   -16483266.019 8 -12819513.63046  22131329.689    22131339.3934
 00  7 10  1 42 30.0000000  0  7 21 20 25 06 30 29 22
  24193623.527    -5115308.232 7  -3966521.19145  24193616.830    24193633.0694
  22542451.249   -13091738.018 8 -10159618.68446  22542454.132    22542463.4634
  20614452.637   -24595896.216 9 -19133117.82348  20614455.819    20614463.7304
  24234756.558    -5354777.692 8  -4161789.32045  24234757.380    24234769.9594
  22941889.949    -9081616.232 8  -7063531.62846  22941896.947    22941906.1724
  22073624.481   -14763092.686 8 -11259880.06946  22073627.917    22073638.1854
  22111584.404   -16587032.751 8 -12900370.70746  22111583.202    22111593.3714
 00  7 10  1 43  0.0000000  0  7 21 20 25 06 30 29 22
  24216249.266    -4996380.047 7  -3873850.10145  24216248.549    24216264.2514
  22531393.791   -13149874.785 8 -10204920.00446  22531391.047    22531401.2624
  20615576.896   -24589998.117 9 -19128521.88548  20615578.420    20615585.9394
  24226388.984    -5398728.322 8  -4196036.41945  24226392.942    24226405.4594
  22958445.090    -8994636.329 8  -6995755.11746  22958448.628    22958457.8584
  22086686.885   -14694450.787 8 -11206392.93246  22086690.896    22086699.6254
  22091892.155   -16690493.786 8 -12980989.59246  22091895.500    22091905.0234
 00  7 10  1 43 30.0000000  0  7 21 20 25 06 30 29 22
  24238884.254    -4877400.346 7  -3781138.83145  24238890.150    24238904.9494
  22520419.642   -13207505.406 8 -10249826.95346  22520423.662    22520433.8824
  20616744.352   -24583852.590 9 -19123733.15048  20616747.781    20616755.5114
  24218092.585    -5442319.817 7  -4230003.65245  24218096.833    24218110.4264
  22975063.213    -8907321.964 8  -6927718.00946  22975064.630    22975074.0314
  22099805.814   -14625522.090 8 -11152682.30746  22099808.037    22099816.5354
  22072261.956   -16793646.253 8 -13061368.04946  22072266.034    22072276.0184
 00  7 10  1 44  0.0000000  0  6 20 25 06 30 29 22
  22509549.569   -13264627.967 8 -10294338.00946  22509554.310    22509563.8804
  20617960.054   -24577459.802 9 -19118751.76048  20617963.928    20617971.9434
  24209873.617    -5485549.578 8  -4263689.04245  24209872.629    24209884.0814
  22991736.062    -8819675.393 8  -6859422.01046  22991742.693    22991752.0034
  22112974.103   -14556307.007 8 -11098748.52446  22112979.407    22112987.5344
  22052697.020   -16896487.602 8 -13141504.06746  22052694.923    22052705.7654
 00  7 10  1 44 30.0000000  0  6 20 25 06 30 29 22
  22498779.555   -13321240.423 8 -10338451.55546  22498780.779    22498790.1424
  20619223.583   -24570820.196 9 -19113578.03648  20619227.467    20619235.2874
  24201716.422    -5528415.283 8  -4297090.77145  24201715.745    24201726.1724
  23008479.126    -8731699.659 8  -6790869.54246  23008483.565    23008492.8844
  22126205.833   -14486805.906 8 -11044591.88946  22126205.667    22126214.4034
  22033178.267   -16999015.496 8 -13221395.83846  22033184.796    22033194.8994
 00  7 10  1 45  0.0000000  0  6 20 25 06 30 29 22
  22488104.648   -13377340.765 8 -10382166.05646  22488105.656    22488115.7974
  20620535.345   -24563934.683 9 -19108212.69048  20620538.035    20620545.4904
  24193622.356    -5570914.802 7  -4330207.13345  24193626.175    24193638.7444
  23025284.104    -8643397.342 8  -6722062.58346  23025287.787    23025297.2284
  22139483.380   -14417019.217 8 -10990212.71146  22139484.746    22139493.4134
  22013728.641   -17101227.678 8 -13301041.60946  22013734.196    22013744.3154
 00  7 10  1 45 30.0000000  0  6 20 25 06 30 29 22
  22477529.586   -13432926.883 8 -10425479.86446  22477528.653    22477537.5574
  20621890.664   -24556803.959 9 -19102656.27748  20621894.794    20621902.5864
  24185602.090    -5613045.894 7  -4363036.43545  24185608.057    24185620.3514
  23042151.091    -8554771.115 8  -6653003.25546  23042152.645    23042162.5674
  22152811.639   -14346947.371 8 -10935611.34046  22152818.342    22152827.7134
  21994346.874   -17203121.329 8 -13380439.16846  21994345.366    21994354.7254
 00  7 10  1 46  0.0000000  0  6 20 25 06 30 29 22
  22467049.488   -13487996.966 8 -10468391.56646  22467048.773    22467057.8984
  20623294.081   -24549428.444 9 -19096909.11948  20623298.066    20623306.1284
  24177658.855    -5654806.316 7  -4395576.88945  24177662.341    24177673.3724
  23059073.396    -8465823.631 8  -6583693.56046  23059078.627    23059088.9074
  22166203.743   -14276590.818 8 -10880788.14546  22166207.512    22166216.5934
  21975012.668   -17304693.602 8 -13459586.32747  21975016.393    21975026.3234
 00  7 10  1 46 30.0000000  0  6 20 25 06 30 29 22
  22456662.551   -13542549.190 8 -10510899.74246  22456667.224    22456676.9654
  20624745.911   -24541808.733 9 -19090971.68548  20624748.255    20624756.3904
  24169774.843    -5696193.703 8  -4427826.66845  24169786.452    24169798.9364
  23076058.692    -8376557.771 8  -6514135.78446  23076065.466    23076075.0024
  22179644.729   -14205949.927 8 -10825743.36246  22179649.945    22179659.0234
  21955745.035   -17405941.979 8 -13538481.07246  21955748.808    21955758.9634
 00  7 10  1 47  0.0000000  0  6 20 25 06 30 29 22
  22446383.079   -13596581.530 8 -10553002.82346  22446384.600    22446394.2714
  20626241.102   -24533945.543 9 -19084844.52448  20626244.825    20626252.5554
  24161977.139    -5737205.850 8  -4459784.04745  24161982.486    24161993.7654
  23093117.350    -8286976.019 8  -6444331.90446  23093111.700    23093122.3504
  22193144.680   -14135025.149 8 -10770477.38646  22193146.704    22193155.4804
  21936540.877   -17506864.290 8 -13617121.77446  21936543.481    21936554.3574
 00  7 10  1 47 30.0000000  0  6 20 25 06 30 29 22
  22436202.191   -13650092.092 8 -10594699.32746  22436202.664    22436212.0784
  20627783.812   -24525839.155 9 -19078527.85448  20627787.449    20627795.2194
  24154247.283    -5777840.590 8  -4491447.35545  24154249.660    24154261.2664
  23110218.321    -8197080.986 8  -6374283.86246  23110219.550    23110228.4504
  22206692.541   -14063817.066 8 -10714990.63646  22206696.454    22206706.5264
  21917402.076   -17607458.196 8 -13695506.54646  21917401.567    21917411.7784
 00  7 10  1 48  0.0000000  0  6 20 25 06 30 29 22
  22426119.074   -13703079.010 8 -10635987.79146  22426119.723    22426128.7524
  20629373.911   -24517490.527 9 -19072022.42948  20629376.157    20629383.8334
  24146589.577    -5818095.782 8  -4522814.92845  24146589.404    24146601.4404
  23127376.125    -8106875.298 8  -6303993.74346  23127384.594    23127394.2494
  22220298.006   -13992326.176 8 -10659283.56846  22220301.005    22220310.0494
  21898318.184   -17707720.830 8 -13773633.21647  21898322.742    21898332.7664
 00  7 10  1 48 30.0000000  0  6 20 25 06 30 29 22
  22416134.102   -13755540.395 8 -10676866.72546  22416135.515    22416145.1814
  20631006.969   -24508900.172 9 -19065328.64148  20631010.991    20631018.4154
  24138991.959    -5857969.206 7  -4553885.02045  24139001.261    24139012.7234
  23144599.462    -8016361.510 8  -6233463.60446  23144608.924    23144617.8114
  22233957.963   -13920552.451 8 -10603356.06846  22233959.506    22233969.2554
  21879305.995   -17807649.482 8 -13851499.63747  21879306.835    21879315.9624
 00  7 10  1 49  0.0000000  0  6 20 25 06 30 29 22
  22406252.131   -13807474.354 8 -10717334.68046  22406253.097    22406263.4424
  20632688.417   -24500068.746 9 -19058447.01948  20632691.739    20632698.9974
  24131484.959    -5897458.677 8  -4584655.88445  24131486.619    24131498.8564
  23161893.689    -7925542.633 8  -6162695.65446  23161892.132    23161900.6844
  22247669.478   -13848497.043 8 -10547209.04046  22247671.141    22247680.1604
  21860350.067   -17907241.733 8 -13929103.95347  21860354.932    21860365.0714
 00  7 10  1 49 30.0000000  0  6 20 25 06 30 29 22
  22396470.312   -13858879.311 8 -10757390.42146  22396472.826    22396480.5774
  20634414.947   -24490996.909 9 -19051378.06148  20634418.067    20634425.2734
  24124042.116    -5936562.156 8  -4615126.00245  24124046.218    24124057.9244
  23179233.595    -7834421.428 8  -6091692.15446  23179231.048    23179240.8684
  22261432.562   -13776160.086 8 -10490842.67046  22261436.912    22261445.1954
  21841465.734   -18006495.435 8 -14006444.43747  21841467.367    21841478.0634
 00  7 10  1 50  0.0000000  0  6 20 25 06 30 29 22
  22386789.431   -13909753.300 8 -10797032.44046  22386790.646    22386799.7184
  20636187.870   -24481684.715 9 -19044121.80448  20636190.212    20636197.4084
  24116673.714    -5975277.365 8  -4645293.57445  24116678.766    24116690.9394
  23196620.704    -7743000.244 8  -6020454.93046  23196627.283    23196637.2454
  22275253.754   -13703542.213 8 -10434257.39046  22275255.644    22275264.7034
  21822643.271   -18105408.201 8 -14083519.23447  21822645.048    21822655.3874
 00  7 10  1 50 30.0000000  0  6 20 25 06 30 29 22
  22377210.628   -13960094.345 8 -10836259.15746  22377211.474    22377219.5904
  20638002.641   -24472133.295 9 -19036679.13748  20638007.519    20638015.0284
  24109377.513    -6013602.200 8  -4675156.95845  24109384.791    24109397.6994
  23214080.675    -7651281.823 8  -5948986.07346  23214081.176    23214090.7814
  22289126.055   -13630643.838 8 -10377453.54346  22289128.074    22289136.8214
  21803888.830   -18203977.187 9 -14160326.17047  21803888.359    21803897.9854
 00  7 10  1 51  0.0000000  0  6 20 25 06 30 29 22
  22367730.068   -14009900.982 8 -10875069.44946  22367732.431    22367741.6514
  20639868.919   -24462342.989 9 -19029050.32948  20639870.848    20639878.1194
  24102167.161    -6051534.575 8  -4704714.52845  24102166.791    24102178.9934
  23231583.025    -7559268.883 8  -5877287.72046  23231590.040    23231600.4584
  22303049.520   -13557465.512 8 -10320431.59746  22303052.502    22303061.8994
  21785194.945   -18302199.767 8 -14236863.20147  21785197.178    21785206.6534
 00  7 10  1 51 30.0000000  0  6 20 25 06 30 29 22
  22358352.116   -14059171.194 8 -10913461.75546  22358356.797    22358366.2114
  20641775.045   -24452314.641 9 -19021236.03848  20641779.092    20641786.6104
  24095025.010    -6089072.440 8  -4733964.69045  24095022.843    24095034.4864
  23249152.735    -7466964.298 8  -5805362.12846  23249155.572    23249166.2304
  22317028.069   -13484007.695 8 -10263191.84246  22317031.393    22317040.6394
  21766570.978   -18400073.523 8 -14313128.40547  21766571.683    21766581.8054
 00  7 10  1 52  0.0000000  0  6 20 25 06 30 29 22
  22349083.044   -14107903.448 8 -10951434.88346  22349083.940    22349091.3494
  20643729.173   -24442048.444 9 -19013236.41648  20643732.677    20643740.0504
  24087957.896    -6126213.685 7  -4762905.80345  24087955.320    24087967.6954
  23266776.892    -7374370.423 8  -5733211.10146  23266776.476    23266786.1024
  22331056.462   -13410270.982 8 -10205734.78246  22331063.301    22331072.3474
  21748010.224   -18497596.389 8 -14389120.17447  21748013.984    21748023.8894
 00  7 10  1 52 30.0000000  0  7 16 20 25 06 30 29 22
  24623432.058    -2017671.82917  -1553423.28955  24623433.350    24623445.3724
  22339910.329   -14156096.039 8 -10988987.47346  22339912.696    22339921.5064
  20645728.612   -24431545.122 9 -19005052.01948  20645731.456    20645738.5924
  24080958.305    -6162956.042 8  -4791536.08345  24080964.709    24080974.4224
  23284452.345    -7281489.995 8  -5660836.78346  23284450.324    23284460.3474
  22345144.204   -13336256.129 8 -10148060.99246  22345147.478    22345157.8274
  21729522.370   -18594766.021 8 -14464836.68747  21729522.220    21729532.3024
 00  7 10  1 53  0.0000000  0  7 16 20 25 06 30 29 22
  24606010.379    -2109185.326 7  -1624732.39645  24606017.209    24606030.2464
  22330841.143   -14203747.189 8 -11026118.17146  22330844.959    22330853.9614
  20647771.394   -24420805.238 9 -18996683.27548  20647774.934    20647782.3094
  24074047.313    -6199297.695 8  -4819854.10845  24074048.403    24074059.6724
  23302175.409    -7188325.939 8  -5588241.49346  23302178.680    23302189.4594
  22359284.134   -13261963.351 8 -10090170.62346  22359285.303    22359295.3224
  21711093.927   -18691579.486 8 -14540275.67247  21711099.657    21711109.9164
 00  7 10  1 53 30.0000000  0  7 16 20 25 06 30 29 22
  24588654.438    -2200399.558 7  -1695808.29845  24588660.249    24588673.4314
  22321876.040   -14250855.266 8 -11062825.67946  22321880.330    22321889.0184
  20649859.920   -24409829.576 9 -18988130.81048  20649863.598    20649871.0964
  24067207.834    -6235236.457 8  -4847858.21445  24067208.874    24067220.6474
  23319959.125    -7094880.501 8  -5515426.92446  23319962.508    23319971.5264
  22373470.516   -13187393.332 8 -10032064.24346  22373475.120    22373485.3254
  21692744.755   -18788034.315 8 -14615435.20747  21692744.979    21692754.4034
 00  7 10  1 54  0.0000000  0  7 16 20 25 06 30 29 22
  24571364.613    -2291311.571 7  -1766648.72245  24571361.201    24571372.8784
  22313019.935   -14297418.381 8 -11099108.56046  22313020.470    22313028.4394
  20651993.786   -24398618.576 9 -18979394.96848  20651996.645    20652004.3904
  24060442.526    -6270770.310 7  -4875546.81345  24060446.771    24060457.6234
  23337790.670    -7001156.464 8  -5442395.24046  23337796.691    23337807.1414
  22387716.991   -13112546.644 8  -9973742.26546  22387718.546    22387728.3924
  21674455.626   -18884128.225 9 -14690313.51047  21674459.196    21674468.8254
 00  7 10  1 54 30.0000000  0  7 16 20 25 06 30 29 22
  24554117.054    -2381919.126 7  -1837251.98145  24554119.417    24554130.9604
  22304261.995   -14343435.271 8 -11134965.81346  22304263.040    22304271.5494
  20654170.666   -24387172.571 9 -18970476.01148  20654174.996    20654182.3594
  24053755.531    -6305897.346 8  -4902918.40545  24053762.254    24053773.8674
  23355684.888    -6907156.586 8  -5369148.61846  23355684.265    23355694.2014
  22402008.946   -13037423.868 8  -9915205.17746  22402014.657    22402024.5664
  21656242.979   -18979859.200 9 -14764909.01647  21656242.044    21656251.2394
 00  7 10  1 55  0.0000000  0  7 16 20 25 06 30 29 22
  24536924.223    -2472219.567 7  -1907615.86645  24536933.873    24536946.6854
  22295606.481   -14388904.226 8 -11170396.11346  22295609.700    22295619.5424
  20656394.524   -24375492.710 9 -18961374.82648  20656397.808    20656405.1824
  24047150.757    -6340615.459 8  -4929971.34545  24047156.225    24047165.6054
  23373625.558    -6812883.577 8  -5295689.18746  23373624.537    23373634.0324
  22416360.273   -12962025.643 8  -9856453.41746  22416362.326    22416371.6124
  21638093.828   -19075224.744 9 -14839219.74647  21638094.030    21638104.3564
 00  7 10  1 55 30.0000000  0  7 16 20 25 06 30 29 22
  24519813.117    -2562209.952 7  -1977738.15445  24519809.257    24519822.5764
  22287061.360   -14433823.477 8 -11205398.07046  22287062.879    22287072.1444
  20658662.720   -24363579.165 9 -18952091.53848  20658664.889    20658672.1784
  24040623.248    -6374922.622 8  -4956704.06045  24040628.305    24040637.4944
  23391610.830    -6718340.133 8  -5222019.02646  23391615.798    23391624.4914
  22430759.945   -12886352.526 8  -9797487.48646  22430762.192    22430772.0784
  21620013.486   -19170222.102 8 -14913243.58147  21620016.610    21620026.4364
 00  7 10  1 56  0.0000000  0  7 16 20 25 06 30 29 22
  24502736.047    -2651887.680 7  -2047616.82545  24502745.509    24502758.0724
  22278617.473   -14478191.622 8 -11239970.57147  22278620.011    22278628.7664
  20660973.482   -24351432.530 9 -18942626.61548  20660975.893    20660983.6324
  24034175.940    -6408816.933 8  -4983115.12045  24034177.955    24034188.0874
  23409647.784    -6623528.673 8  -5148139.99246  23409656.928    23409666.3764
  22445207.314   -12810405.088 8  -9738307.79546  22445213.725    22445223.8964
  21602002.911   -19264848.729 8 -14986978.53947  21602010.134    21602019.7604
 00  7 10  1 56 30.0000000  0  7 16 20 25 06 30 29 22
  24485742.247    -2741250.308 7  -2117249.95945  24485740.363    24485752.9994
  22270279.646   -14522007.036 8 -11274112.40046  22270281.229    22270290.1404
  20663327.636   -24339053.199 9 -18932980.38948  20663332.089    20663339.1464
  24027806.875    -6442296.482 8  -5009202.97345  24027806.790    24027816.8334
  23427748.876    -6528452.186 8  -5074054.45746  23427749.864    23427759.9614
  22459712.212   -12734183.963 8  -9678914.83946  22459718.264    22459728.6944
  21584071.647   -19359102.584 8 -15060423.01547  21584073.764    21584083.8754
 00  7 10  1 57  0.0000000  0  7 16 20 25 06 30 29 22
  24468792.959    -2830294.980 7  -2186635.37145  24468794.601    24468806.0874
  22262046.496   -14565268.102 8 -11307822.25946  22262048.793    22262058.5154
  20665728.745   -24326441.810 9 -18923153.33048  20665731.757    20665739.0544
  24021506.711    -6475359.252 8  -5034966.05945  24021514.882    24021525.5784
  23445886.337    -6433113.105 8  -4999764.33846  23445892.449    23445902.0234
  22474273.292   -12657689.703 8  -9619309.05046  22474275.577    22474284.9814
  21566210.211   -19452981.530 8 -15133575.36847  21566209.544    21566218.6364
 00  7 10  1 57 30.0000000  0  7 16 20 25 06 30 29 22
  24451916.575    -2919018.842 7  -2255770.68045  24451910.294    24451924.4554
  22253922.318   -14607973.375 8 -11341099.04246  22253923.118    22253931.7034
  20668174.126   -24313598.956 9 -18913145.92048  20668175.809    20668183.1394
  24015295.911    -6508003.355 8  -5060402.87445  24015302.842    24015313.3324
  23464083.830    -6337514.298 8  -4925271.81746  23464084.077    23464094.0374
  22488881.937   -12580923.182 8  -9559491.09946  22488883.974    22488894.3134
  21548415.728   -19546483.224 9 -15206433.76347  21548417.061    21548426.0564
 00  7 10  1 58  0.0000000  0  7 16 20 25 06 30 29 22
  24435089.184    -3007419.400 7  -2324654.13245  24435089.571    24435102.6824
  22245897.862   -14650121.459 8 -11373941.65647  22245902.561    22245911.1264
  20670660.744   -24300525.435 9 -18902958.75848  20670663.376    20670671.1314
  24009167.735    -6540226.908 8  -5085512.02545  24009170.740    24009180.4994
  23482315.556    -6241658.391 8  -4850578.94545  23482324.616    23482334.1494
  22503538.078   -12503884.753 8  -9499461.27646  22503544.120    22503554.0034
  21530694.759   -19639604.723 9 -15278995.90047  21530696.319    21530705.9184
 00  7 10  1 58 30.0000000  0  7 16 20 25 06 30 29 22
  24418322.298    -3095494.442 7  -2393283.96745  24418327.869    24418341.0644
  22237987.395   -14691710.780 8 -11406348.87047  22237988.371    22237997.2394
  20673192.131   -24287221.422 9 -18892591.99548  20673195.391    20673202.7174
  24003115.873    -6572028.048 8  -5110292.02445  24003119.399    24003129.0644
  23500614.660    -6145547.837 8  -4775687.61745  23500614.596    23500623.9864
  22518258.352   -12426575.184 8  -9439220.17846  22518255.543    22518265.6474
  21513048.956   -19732343.915 9 -15351260.13647  21513048.261    21513057.9684
 00  7 10  1 59  0.0000000  0  7 16 20 25 06 30 29 22
  24401626.364    -3183240.925 7  -2461657.79245  24401630.019    24401642.9534
  22230176.830   -14732739.705 8 -11438319.40047  22230180.082    22230189.4094
  20675767.358   -24273687.782 9 -18882046.30248  20675770.887    20675778.0964
  23997143.823    -6603404.963 8  -5134741.46145  23997148.656    23997159.9794
  23518949.502    -6049185.344 8  -4700600.00845  23518952.109    23518961.3554
  22533012.875   -12348995.162 8  -9378768.34946  22533018.335    22533028.9844
  21495472.299   -19824698.554 9 -15423224.71747  21495473.815    21495483.2694
 00  7 10  1 59 30.0000000  0  7 16 20 25 06 30 29 22
  24384996.982    -3270655.851 7  -2529773.11245  24384996.558    24385009.6274
  22222477.373   -14773206.992 8 -11469852.29447  22222479.613    22222489.1704
  20678387.076   -24259925.114 9 -18871322.14048  20678389.762    20678397.1574
  23991252.288    -6634355.622 8  -5158858.73745  23991258.650    23991269.2344
  23537333.409    -5952573.530 8  -4625318.12346  23537336.019    23537346.4524
  22547827.929   -12271145.261 8  -9318106.20946  22547832.464    22547843.1514
  21477969.715   -19916666.729 9 -15494888.16347  21477972.782    21477982.7284
 00  7 10  2  0  0.0000000  0  8 16 20 25 06 01 30 29 22
  24368432.381    -3357737.352 7  -2597628.72645  24368424.495    24368436.3934
  22214888.171   -14813111.218 8 -11500946.46547  22214887.216    22214895.3774
  20681048.711   -24245933.674 9 -18860419.71048  20681052.357    20681059.8124
  23985447.186    -6664878.302 8  -5182642.53045  23985449.925    23985460.0944
  24773436.520    -1590361.67317  -1212851.02055  24773439.335    24773452.1414
  23555764.289    -5855715.310 8  -4549844.22446  23555767.928    23555777.8234
  22562695.200   -12193026.345 8  -9257234.47546  22562698.471    22562708.3144
  21460545.442   -20008245.830 9 -15566248.41947  21460546.180    21460555.5324
 00  7 10  2  0 30.0000000  0  8 16 20 25 06 01 30 29 22
  24351904.572    -3444482.567 7  -2665222.30545  24351917.523    24351930.2464
  22207397.211   -14852450.916 8 -11531600.71947  22207400.100    22207409.8034
  20683754.342   -24231714.192 9 -18849339.59348  20683758.395    20683765.6214
  23979720.269    -6694971.036 8  -5206091.29345  23979723.738    23979732.9324
  24755405.243    -1685098.796 7  -1286672.00045  24755412.891    24755425.2034
  23574244.101    -5758613.137 8  -4474180.20045  23574245.420    23574256.3594
  22577610.294   -12114639.070 8  -9196153.61846  22577615.377    22577625.3144
  21443192.859   -20099433.313 9 -15637303.52747  21443193.213    21443202.8554
 00  7 10  2  1  0.0000000  0  8 16 20 25 06 01 30 29 22
  24335485.244    -3530888.504 7  -2732551.51245  24335475.104    24335487.4204
  22200018.544   -14891224.794 8 -11561814.09147  22200021.607    22200030.4784
  20686503.696   -24217266.912 9 -18838081.95348  20686507.161    20686514.7014
  23974081.945    -6724632.116 8  -5229203.69845  23974078.827    23974089.6154
  24737381.245    -1779859.380 7  -1360511.22245  24737381.205    24737391.9114
  23592769.343    -5661269.488 8  -4398328.06346  23592769.243    23592779.9704
  22592579.426   -12035983.889 8  -9134864.00146  22592583.861    22592593.0024
  21425913.046   -20190226.733 9 -15708051.58147  21425916.408    21425925.2704
 00  7 10  2  1 30.0000000  0  8 16 20 25 06 01 30 29 22
  24319088.564    -3616952.981 8  -2799614.61845  24319097.249    24319111.0084
  22192750.686   -14929431.714 8 -11591585.68247  22192750.739    22192760.6704
  20689296.727   -24202592.573 9 -18826647.39148  20689299.548    20689307.1704
  23968519.703    -6753859.613 8  -5251978.27045  23968517.882    23968528.0694
  24719336.495    -1874642.341 7  -1434367.89445  24719342.112    24719355.6704
  23611334.698    -5563687.219 8  -4322289.99046  23611338.738    23611348.9264
  22607598.202   -11957061.856 8  -9073366.44546  22607601.642    22607612.0424
  21408714.776   -20280624.330 9 -15778491.19447  21408713.956    21408722.8114
 00  7 10  2  2  0.0000000  0  8 16 20 25 06 01 30 29 22
  24302788.236    -3702673.298 7  -2866409.57945  24302785.651    24302797.9054
  22185586.808   -14967070.148 8 -11620914.28347  22185588.676    22185597.5784
  20692131.800   -24187691.531 9 -18815036.18548  20692135.211    20692142.4124
  23963029.453    -6782651.929 8  -5274413.71345  23963037.976    23963048.8564
  24701296.213    -1969446.363 7  -1508240.99845  24701301.878    24701314.0904
  23629946.045    -5465868.752 8  -4246067.84545  23629953.167    23629962.4774
  22622668.529   -11877873.527 8  -9011661.37646  22622670.970    22622681.2284
  21391585.004   -20370624.003 9 -15848620.74347  21391587.615    21391595.8874
 00  7 10  2  2 30.0000000  0  8 16 20 25 06 01 30 29 22
  24286535.579    -3788046.817 7  -2932934.35345  24286541.255    24286550.6414
  22178532.864   -15004138.771 8 -11649798.88647  22178534.875    22178543.0084
  20695010.728   -24172564.405 9 -18803248.79948  20695013.732    20695020.9754
  23957641.517    -6811007.175 8  -5296508.60645  23957642.288    23957651.0354
  24683253.875    -2064270.415 7  -1582129.66445  24683256.782    24683271.2924
  23648610.329    -5367817.252 8  -4169664.11245  23648611.307    23648621.6874
  22637783.370   -11798419.481 8  -8949749.25246  22637790.430    22637800.9894
  21374535.803   -20460223.236 9 -15918438.23447  21374536.924    21374546.7974
 00  7 10  2  3  0.0000000  0  8 16 20 25 06 01 30 29 22
  24270359.196    -3873070.816 8  -2999186.83545  24270360.756    24270373.4854
  22171586.175   -15040636.361 8 -11678238.53947  22171589.573    22171598.1484
  20697931.962   -24157211.641 9 -18791285.58848  20697935.208    20697942.5694
  23952327.867    -6838923.704 8  -5318261.62045  23952329.984    23952340.6624
  24665210.094    -2159113.223 8  -1656032.99445  24665210.892    24665222.3154
  23667306.091    -5269535.030 8  -4093080.58445  23667313.776    23667324.8084
  22652959.372   -11718700.549 8  -8887630.72946  22652960.426    22652970.7854
  21357560.074   -20549419.483 9 -15987941.73547  21357563.732    21357573.2034
 00  7 10  2  3 30.0000000  0  8 16 20 25 06 01 30 29 22
  24254250.192    -3957742.551 7  -3065164.69145  24254248.166    24254260.2274
  22164748.127   -15076561.442 8 -11706232.06847  22164752.052    22164762.0534
  20700897.120   -24141633.723 9 -18779146.93548  20700899.159    20700906.9994
  23947096.809    -6866399.724 8  -5339671.40445  23947101.117    23947111.3774
  24647160.272    -2253973.473 7  -1729949.89445  24647159.328    24647171.8544
  23686044.998    -5171024.604 8  -4016319.25545  23686060.224    23686070.5054
  22668179.816   -11638717.468 8  -8825306.37546  22668180.490    22668191.9574
  21340666.728   -20638210.497 9 -16057129.46147  21340667.333    21340676.8744
 00  7 10  2  4  0.0000000  0  8 16 20 25 06 01 30 29 22
  24238202.003    -4042059.754 8  -3130866.34645  24238204.976    24238215.1734
  22158024.101   -15111912.931 8 -11733778.64647  22158025.110    22158035.4414
  20703902.925   -24125831.424 9 -18766833.42248  20703906.307    20703913.9744
  23941948.989    -6893433.504 8  -5360736.58645  23941956.715    23941965.8934
  24629107.619    -2348850.004 7  -1803879.47945  24629104.204    24629117.5224
  23704845.164    -5072288.768 8  -3939382.29545  23704848.695    23704858.9684
  22683445.080   -11558470.950 8  -8762776.74146  22683451.215    22683461.7904
  21323846.512   -20726594.488 9 -16126000.01347  21323848.215    21323857.6344
 00  7 10  2  4 30.0000000  0  8 16 20 25 06 01 30 29 22
  24222223.279    -4126019.705 8  -3196289.65545  24222225.844    24222238.0574
  22151408.509   -15146689.796 8 -11760877.46347  22151408.263    22151417.3134
  20706953.521   -24109805.306 9 -18754345.51448  20706955.893    20706963.5754
  23936895.153    -6920023.366 8  -5381455.87645  23936898.052    23936906.3734
  24611046.928    -2443741.544 8  -1877820.76445  24611047.496    24611058.9904
  23723670.249    -4973329.981 8  -3862271.59045  23723679.805    23723690.0684
  22698770.335   -11477961.791 8  -8700042.47046  22698772.165    22698782.3964
  21307106.606   -20814569.438 9 -16194551.85047  21307107.085    21307116.0514
 00  7 10  2  5  0.0000000  0  8 16 20 25 06 01 30 29 22
  24206317.382    -4209619.922 8  -3261432.62645  24206317.066    24206330.0654
  22144896.218   -15180890.707 8 -11787527.48547  22144899.804    22144908.9364
  20710046.041   -24093555.821 9 -18741683.54448  20710047.903    20710055.6704
  23931919.391    -6946167.565 8  -5401827.89545  23931921.930    23931932.1394
  24592981.115    -2538647.078 7  -1951772.91445  24592986.266    24592998.6994
  23742558.737    -4874150.924 8  -3784989.25545  23742552.518    23742563.3854
  22714142.166   -11397190.726 8  -8637104.09846  22714142.803    22714152.4384
  21290437.305   -20902132.719 8 -16262782.90147  21290443.995    21290453.8894
 00  7 10  2  5 30.0000000  0  8 16 20 25 06 01 30 29 22
  24190471.583    -4292857.616 8  -3326293.10645  24190478.459    24190489.5394
  22138498.717   -15214514.327 8 -11813727.68247  22138501.405    22138510.5304
  20713178.472   -24077083.400 9 -18728847.85948  20713182.396    20713190.5374
  23927031.199    -6971864.499 8  -5421851.40545  23927032.483    23927042.4964
  24574921.325    -2633565.222 7  -2025734.91145  24574924.453    24574936.4814
  23761455.405    -4774754.169 8  -3707537.28545  23761467.068    23761478.1614
  22729559.633   -11316158.598 8  -8573962.30446  22729562.120    22729572.1134
  21273858.318   -20989281.957 9 -16330691.31847  21273860.304    21273870.0974
 00  7 10  2  6  0.0000000  0  8 16 20 25 06 01 30 29 22
  24174711.073    -4375730.271 8  -3390869.16645  24174708.725    24174719.0824
  22132210.608   -15247559.788 8 -11839477.36647  22132212.482    22132221.4394
  20716356.155   -24060388.517 9 -18715838.83548  20716359.462    20716367.2564
  23922223.068    -6997112.613 8  -5441525.18545  23922227.451    23922237.6464
  24556860.089    -2728494.671 8  -2099705.79445  24556859.627    24556871.3734
  23780414.230    -4675142.358 8  -3629917.72545  23780422.960    23780434.2894
  22745024.080   -11234866.179 8  -8510617.67446  22745031.523    22745041.8654
  21257355.334   -21076015.177 9 -16398275.56847  21257355.966    21257364.8114
 00  7 10  2  6 30.0000000  0  8 16 20 25 06 01 30 29 22
  24159002.011    -4458235.517 8  -3455158.81745  24159006.310    24159019.1214
  22126030.970   -15280025.697 8 -11864775.46147  22126034.513    22126043.4684
  20719576.030   -24043471.653 9 -18702656.83548  20719578.686    20719586.4384
  23917500.605    -7021910.259 8  -5460847.94645  23917508.344    23917519.9934
  24538791.215    -2823434.314 8  -2173684.65645  24538793.959    24538803.8234
  23799412.153    -4575318.191 8  -3552132.71045  23799418.990    23799429.9844
  22760547.113   -11153314.139 8  -8447070.76546  22760550.983    22760559.8794
  21240928.864   -21162330.462 9 -16465534.15847  21240930.165    21240939.2504
 00  7 10  2  7  0.0000000  0  8 16 20 25 06 01 30 29 22
  24143376.444    -4540370.401 8  -3519160.00145  24143376.606    24143390.2254
  22119966.726   -15311911.262 8 -11889621.30847  22119967.050    22119976.0414
  20722836.150   -24026333.280 9 -18689302.23348  20722840.049    20722847.9354
  23912867.149    -7046255.755 8  -5479818.40145  23912874.623    23912886.0834
  24520721.785    -2918382.726 8  -2247670.22545  24520726.825    24520736.2414
  23818456.420    -4475284.105 8  -3474184.14145  23818455.456    23818465.8914
  22776121.942   -11071503.379 8  -8383322.21746  22776119.148    22776128.8444
  21224582.113   -21248225.764 9 -16532465.48647  21224584.563    21224594.0524
 00  7 10  2  7 30.0000000  0  8 16 20 25 06 01 30 29 22
  24127809.044    -4622133.138 7  -3582871.14145  24127817.885    24127829.9924
  22114007.106   -15343215.202 8 -11914013.95547  22114010.333    22114019.1734
  20726138.755   -24008973.885 9 -18675775.40948  20726143.693    20726151.2544
  23908328.296    -7070147.525 8  -5498435.27245  23908329.156    23908339.1504
  24502651.763    -3013338.770 8  -2321661.77445  24502655.276    24502667.5174
  23837530.809    -4375042.987 8  -3396074.23045  23837531.115    23837541.3624
  22791730.867   -10989434.857 8  -8319372.86346  22791735.415    22791746.2004
  21208315.849   -21333698.595 9 -16599067.60047  21208319.497    21208329.0644
 00  7 10  2  8  0.0000000  0  8 16 20 25 06 01 30 29 22
  24112336.881    -4703520.553 7  -3646289.83945  24112330.583    24112342.5724
  22108159.909   -15373936.507 8 -11937952.59447  22108163.948    22108173.4694
  20729484.451   -23991394.220 9 -18662076.94848  20729488.885    20729496.3974
  23903864.756    -7093584.080 8  -5516697.47045  23903869.624    23903879.2064
  24484578.717    -3108300.904 8  -2395658.18845  24484584.540    24484595.3594
  23856640.490    -4274597.115 8  -3317804.77945  23856644.189    23856654.9964
  22807401.082   -10907109.126 8  -8255223.06746  22807402.324    22807413.4514
  21192132.591   -21418746.570 9 -16665338.66047  21192135.716    21192144.7234
 00  7 10  2  8 30.0000000  0  8 16 20 25 06 01 30 29 22
  24096918.113    -4784530.101 7  -3709414.05245  24096913.608    24096926.4654
  22102427.262   -15404074.205 8 -11961436.46647  22102429.478    22102438.2114
  20732872.917   -23973594.264 9 -18648206.83448  20732876.381    20732883.6784
  23899490.964    -7116563.857 8  -5534603.72845  23899495.814    23899507.1694
  24466506.029    -3203268.087 8  -2469658.45945  24466512.826    24466524.1864
  23875796.581    -4173948.934 8  -3239377.67645  23875797.005    23875807.7234
  22823113.933   -10824527.172 8  -8190873.61646  22823117.515    22823127.8644
  21176031.404   -21503367.801 9 -16731277.19747  21176032.742    21176041.4704
 00  7 10  2  9  0.0000000  0  8 16 20 25 06 01 30 29 22
  24081563.779    -4865159.425 7  -3772241.98745  24081571.054    24081584.7934
  22096802.940   -15433627.167 8 -11984464.71547  22096806.025    22096814.5674
  20736302.326   -23955574.652 9 -18634165.55148  20736305.415    20736312.9254
  23895202.933    -7139085.183 8  -5552152.74445  23895210.749    23895219.4624
  24448438.424    -3298239.012 7  -2543661.75245  24448438.596    24448451.5614
  23894993.456    -4073101.065 8  -3160794.96445  23894988.462    23894998.7084
  22838878.123   -10741689.718 8  -8126325.07446  22838880.747    22838891.8004
  21160009.659   -21587560.646 9 -16796881.93947  21160011.871    21160019.7194
 00  7 10  2  9 30.0000000  0  8 16 20 25 06 01 30 29 22
  24066300.029    -4945406.023 8  -3834771.72845  24066302.361    24066313.4664
  22091289.950   -15462594.486 8 -12007036.58647  22091293.004    22091301.8334
  20739773.880   -23937336.109 9 -18619953.67748  20739776.180    20739783.7104
  23891008.521    -7161146.686 8  -5569343.43345  23891010.792    23891021.4754
  24430371.371    -3393211.632 8  -2617666.20045  24430367.709    24430378.9714
  23914210.573    -3972056.493 8  -3082058.98745  23914216.353    23914227.4254
  22854689.836   -10658597.689 8  -8061578.17346  22854692.913    22854702.8574
  21144072.509   -21671323.041 9 -16862151.25547  21144072.034    21144080.6934
 00  7 10  2 10  0.0000000  0  8 16 20 25 06 01 30 29 22
  24051104.480    -5025267.505 8  -3897001.39545  24051104.718    24051115.1494
  22085890.497   -15490975.229 8 -12029151.40847  22085892.077    22085901.3904
  20743284.946   -23918878.693 9 -18605571.24748  20743288.634    20743295.6024
  23886898.504    -7182746.828 8  -5586174.62445  23886901.096    23886910.4304
  24412291.628    -3488185.586 7  -2691671.72645  24412292.948    24412305.4494
  23933482.256    -3870817.575 8  -3003171.60145  23933481.572    23933492.3464
  22870548.661   -10575252.012 8  -7996633.59346  22870553.594    22870562.9934
  21128214.495   -21754652.380 9 -16927083.12347  21128214.960    21128223.8954
 00  7 10  2 10 30.0000000  0  8 16 20 25 06 01 30 29 22
  24035980.192    -5104741.134 7  -3958928.81145  24035980.342    24035993.5494
  22080600.132   -15518768.339 8 -12050808.34147  22080603.270    22080611.7904
  20746839.875   -23900203.440 9 -18591019.07148  20746842.373    20746849.2974
  23882874.389    -7203884.042 8  -5602645.10045  23882878.209    23882887.7174
  24394218.651    -3583159.315 7  -2765677.12245  24394221.057    24394234.5794
  23952784.046    -3769386.978 8  -2924134.84845  23952783.708    23952793.8534
  22886458.863   -10491653.391 8  -7931491.93246  22886461.142    22886471.8694
  21112438.042   -21837546.558 9 -16991675.89147  21112440.206    21112449.4824
 00  7 10  2 11  0.0000000  0  8 16 20 25 06 01 30 29 22
  24020928.786    -5183824.203 8  -4020551.89945  24020931.803    24020943.2194
  22075422.766   -15545973.092 8 -12072006.80447  22075426.358    22075435.5004
  20750433.785   -23881310.688 9 -18576297.42748  20750437.612    20750444.5334
  23878935.073    -7224556.891 8  -5618753.76145  23878945.237    23878954.1284
  24376143.630    -3678131.234 8  -2839681.10945  24376148.769    24376160.6964
  23972115.852    -3667767.188 8  -2844950.65745  23972120.744    23972131.5554
  22902412.145   -10407802.809 8  -7866153.95946  22902417.910    22902427.6034
  21096747.016   -21920003.738 9 -17055928.15047  21096748.872    21096758.0794
 00  7 10  2 11 30.0000000  0  8 16 20 25 06 01 30 29 22
  24005953.760    -5262514.692 8  -4081869.11945  24005956.930    24005968.7384
  22070359.470   -15572588.489 8 -12092746.02547  22070361.509    22070370.8534
  20754072.267   -23862200.558 9 -18561406.38948  20754073.750    20754081.1334
  23875098.387    -7244763.978 8  -5634499.46445  23875099.520    23875108.6094
  24358076.264    -3773100.280 7  -2913682.87445  24358076.003    24358087.9924
  23991493.132    -3565960.726 8  -2765621.00145  23991493.604    23991504.1814
  22918419.846   -10323701.137 8  -7800620.29846  22918422.186    22918431.2624
  21081137.946   -22002022.187 9 -17119838.54347  21081141.482    21081150.2754
 00  7 10  2 12  0.0000000  0  8 16 20 25 06 01 30 29 22
  23991054.773    -5340810.008 8  -4142878.39745  23991058.922    23991070.6774
  22065407.530   -15598613.799 8 -12113025.42947  22065408.713    22065418.2524
  20757747.618   -23842873.722 9 -18546346.48948  20757751.222    20757758.8834
  23871342.944    -7264503.833 8  -5649881.09245  23871343.166    23871353.3314
  24340005.824    -3868064.847 7  -2987681.14345  24340004.851    24340017.0194
  24010895.930    -3463970.205 7  -2686147.95945  24010901.651    24010913.6334
  22934464.553   -10239349.171 8  -7734891.63346  22934473.435    22934484.3814
  21065616.970   -22083599.810 9 -17183405.43047  21065617.817    21065626.4414
 00  7 10  2 12 30.0000000  0  8 16 20 25 06 01 30 29 22
  23976231.477    -5418707.478 8  -4203577.69545  23976235.290    23976246.3174
  22060568.695   -15624048.004 8 -12132844.24847  22060568.771    22060578.5044
  20761467.327   -23823330.654 9 -18531118.09148  20761469.999    20761477.6684
  23867675.709    -7283775.370 8  -5664897.81645  23867676.124    23867685.3804
  24321931.164    -3963023.459 7  -3061674.78845  24321936.477    24321946.4374
  24030344.855    -3361798.135 7  -2606533.42445  24030344.746    24030355.5334
  22950571.146   -10154747.766 8  -7668968.60246  22950573.010    22950583.4104
  21050177.727   -22164734.217 9 -17246626.94847  21050178.228    21050187.1474
 00  7 10  2 13  0.0000000  0  8 16 20 25 06 01 30 29 22
  23961485.779    -5496204.897 8  -4263965.28745  23961487.850    23961499.2354
  22055840.929   -15648890.467 8 -12152201.94047  22055841.728    22055851.2014
  20765226.286   -23803572.030 9 -18515721.74248  20765229.922    20765237.6144
  23864097.046    -7302576.902 8  -5679548.29245  23864098.435    23864108.7774
  24303861.375    -4057974.706 7  -3135662.71845  24303865.706    24303878.4194
  24049822.303    -3259447.257 8  -2526779.55345  24049821.138    24049832.7334
  22966714.195   -10069898.000 8  -7602852.01246  22966719.172    22966729.3844
  21034819.868   -22245423.375 9 -17309501.51847  21034823.050    21034832.2484
 00  7 10  2 13 30.0000000  0  8 16 20 25 06 01 30 29 22
  23946812.912    -5573299.717 8  -4324039.10145  23946816.018    23946827.9574
  22051223.886   -15673140.397 8 -12171097.93547  22051227.246    22051236.1874
  20769026.705   -23783597.956 9 -18500157.51048  20769030.646    20769038.6214
  23860608.732    -7320907.156 8  -5693831.51545  23860609.810    23860620.9954
  24285800.540    -4152917.229 8  -3209643.79145  24285799.506    24285810.1724
  24069328.556    -3156919.742 8  -2446888.03045  24069332.994    24069343.5054
  22982907.546    -9984800.695 8  -7536542.55946  22982912.603    22982923.0244
  21019552.067   -22325665.584 9 -17372027.81947  21019553.695    21019562.5434
 00  7 10  2 14  0.0000000  0  8 16 20 25 06 01 30 29 22
  23932222.050    -5649989.357 8  -4383797.22345  23932222.185    23932234.7004
  22046720.766   -15696796.861 8 -12189531.48647  22046724.514    22046734.3494
  20772868.959   -23763408.942 9 -18484425.78048  20772872.563    20772880.3524
  23857208.585    -7338764.971 8  -5707746.61145  23857211.642    23857222.1024
  24267738.371    -4247849.926 8  -3283617.24745  24267734.979    24267745.6034
  24088883.905    -3054218.333 8  -2366861.03345  24088875.756    24088886.6784
  22999150.542    -9899456.639 8  -7470040.83146  22999153.494    22999164.3134
  21004368.410   -22405459.234 9 -17434204.58047  21004369.031    21004378.7634
 00  7 10  2 14 30.0000000  0  8 16 20 25 06 01 30 29 22
  23917706.383    -5726271.480 7  -4443237.85545  23917706.980    23917718.7664
  22042337.330   -15719859.224 8 -12207502.10247  22042336.731    22042345.7944
  20776750.733   -23743005.077 9 -18468526.63548  20776755.453    20776763.0464
  23853901.341    -7356148.867 8  -5721292.44745  23853903.465    23853914.5344
  24249663.540    -4342771.162 7  -3357581.74645  24249670.282    24249681.9774
  24108446.711    -2951345.450 8  -2286700.41545  24108452.557    24108461.1044
  23015435.733    -9813867.004 8  -7403347.74946  23015440.387    23015451.7554
  20989268.321   -22484802.089 9 -17496030.07647  20989270.573    20989280.2554
 00  7 10  2 15  0.0000000  0  8 16 20 25 06 01 30 29 22
  23903263.586    -5802143.868 7  -4502359.14745  23903267.859    23903282.3484
  22038059.569   -15742326.844 8 -12225009.28047  22038061.226    22038068.9034
  20780675.870   -23722387.064 9 -18452460.61948  20780678.882    20780686.5504
  23850683.652    -7373057.339 8  -5734467.79745  23850684.725    23850696.5554
  24231607.460    -4437679.492 8  -3431536.17445  24231611.611    24231621.4254
  24128059.667    -2848303.518 7  -2206408.07145  24128059.911    24128070.7644
  23031768.942    -9728032.617 8  -7336463.91046  23031774.579    23031784.5724
  20974258.511   -22563691.931 9 -17557502.58247  20974258.767    20974267.8244
 00  7 10  2 15 30.0000000  0  8 16 20 25 06 01 30 29 22
  23888909.012    -5877603.577 8  -4561158.90145  23888909.791    23888920.4924
  22033899.150   -15764198.991 8 -12242052.45947  22033898.919    22033907.3674
  20784638.854   -23701555.714 9 -18436228.36748  20784643.166    20784650.5044
  23847557.394    -7389489.353 8  -5747271.87545  23847558.867    23847569.8264
  24213555.524    -4532573.552 8  -3505479.57345  24213553.750    24213563.4794
  24147700.035    -2745095.342 8  -2125986.17545  24147700.005    24147710.2694
  23048153.421    -9641954.384 8  -7269390.08646  23048154.851    23048165.5494
  20959329.302   -22642126.769 9 -17618620.54247  20959332.857    20959342.0604
 00  7 10  2 16  0.0000000  0  8 16 20 25 06 01 30 29 22
  23874629.322    -5952649.024 8  -4619635.88545  23874628.371    23874640.2424
  22029848.422   -15785474.965 8 -12258631.08847  22029850.306    22029858.4374
  20788644.701   -23680511.332 9 -18419830.11048  20788647.428    20788654.9404
  23844517.981    -7405443.515 8  -5759703.61745  23844522.003    23844533.5774
  24195492.617    -4627451.772 8  -3579410.55445  24195498.587    24195510.9504
  24167360.417    -2641723.567 8  -2045436.79145  24167371.650    24167381.2894
  23064579.461    -9555633.395 8  -7202127.12146  23064581.118    23064592.3294
  20944493.543   -22720105.027 9 -17679382.72547  20944494.148    20944502.8534
 00  7 10  2 16 30.0000000  0  8 16 20 25 06 01 30 29 22
  23860424.024    -6027276.895 8  -4677787.48945  23860428.118    23860439.3154
  22025911.893   -15806154.117 8 -12274744.67747  22025914.769    22025923.9154
  20792689.775   -23659253.938 9 -18403265.87848  20792692.437    20792700.0294
  23841574.798    -7420918.520 8  -5771761.98445  23841577.622    23841588.6914
  24177447.832    -4722312.805 8  -3653328.12945  24177448.306    24177459.4374
  24187066.268    -2538190.533 8  -1964761.76845  24187072.939    24187083.4924
  23081052.190    -9469070.448 8  -7134675.61146  23081053.711    23081064.6154
  20929738.550   -22797625.210 9 -17739787.96347  20929741.931    20929751.4074
 00  7 10  2 17  0.0000000  0  8 16 20 25 06 01 30 29 22
  23846303.864    -6101485.348 8  -4735612.24145  23846306.623    23846318.0744
  22022092.044   -15826235.962 8 -12290392.83047  22022093.919    22022102.6534
  20796773.603   -23637784.141 9 -18386536.14548  20796778.271    20796785.3314
  23838725.008    -7435913.191 8  -5783446.05445  23838723.418    23838735.6944
  24159396.673    -4817155.270 8  -3727231.20445  24159399.291    24159410.8374
  24206797.322    -2434498.257 7  -1883962.64145  24206804.072    24206814.8154
  23097567.341    -9382266.537 8  -7067036.32046  23097571.011    23097583.2304
  20915077.554   -22874685.036 9 -17799834.47947  20915078.172    20915087.2644
 00  7 10  2 17 30.0000000  0  8 16 20 25 06 01 30 29 22
  23832264.938    -6175271.981 8  -4793108.29745  23832264.853    23832276.6434
  22018384.166   -15845719.821 8 -12305575.00847  22018385.934    22018394.8764
  20800900.980   -23616102.549 9 -18369641.37348  20800904.265    20800911.2824
  23835954.429    -7450426.371 8  -5794754.95145  23835961.863    23835973.2414
  24141352.496    -4911977.745 8  -3801118.76345  24141355.339    24141367.6334
  24226560.518    -2330649.730 8  -1803041.76645  24226566.956    24226577.4864
  23114125.959    -9295222.876 8  -6999210.25546  23114135.082    23114147.9754
  20900501.956   -22951282.392 9 -17859520.63547  20900502.298    20900510.5154
 00  7 10  2 18  0.0000000  0  8 16 20 25 06 01 30 29 22
  23818301.028    -6248634.163 8  -4850273.57645  23818304.546    23818316.5784
  22014789.251   -15864605.190 9 -12320290.84647  22014792.702    22014801.3754
  20805066.460   -23594209.618 9 -18352581.92648  20805070.207    20805077.3574
  23833287.310    -7464456.970 8  -5805687.82245  23833292.681    23833302.0184
  24123308.582    -5006778.684 8  -3874989.56145  24123314.064    24123325.9544
  24246351.919    -2226647.197 8  -1722000.87145  24246357.982    24246368.0034
  23130744.688    -9207940.090 8  -6931197.81546  23130745.653    23130756.2064
  20886011.847   -23027415.497 9 -17918845.04047  20886014.226    20886023.1964
 00  7 10  2 18 30.0000000  0  8 16 20 25 06 01 30 29 22
  23804420.551    -6321569.793 8  -4907106.47545  23804424.869    23804436.7504
  22011312.379   -15882891.638 9 -12334539.99647  22011312.996    22011321.2454
  20809273.229   -23572105.506 9 -18335357.92748  20809276.770    20809283.4954
  23830719.716    -7478003.645 8  -5816243.58345  23830715.128    23830725.4454
  24105279.460    -5101556.622 8  -3948842.38545  24105278.302    24105290.4544
  24266177.610    -2122493.393 8  -1640842.10645  24266177.722    24266188.6324
  23147400.278    -9120419.373 8  -6862999.96945  23147400.114    23147410.1704
  20871613.698   -23103082.826 9 -17977806.49747  20871615.091    20871624.3134
 00  7 10  2 19  0.0000000  0  8 16 20 25 06 01 30 29 22
  23790624.332    -6394076.083 8  -4963604.84045  23790628.275    23790639.3804
  22007943.771   -15900578.477 8 -12348321.91847  22007946.852    22007955.6994
  20813519.956   -23549790.654 9 -18317969.71848  20813522.863    20813529.9644
  23828227.820    -7491065.231 8  -5826421.35445  23828228.962    23828239.2494
  24087241.192    -5196310.004 8  -4022676.10045  24087247.841    24087258.9454
  24286017.728    -2018190.447 7  -1559567.12145  24286025.920    24286036.5254
  23164090.234    -9032661.766 8  -6794617.53946  23164099.840    23164111.5894
  20857305.860   -23178282.778 9 -18036403.77047  20857305.451    20857314.1144
 00  7 10  2 19 30.0000000  0  8 16 20 25 06 01 30 29 22
  23776915.349    -6466151.183 8  -5019767.20445  23776912.579    23776923.3654
  22004694.692   -15917665.158 8 -12361636.19847  22004695.382    22004704.1404
  20817806.446   -23527265.291 9 -18300417.46948  20817809.051    20817816.6894
  23825833.323    -7503640.554 8  -5836220.21845  23825835.873    23825846.7674
  24069221.095    -5291037.353 8  -4096489.54845  24069222.070    24069232.7924
  24305885.910    -1913741.102 7  -1478178.07945  24305901.846    24305912.5754
  23180839.697    -8944668.161 8  -6726051.18245  23180844.241    23180856.0214
  20843081.786   -23253013.190 9 -18094635.17047  20843084.648    20843093.0854
 00  7 10  2 20  0.0000000  0  8 16 20 25 06 01 30 29 22
  23763276.272    -6537792.454 8  -5075591.55445  23763279.524    23763292.2104
  22001555.993   -15934151.444 8 -12374482.63647  22001557.538    22001566.5144
  20822133.021   -23504529.912 9 -18282701.57448  20822135.289    20822143.1634
  23823530.891    -7515728.496 8  -5845639.33045  23823535.795    23823546.3674
  24051194.235    -5385737.315 8  -4170281.64945  24051199.415    24051211.2594
  24325802.410    -1809147.798 7  -1396676.88645  24325804.852    24325815.6204
  23197630.477    -8856439.606 8  -6657301.79145  23197633.854    23197645.6474
  20828953.153   -23327272.058 9 -18152499.13647  20828953.540    20828962.0364
 00  7 10  2 20 30.0000000  0  8 16 20 25 06 01 30 29 22
  23749715.328    -6608997.895 8  -5131076.19045  23749728.921    23749743.2574
  21998533.684   -15950037.032 8 -12386860.99847  21998535.222    21998543.3854
  20826498.966   -23481585.278 9 -18264822.61948  20826501.793    20826509.2574
  23821327.036    -7527328.027 8  -5854677.84646  23821329.091    23821339.2754
  24033180.929    -5480408.211 8  -4244051.07045  24033185.549    24033196.0614
  24345722.642    -1704413.028 7  -1315065.44745  24345736.238    24345745.9914
  23214464.461    -8767977.230 8  -6588370.18945  23214467.422    23214479.6344
  20814909.201   -23401057.685 9 -18209994.34847  20814912.295    20814921.4034
 00  7 10  2 21  0.0000000  0  8 16 20 25 06 01 30 29 22
  23736259.299    -6679764.979 8  -5186219.27445  23736263.162    23736274.5674
  21995622.897   -15965321.104 8 -12398770.65847  21995626.422    21995635.6424
  20830903.828   -23458431.999 9 -18246781.08248  20830907.483    20830915.0914
  23819213.289    -7538438.113 8  -5863334.99246  23819214.701    23819226.1514
  24015174.993    -5575048.423 8  -4317796.58645  24015175.678    24015187.2624
  24365684.944    -1599539.103 7  -1233345.61345  24365693.544    24365703.5794
  23231342.278    -8679281.977 8  -6519257.10645  23231346.387    23231357.1724
  20800960.279   -23474368.760 9 -18267119.78847  20800961.888    20800970.6924
 00  7 10  2 21 30.0000000  0  8 16 20 25 06 01 30 29 22
  23722876.740    -6750091.303 8  -5241018.93145  23722880.481    23722891.0124
  21992830.933   -15980003.432 8 -12410211.41947  21992832.386    21992840.7014
  20835351.016   -23435069.694 9 -18228576.67948  20835353.360    20835360.7054
  23817190.355    -7549057.734 8  -5871609.96946  23817193.737    23817204.6494
  23997171.601    -5669656.666 8  -4391517.16645  23997172.147    23997182.9204
  24385671.897    -1494528.395 7  -1151519.13445  24385675.208    24385685.5964
  23248262.534    -8590354.876 8  -6449963.37745  23248267.335    23248279.7114
  20787099.495   -23547203.617 9 -18323874.14847  20787101.792    20787110.2024
 00  7 10  2 22  0.0000000  0  8 16 20 25 06 01 30 29 22
  23709578.160    -6819975.070 8  -5295473.72445  23709581.235    23709592.2024
  21990149.793   -15994083.629 8 -12421182.98647  21990152.490    21990161.7664
  20839835.876   -23411499.014 9 -18210209.90748  20839838.702    20839846.0944
  23815261.239    -7559185.876 8  -5879501.95245  23815265.150    23815276.3834
  23979172.639    -5764231.394 8  -4465211.69045  23979175.955    23979184.6434
  24405674.867    -1389383.364 7  -1069587.98445  24405685.131    24405694.3564
  23265232.310    -8501197.066 8  -6380489.87845  23265234.907    23265245.5814
  20773331.105   -23619560.185 9 -18380255.84147  20773332.468    20773340.8984
 00  7 10  2 22 30.0000000  0  8 16 20 25 06 01 30 29 22
  23696366.009    -6889413.592 8  -5349581.56046  23696368.354    23696380.4694
  21987587.536   -16007561.497 8 -12431685.19747  21987588.532    21987596.6494
  20844358.932   -23387720.385 9 -18191681.09448  20844363.681    20844371.1304
  23813429.976    -7568821.667 8  -5887010.28745  23813431.704    23813442.5964
  23961179.772    -5858770.930 8  -4538878.77645  23961185.824    23961197.1094
  24425709.253    -1284106.452 7   -987554.00345  24425717.188    24425727.8094
  23282239.733    -8411809.519 8  -6310837.35545  23282244.360    23282256.0984
  20759654.777   -23691436.543 9 -18436263.33347  20759654.799    20759663.3164
 00  7 10  2 23  0.0000000  0  8 16 20 25 06 01 30 29 22
  23683231.696    -6958404.557 8  -5403340.63745  23683239.015    23683250.6834
  21985137.835   -16020436.814 8 -12441717.89047  21985138.941    21985146.5974
  20848926.132   -23363734.029 9 -18172990.41348  20848928.421    20848935.3634
  23811687.974    -7577963.902 8  -5894134.04245  23811692.491    23811702.0124
  23943191.601    -5953273.589 8  -4612517.03245  23943201.653    23943213.0814
  24445769.957    -1178700.296 7   -905419.36845  24445775.873    24445785.4224
  23299296.362    -8322193.390 8  -6241006.72245  23299298.926    23299308.4344
  20746068.030   -23762831.104 9 -18491895.40547  20746068.836    20746077.4824
 00  7 10  2 23 30.0000000  0  8 16 20 25 06 01 30 29 22
  23670198.861    -7026946.002 8  -5456749.44845  23670196.255    23670207.5574
  21982800.405   -16032708.974 8 -12451280.58447  21982802.606    21982811.8164
  20853529.690   -23339540.632 9 -18154138.40048  20853532.328    20853539.0844
  23810044.124    -7586611.538 8  -5900872.41346  23810048.221    23810057.5474
  23925229.655    -6047737.781 8  -4686125.35145  23925226.449    23925236.2354
  24465853.987    -1073167.167 7   -823185.82145  24465858.446    24465867.7954
  23316391.007    -8232349.786 8  -6170998.81045  23316394.993    23316405.8314
  20732570.152   -23833742.630 9 -18547151.08147  20732574.923    20732583.3464
 00  7 10  2 24  0.0000000  0  8 16 20 25 06 01 30 29 22
  23657239.951    -7095035.614 8  -5509806.17445  23657239.653    23657250.5614
  21980578.976   -16044378.033 8 -12460373.33147  21980582.293    21980591.7204
  20858171.832   -23315140.510 9 -18135125.31348  20858175.368    20858182.2474
  23808490.985    -7594763.863 8  -5907224.81546  23808496.312    23808506.2124
  23907253.951    -6142161.990 8  -4759702.58945  23907257.687    23907266.7664
  24485957.122     -967509.440 7   -740855.16445  24485965.407    24485973.6074
  23333534.936    -8142279.506 8  -6100814.28245  23333535.057    23333546.0004
  20719170.920   -23904169.532 9 -18602029.14147  20719173.103    20719181.5664
 00  7 10  2 24 30.0000000  0  8 16 20 25 06 01 30 29 22
  23644365.487    -7162671.272 8  -5562509.16645  23644368.570    23644380.0644
  21978475.464   -16055443.613 8 -12468995.83747  21978476.617    21978485.8474
  20862855.239   -23290533.709 9 -18115951.18148  20862858.108    20862864.6854
  23807040.762    -7602419.928 8  -5913190.50745  23807038.924    23807049.0004
  23889293.673    -6236544.493 8  -4833247.30845  23889297.228    23889309.0304
  24506085.438     -861729.686 7   -658429.45445  24506093.838    24506103.3714
  23350718.276    -8051983.999 8  -6030454.28545  23350716.071    23350728.5104
  20705859.700   -23974109.571 9 -18656527.82447  20705863.973    20705872.5724
 00  7 10  2 25  0.0000000  0  8 16 20 25 06 01 30 29 22
  23631581.408    -7229850.702 8  -5614856.65845  23631584.457    23631595.3624
  21976482.761   -16065905.752 8 -12477148.11747  21976485.297    21976494.3764
  20867577.595   -23265720.703 9 -18096616.35948  20867579.697    20867586.8574
  23805669.595    -7609578.513 8  -5918768.58245  23805676.975    23805686.9624
  23871347.155    -6330883.997 8  -4906758.45745  23871345.645    23871355.9864
  24526238.373     -755830.056 7   -575910.29445  24526245.758    24526255.1194
  23367926.271    -7961464.332 8  -5959919.60545  23367941.745    23367954.1214
  20692645.246   -24043561.233 9 -18710645.95647  20692647.690    20692656.2704
 00  7 10  2 25 30.0000000  0  8 16 20 25 06 01 30 29 22
  23618881.588    -7296571.404 8  -5666846.72745  23618887.293    23618899.6304
  21974608.146   -16075764.205 8 -12484830.00047  21974609.665    21974617.7244
  20872337.199   -23240701.915 9 -18077121.19748  20872340.449    20872347.6704
  23804407.592    -7616239.007 8  -5923958.52445  23804409.470    23804418.7314
  23853393.533    -6425178.780 8  -4980234.79145  23853400.732    23853411.5064
  24546412.287     -649813.008 7   -493299.64445  24546419.432    24546429.4964
  23385211.982    -7870721.503 8  -5889211.03445  23385211.644    23385222.3834
  20679524.573   -24112523.036 9 -18764382.38447  20679525.065    20679532.8964
 00  7 10  2 26  0.0000000  0  8 16 20 25 06 01 30 29 22
  23606276.885    -7362831.647 8  -5718477.96445  23606277.742    23606290.8154
  21972847.199   -16085018.655 8 -12492041.20847  21972848.768    21972857.2304
  20877136.272   -23215478.016 9 -18057466.21448  20877140.330    20877147.2994
  23803233.977    -7622400.449 8  -5928759.60845  23803236.751    23803245.6114
  23835468.362    -6519427.230 8  -5053675.05445  23835465.856    23835475.7104
  24566619.211     -543680.831 7   -410599.27145  24566617.070    24566625.5664
  23402524.207    -7779756.606 8  -5818329.42245  23402521.508    23402532.0064
  20666492.837   -24180993.718 9 -18817736.11747  20666495.216    20666503.3684
 00  7 10  2 26 30.0000000  0  7 16 20 25 06 01 29 22
  23593754.784    -7428629.173 8  -5769748.63745  23593758.201    23593769.1454
  21971200.005   -16093669.037 8 -12498781.72147  21971202.970    21971211.5414
  20881975.672   -23190049.252 9 -18037651.59848  20881979.086    20881986.6264
  23802155.547    -7628062.241 8  -5933171.32445  23802158.364    23802167.7584
  23817535.330    -6613627.561 8  -5127077.81946  23817540.982    23817551.8454
  23419870.431    -7688570.885 8  -5747275.73045  23419873.726    23419884.4504
  20653557.602   -24248971.650 9 -18870705.89947  20653559.435    20653567.7914
 00  7 10  2 27  0.0000000  0  7 16 20 25 06 01 29 22
  23581324.897    -7493961.527 8  -5820656.85445  23581326.261    23581336.9774
  21969669.632   -16101715.328 9 -12505051.51447  21969671.768    21969680.1114
  20886853.645   -23164415.625 9 -18017677.35448  20886856.936    20886864.6124
  23801172.051    -7633223.446 8  -5937193.00345  23801176.125    23801186.4414
  23799627.200    -6707778.170 8  -5200441.82345  23799623.701    23799635.3434
  23437262.990    -7597165.270 8  -5676050.72945  23437267.811    23437278.9624
  20640714.351   -24316454.943 9 -18923290.23147  20640717.551    20640726.2214
 00  7 10  2 27 30.0000000  0  7 16 20 25 06 01 29 22
  23568977.987    -7558826.935 8  -5871201.23745  23568981.867    23568993.6744
  21968253.339   -16109157.424 8 -12510850.52347  21968255.156    21968263.8954
  20891770.958   -23138577.726 9 -17997543.93848  20891773.757    20891781.3024
  23800281.035    -7637883.379 8  -5940824.06445  23800289.662    23800300.0664
  23781713.774    -6801877.558 8  -5273765.86945  23781716.094    23781728.0834
  23454701.168    -7505541.088 8  -5604655.40545  23454703.050    23454715.2774
  20627967.440   -24383441.937 9 -18975487.84147  20627970.316    20627978.9014
 00  7 10  2 28  0.0000000  0  7 16 20 25 06 01 29 22
  23556730.858    -7623223.139 8  -5921379.99746  23556728.497    23556740.1534
  21966953.189   -16115995.366 8 -12516178.75847  21966953.718    21966962.3444
  20896725.958   -23112535.659 9 -17977251.43848  20896729.348    20896737.0594
  23799493.644    -7642041.041 8  -5944063.77545  23799498.386    23799507.8254
  23763812.798    -6895923.920 8  -5347048.65945  23763820.781    23763832.5034
  23472178.551    -7413699.348 8  -5533090.54245  23472178.861    23472191.6464
  20615316.783   -24449931.380 9 -19027297.74048  20615317.980    20615326.3814
 00  7 10  2 28 30.0000000  0  7 16 20 25 06 01 29 22
  23544557.037    -7687147.974 8  -5971191.46246  23544563.446    23544575.1464
  21965766.355   -16122229.081 8 -12521036.16747  21965768.280    21965776.3694
  20901721.053   -23086289.969 9 -17956800.26448  20901724.041    20901731.4324
  23798804.217    -7645695.745 8  -5946911.54845  23798804.197    23798812.3974
  23745936.987    -6989915.757 8  -5420288.91945  23745933.307    23745946.0024
  23489698.658    -7321641.326 8  -5461357.16245  23489698.041    23489709.9174
  20602759.247   -24515922.151 9 -19078719.07748  20602760.547    20602768.4794
 00  7 10  2 29  0.0000000  0  7 16 20 25 06 01 29 22
  23532489.518    -7750599.553 8  -6020634.16646  23532488.890    23532500.0584
  21964695.482   -16127858.667 8 -12525422.83047  21964696.404    21964704.6164
  20906753.985   -23059840.705 9 -17936190.44948  20906757.577    20906764.5614
  23798195.612    -7648846.730 8  -5949366.83245  23798202.577    23798213.5774
  23728051.454    -7083851.135 8  -5493485.19445  23728059.156    23728070.0624
  23507247.187    -7229367.899 7  -5389455.88845  23507256.318    23507268.2934
  20590295.983   -24581412.522 9 -19129750.49748  20590297.980    20590305.9004
 00  7 10  2 29 30.0000000  0  7 16 20 25 06 01 29 22
  23520503.331    -7813575.435 8  -6069706.18946  23520505.804    23520515.8044
  21963738.781   -16132884.093 8 -12529338.70747  21963740.033    21963747.3424
  20911826.168   -23033188.380 9 -17915422.40448  20911829.190    20911836.3564
  23797694.309    -7651493.334 8  -5951429.05845  23797699.342    23797708.4614
  23710185.126    -7177728.750 8  -5566636.47346  23710195.172    23710205.4724
  23524857.184    -7136880.583 8  -5317388.00145  23524857.383    23524868.0174
  20577929.775   -24646400.658 9 -19180390.54948  20577931.130    20577939.3454
 00  7 10  2 30  0.0000000  0  7 16 20 25 06 01 29 22
  23508611.614    -7876073.946 8  -6118406.26345  23508612.262    23508622.4944
  21962898.087   -16137305.471 8 -12532783.91447  21962899.140    21962907.0484
  20916937.075   -23006333.615 9 -17894496.61148  20916939.644    20916946.2204
  23797294.933    -7653634.915 8  -5953097.76445  23797291.983    23797302.7944
  23692340.230    -7271546.889 8  -5639741.36646  23692340.893    23692353.3374
  23542495.943    -7044180.408 8  -5245154.21245  23542497.471    23542508.4674
  20565659.594   -24710885.241 9 -19230638.22048  20565660.115    20565668.1204
 00  7 10  2 30 30.0000000  0  7 16 20 25 06 01 29 22
  23496805.687    -7938092.643 8  -6166732.42945  23496809.224    23496821.4184
  21962171.038   -16141123.016 9 -12535758.59847  21962172.561    21962181.1454
  20922085.090   -22979276.578 9 -17873413.20148  20922088.097    20922094.9894
  23796977.576    -7655270.883 8  -5954372.51445  23796981.799    23796990.8554
  23674495.482    -7365303.632 8  -5712798.40146  23674499.511    23674511.1744
  23560168.754    -6951268.632 8  -5172755.55945  23560178.105    23560189.0054
  20553482.503   -24774865.093 9 -19280492.58648  20553484.758    20553493.2234
 00  7 10  2 31  0.0000000  0  7 16 20 25 06 01 29 22
  23485099.317    -7999629.920 8  -6214683.51446  23485100.419    23485111.4184
  21961558.085   -16144336.671 8 -12538262.73447  21961560.829    21961569.3354
  20927271.936   -22952017.190 9 -17852172.11548  20927275.174    20927282.4904
  23796765.288    -7656400.451 8  -5955252.65645  23796765.814    23796775.3584
  23656669.372    -7458997.179 8  -5785806.21846  23656671.124    23656682.3464
  23577901.730    -6858146.423 7  -5100192.89545  23577897.656    23577909.3934
  20541405.362   -24838338.960 9 -19329952.68348  20541406.415    20541414.4284
 00  7 10  2 31 30.0000000  0  7 16 20 25 06 01 29 22
  23473481.430    -8060683.439 8  -6262257.63246  23473481.776    23473493.1774
  21961063.753   -16146946.669 8 -12540296.49347  21961063.737    21961072.9564
  20932497.512   -22924556.135 9 -17830773.89148  20932501.091    20932508.1604
  23796643.398    -7657023.229 8  -5955737.91645  23796647.243    23796656.5764
  23638849.851    -7552626.049 8  -5858763.65146  23638853.527    23638864.6674
  23595659.498    -6764815.003 8  -5027467.25345  23595660.093    23595671.3394
  20529421.945   -24901305.307 9 -19379017.30648  20529424.090    20529432.4314
 00  7 10  2 32  0.0000000  0  7 16 20 25 06 01 29 22
  23461949.991    -8121251.170 8  -6309453.20346  23461955.874    23461966.7304
  21960679.699   -16148953.202 8 -12541860.02947  21960682.005    21960690.4564
  20937762.279   -22896893.456 9 -17809218.55148  20937764.843    20937772.2584
  23796619.545    -7657138.459 8  -5955827.64945  23796624.765    23796633.3194
  23621044.743    -7646188.524 8  -5931669.32445  23621048.034    23621059.5114
  23613451.130    -6671275.397 8  -4954579.35345  23613459.375    23613470.8254
  20517534.910   -24963762.447 9 -19427685.12848  20517538.590    20517547.3814
 00  7 10  2 32 30.0000000  0  7 16 20 25 06 01 29 22
  23450519.600    -8181331.654 8  -6356269.14346  23450522.735    23450533.7994
  21960411.303   -16150356.537 8 -12542953.52947  21960414.974    21960423.6834
  20943066.149   -22869029.457 9 -17787506.34748  20943067.393    20943074.4724
  23796700.068    -7656745.415 8  -5955521.31545  23796700.464    23796708.0344
  23603253.882    -7739682.823 8  -6004521.91246  23603256.825    23603267.1134
  23631299.803    -6577529.171 7  -4881530.46345  23631299.017    23631310.1874
  20505747.986   -25025708.980 9 -19475955.08748  20505750.871    20505759.1354
 00  7 10  2 33  0.0000000  0  7 16 20 25 06 01 29 22
  23439182.770    -8240922.114 8  -6402703.19646  23439184.250    23439194.8614
  21960260.175   -16151156.777 8 -12543577.07547  21960263.074    21960271.3034
  20948403.490   -22840964.666 9 -17765637.67548  20948408.120    20948414.9104
  23796865.379    -7655843.414 8  -5954818.43145  23796872.297    23796880.6844
  23585479.380    -7833107.128 8  -6077319.98145  23585479.078    23585489.0304
  23649178.144    -6483577.188 8  -4808321.26145  23649177.335    23649189.2374
  20494060.121   -25087143.971 9 -19523826.43848  20494059.780    20494068.3064
 00  7 10  2 33 30.0000000  0  7 16 20 25 06 01 29 22
  23427932.978    -8300021.314 8  -6448754.48946  23427936.547    23427947.9164
  21960222.348   -16151354.240 8 -12543730.92847  21960224.680    21960233.7094
  20953783.490   -22812699.552 9 -17743612.91548  20953786.467    20953794.1204
  23797136.030    -7654432.115 8  -5953718.69345  23797140.685    23797150.5334
  23567707.441    -7926459.648 8  -6150062.13246  23567715.718    23567725.9684
  23667092.622    -6389420.924 8  -4734952.85445  23667095.158    23667106.6764
  20482464.135   -25148066.351 9 -19571298.34348  20482466.561    20482474.8224
 00  7 10  2 34  0.0000000  0  7 16 20 25 06 01 29 22
  23416783.691    -8358626.645 8  -6494420.95746  23416784.802    23416795.2104
  21960301.250   -16150949.334 8 -12543415.40747  21960302.075    21960311.1734
  20959199.731   -22784234.091 9 -17721432.04348  20959203.597    20959210.8904
  23797499.931    -7652511.089 8  -5952221.71945  23797506.387    23797515.5744
  23549960.409    -8019738.731 8  -6222747.01546  23549964.554    23549976.1214
  23685043.846    -6295061.540 7  -4661426.16545  23685050.507    23685064.1014
  20470969.985   -25208474.394 9 -19618369.47048  20470971.182    20470980.0154
 00  7 10  2 34 30.0000000  0  7 16 20 25 06 01 29 22
  23405724.718    -8416736.579 8  -6539701.38846  23405726.744    23405737.8654
  21960492.498   -16149942.183 8 -12542630.60747  21960493.737    21960503.2134
  20964656.741   -22755568.725 9 -17699095.38948  20964658.990    20964665.3754
  23797964.569    -7650079.638 8  -5950327.04245  23797968.618    23797979.4274
  23532226.295    -8112942.525 8  -6295373.26646  23532229.022    23532237.9334
  23703048.364    -6200500.246 7  -4587742.23545  23703043.902    23703058.7894
  20459571.173   -25268366.646 9 -19665038.68848  20459574.117    20459582.7774
 00  7 10  2 35  0.0000000  0  7 16 20 25 06 01 29 22
  23394762.842    -8474349.214 8  -6584594.32146  23394763.907    23394775.4814
  21960797.215   -16148333.202 8 -12541376.85947  21960799.487    21960808.9774
  20970149.513   -22726703.317 9 -17676602.86148  20970151.525    20970158.3004
  23798522.784    -7647137.307 8  -5948034.28745  23798528.740    23798537.7404
  23514507.774    -8206069.422 8  -6367939.59946  23514506.915    23514517.4224
  23721072.323    -6105738.337 8  -4513901.90845  23721078.502    23721088.7864
  20448275.316   -25327741.926 9 -19711305.08448  20448275.573    20448283.4184
 00  7 10  2 35 30.0000000  0  7 16 20 25 06 01 29 22
  23383893.534    -8531462.591 8  -6629098.20146  23383894.578    23383906.5414
  21961220.304   -16146122.761 9 -12539654.43447  21961221.236    21961228.9394
  20975678.419   -22697638.376 9 -17653954.85648  20975682.105    20975689.0474
  23799184.883    -7643683.632 8  -5945343.04645  23799186.418    23799195.0374
  23496796.824    -8299117.480 8  -6440444.46446  23496800.290    23496811.0524
  23739150.667    -6010776.989 7  -4439906.12445  23739147.037    23739163.4854
  20437072.853   -25386599.298 9 -19757167.92748  20437075.194    20437083.0764
 00  7 10  2 36  0.0000000  0  7 16 20 25 06 01 29 22
  23373119.490    -8588074.943 8  -6673211.68046  23373121.793    23373133.4724
  21961753.916   -16143311.300 9 -12537463.67047  21961755.747    21961763.6074
  20981247.516   -22668374.508 9 -17631151.84548  20981250.920    20981257.9634
  23799935.388    -7639718.405 8  -5942253.21945  23799940.706    23799948.7724
  23479105.113    -8392085.015 8  -6512886.63246  23479109.561    23479119.4914
  23757248.024    -5915617.588 7  -4365756.15445  23757256.039    23757269.3294
  20425972.308   -25444937.844 9 -19802626.49948  20425973.805    20425981.7564
 00  7 10  2 36 30.0000000  0  7 16 20 25 06 01 29 22
  23362439.735    -8644184.084 8  -6716933.04246  23362445.998    23362455.2734
  21962402.875   -16139899.032 8 -12534804.74247  21962405.112    21962413.2384
  20986854.784   -22638911.920 9 -17608193.98148  20986857.207    20986864.8314
  23800789.199    -7635241.134 8  -5938764.40445  23800792.385    23800801.0284
  23461431.548    -8484970.039 8  -6585264.46846  23461433.601    23461443.6594
  23775396.600    -5820261.307 7  -4291452.70745  23775402.166    23775414.0234
  20414970.158   -25502755.850 9 -19847679.45548  20414971.104    20414979.1374
 00  7 10  2 37  0.0000000  0  7 16 20 25 06 01 29 22
  23351860.659    -8699788.459 8  -6760261.08246  23351863.902    23351874.6684
  21963164.775   -16135886.667 8 -12531678.20547  21963168.278    21963177.4304
  20992498.080   -22609250.639 9 -17585081.30347  20992501.226    20992508.9224
  23801739.593    -7630251.372 8  -5934876.21145  23801741.828    23801750.9774
  23443773.698    -8577770.884 8  -6657576.73246  23443774.119    23443784.1254
  23793575.219    -5724709.479 7  -4216996.83245  23793584.360    23793596.5904
  20404066.358   -25560051.970 9 -19892325.75148  20404068.072    20404076.1734
 00  7 10  2 37 30.0000000  0  7 16 20 25 06 01 29 22
  23341376.232    -8754886.018 8  -6803194.20846  23341379.427    23341389.8314
  21964044.752   -16131274.670 9 -12528084.42347  21964045.980    21964054.8254
  20998178.755   -22579390.990 9 -17561814.05247  20998182.947    20998190.9204
  23802786.934    -7624748.728 8  -5930588.40745  23802789.251    23802798.3764
  23426126.300    -8670485.773 8  -6729822.00846  23426131.252    23426142.2524
  23811799.733    -5628963.464 7  -4142389.70345  23811806.745    23811819.2294
  20393260.413   -25616825.067 9 -19936564.50148  20393264.488    20393272.5454
 00  7 10  2 38  0.0000000  0  7 16 20 25 06 01 29 22
  23330990.555    -8809475.400 8  -6845731.34246  23330990.196    23331001.9154
  21965033.381   -16126063.470 8 -12524023.73147  21965037.550    21965046.6474
  21003900.111   -22549333.095 9 -17538392.32947  21003903.286    21003910.8584
  23803930.133    -7618732.832 8  -5925900.66145  23803933.244    23803943.4794
  23408505.408    -8763112.827 8  -6801998.85446  23408505.150    23408514.4154
  23830059.826    -5533024.468 7  -4067632.20045  23830060.748    23830073.1504
  20382559.716   -25673074.554 9 -19980395.25348  20382560.247    20382568.3224
 00  7 10  2 38 30.0000000  0  7 16 20 25 06 01 29 22
  23320696.645    -8863554.246 8  -6887870.65146  23320699.562    23320711.2664
  21966141.717   -16120253.491 9 -12519496.44647  21966143.764    21966152.0774
  21009657.163   -22519077.459 9 -17514816.51547  21009660.584    21009668.1174
  23805173.102    -7612203.389 8  -5920812.73045  23805176.566    23805186.0774
  23390890.743    -8855650.214 8  -6874105.81946  23390894.848    23390906.3774
  23848362.351    -5436893.709 8  -3992725.26945  23848356.877    23848367.8614
  20371954.665   -25728799.286 9 -20023817.10548  20371956.499    20371964.7434
 00  7 10  2 39  0.0000000  0  7 16 20 25 06 01 29 22
  23310504.929    -8917121.067 8  -6929610.96046  23310506.957    23310516.2494
  21967360.069   -16113845.462 9 -12514503.15747  21967363.081    21967371.4614
  21015452.483   -22488624.385 9 -17491086.85947  21015455.977    21015463.1594
  23806512.983    -7605160.229 8  -5915324.50945  23806515.827    23806525.9134
  23373303.098    -8948095.884 8  -6946141.32646  23373303.707    23373314.3824
  23866678.622    -5340572.730 7  -3917670.05045  23866684.754    23866696.8124
  20361452.161   -25783997.699 9 -20066828.83748  20361452.790    20361461.0924
 00  7 10  2 39 30.0000000  0  7 16 20 25 06 01 29 22
  23300411.013    -8970174.123 8  -6970950.97546  23300410.648    23300420.4244
  21968693.091   -16106839.913 8 -12509044.26847  21968696.359    21968703.8614
  21021284.509   -22457973.806 9 -17467203.29347  21021288.793    21021296.1014
  23807949.143    -7597602.929 8  -5909435.65645  23807953.915    23807964.3264
  23355724.705    -9040448.284 8  -7018104.13346  23355728.460    23355738.7574
  23885039.099    -5244062.559 7  -3842467.53645  23885048.939    23885062.1784
  20351047.635   -25838668.633 9 -20109429.54348  20351049.081    20351057.4284
 00  7 10  2 40  0.0000000  0  7 16 20 25 06 01 29 22
  23290411.807    -9022711.760 8  -7011889.35146  23290412.204    23290422.4334
  21970142.370   -16099237.436 9 -12503120.23447  21970143.043    21970150.9914
  21027155.024   -22427126.038 9 -17443166.08247  21027158.845    21027165.9304
  23809484.035    -7589531.351 8  -5903146.06045  23809490.127    23809500.9124
  23338167.175    -9132705.533 8  -7089992.82846  23338173.096    23338183.1494
  23903446.551    -5147364.720 7  -3767118.65845  23903451.312    23903463.1254
  20340744.155   -25892811.244 9 -20151618.57448  20340746.130    20340754.4644
 00  7 10  2 40 30.0000000  0  7 16 20 25 06 01 29 22
  23280512.514    -9074732.056 8  -7052424.60546  23280514.188    23280524.8744
  21971701.336   -16091038.588 9 -12496731.50647  21971703.108    21971711.3164
  21033062.251   -22396081.308 9 -17418975.38947  21033066.113    21033073.6324
  23811117.826    -7580945.276 8  -5896455.57945  23811124.211    23811133.7784
  23320634.435    -9224865.653 8  -7161805.79546  23320635.279    23320646.3874
  23921873.411    -5050480.594 7  -3691624.72545  23921886.128    23921902.2264
  20330542.370   -25946424.744 9 -20193395.31948  20330543.901    20330552.0324
 00  7 10  2 41  0.0000000  0  7 16 20 25 06 01 29 22
  23270710.904    -9126233.501 8  -7092555.55346  23270713.864    23270723.4974
  21973374.552   -16082244.023 9 -12489878.57347  21973376.617    21973385.0104
  21039008.444   -22364839.901 9 -17394631.45247  21039011.365    21039018.6634
  23812856.651    -7571844.317 8  -5889363.88445  23812856.418    23812866.6914
  23303107.873    -9316926.668 8  -7233541.60546  23303116.523    23303127.2404
  23940350.637    -4953411.579 7  -3615986.74245  23940359.228    23940372.7974
  20320439.697   -25999508.117 9 -20234758.98348  20320442.441    20320450.3234
 00  7 10  2 41 30.0000000  0  7 16 20 25 06 01 29 22
  23261007.582    -9177214.210 8  -7132280.73646  23261011.560    23261023.2134
  21975157.528   -16072854.696 8 -12482562.19147  21975163.251    21975171.1604
  21044990.286   -22333402.078 9 -17370134.45547  21044993.671    21045001.1964
  23814686.028    -7562228.433 8  -5881870.95745  23814685.799    23814696.1034
  23285611.052    -9408886.671 8  -7305198.64746  23285617.031    23285626.9384
  23958860.401    -4856158.793 7  -3540205.48845  23958864.738    23958877.2284
  20310440.425   -26052059.927 9 -20275708.42948  20310441.875    20310449.9594
 00  7 10  2 42  0.0000000  0  7 16 20 25 06 01 29 22
  23251407.311    -9227672.603 8  -7171598.92746  23251410.423    23251420.4964
  21977058.881   -16062871.133 8 -12474782.79247  21977062.797    21977071.0824
  21051010.069   -22301768.464 9 -17345484.89847  21051013.478    21051021.0614
  23816611.456    -7552097.268 8  -5873976.50045  23816613.585    23816622.5684
  23268138.890    -9500743.930 8  -7376775.64946  23268137.227    23268148.5844
  23977408.404    -4758723.681 7  -3464282.23245  23977407.102    23977420.2834
  20300537.346   -26104079.240 9 -20316242.93148  20300542.846    20300551.7354
 00  7 10  2 42 30.0000000  0  7 16 20 25 06 01 29 22
  23241901.732    -9277607.171 8  -7210508.95346  23241907.944    23241918.9804
  21979073.578   -16052294.061 8 -12466540.89947  21979075.514    21979084.1334
  21057065.712   -22269938.799 9 -17320682.57847  21057070.597    21057078.0124
  23818632.950    -7541450.748 8  -5865680.47145  23818639.008    23818648.8114
  23250667.895    -9592496.571 8  -7448271.12746  23250677.396    23250687.9774
  23995981.770    -4661107.478 7  -3388217.89545  23995983.337    23995996.1274
  20290743.419   -26155565.181 9 -20356361.82348  20290745.357    20290753.6594
 00  7 10  2 43  0.0000000  0  7 16 20 25 06 01 29 22
  23232505.764    -9327016.115 8  -7249009.37646  23232505.864    23232517.3244
  21981198.262   -16041124.209 9 -12457837.11147  21981201.589    21981209.4684
  21063163.192   -22237913.358 9 -17295727.70247  21063164.916    21063172.3344
  23820752.639    -7530288.928 8  -5856982.88745  23820763.303    23820772.7874
  23233235.409    -9684142.446 8  -7519683.40446  23233238.407    23233247.2024
  24014586.479    -4563311.637 7  -3312013.56245  24014594.021    24014605.7594
  20281047.847   -26206517.184 9 -20396064.66748  20281049.612    20281057.7544
 00  7 10  2 43 30.0000000  0  7 16 20 25 06 01 29 22
  23223200.106    -9375897.865 8  -7287099.02046  23223204.225    23223215.7574
  21983438.196   -16029362.481 9 -12448672.11547  21983439.759    21983448.0934
  21069293.665   -22205692.451 9 -17270620.51747  21069296.590    21069303.5574
  23822986.338    -7518611.504 8  -5847883.55645  23822986.471    23822994.4394
  23215818.498    -9775679.911 8  -7591011.22446  23215818.579    23215827.3514
  24033238.799    -4465337.553 7  -3235670.32045  24033237.333    24033250.6204
  20271455.108   -26256934.182 9 -20435350.61648  20271455.852    20271463.8104
 00  7 10  2 44  0.0000000  0  7 16 20 25 06 01 29 22
  23213998.425    -9424250.990 8  -7324776.73046  23214001.915    23214013.7174
  21985786.792   -16017009.692 8 -12439046.55847  21985790.057    21985798.8184
  21075463.166   -22173276.286 9 -17245361.18347  21075465.409    21075472.4154
  23825300.899    -7506418.451 8  -5838382.42845  23825306.640    23825315.0714
  23198418.941    -9867106.991 8  -7662253.04346  23198421.837    23198431.3074
  24051914.096    -4367186.639 7  -3159189.30945  24051915.111    24051929.1524
  20261960.990   -26306814.870 9 -20474218.66148  20261964.024    20261972.0204
 00  7 10  2 44 30.0000000  0  7 16 20 25 06 01 29 22
  23204900.528    -9472073.423 8  -7362040.94946  23204902.745    23204912.9694
  21988251.093   -16004066.561 8 -12428961.00847  21988252.623    21988261.3534
  21081667.267   -22140665.023 9 -17219949.81747  21081670.984    21081678.1644
  23827725.641    -7493709.784 8  -5828479.51445  23827725.016    23827733.1324
  23181043.460    -9958421.693 8  -7733407.25846  23181043.836    23181053.3064
  24070626.035    -4268860.234 7  -3082571.48845  24070626.917    24070639.3734
  20252571.766   -26356158.342 9 -20512668.09848  20252573.774    20252582.1544
 00  7 10  2 45  0.0000000  0  7 16 20 25 06 01 29 22
  23195901.354    -9519364.331 8  -7398890.93346  23195903.973    23195912.8934
  21990828.787   -15990534.133 8 -12418416.26647  21990827.970    21990836.0964
  21087912.192   -22107858.798 9 -17194386.53647  21087913.741    21087920.8314
  23830232.808    -7480485.483 8  -5818174.82345  23830241.109    23830249.0114
  23163687.900   -10049622.072 8  -7804472.42746  23163690.261    23163699.1444
  24089368.805    -4170359.626 7  -3005817.99345  24089372.152    24089384.9194
  20243285.474   -26404964.108 9 -20550698.53548  20243286.448    20243294.6044
 00  7 10  2 45 30.0000000  0  7 16 20 25 06 01 29 22
  23186999.315    -9566121.618 8  -7435325.16346  23187004.838    23187015.9694
  21993513.164   -15976413.154 9 -12407412.90447  21993515.451    21993523.9514
  21094188.595   -22074857.921 9 -17168671.57247  21094193.082    21094200.5504
  23832853.110    -7466745.585 8  -5807468.35745  23832855.780    23832863.7874
  23146356.517   -10140706.262 8  -7875447.03146  23146356.879    23146366.3014
  24108141.980    -4071686.439 7  -2928929.99945  24108149.041    24108160.5994
  20234099.196   -26453231.584 9 -20588309.52348  20234101.615    20234109.6144
 00  7 10  2 46  0.0000000  0  7 16 20 25 06 01 29 22
  23178209.763    -9612344.129 8  -7471342.64846  23178208.560    23178220.7064
  21996308.794   -15961704.518 8 -12395951.64747  21996314.164    21996322.3294
  21100505.284   -22041662.823 9 -17142805.27147  21100509.732    21100517.3804
  23835565.474    -7452490.016 8  -5796360.08345  23835567.473    23835576.3454
  23129042.150   -10231672.216 8  -7946329.52046  23129045.699    23129056.1864
  24126948.213    -3972841.754 7  -2851908.38845  24126956.020    24126970.2194
  20225017.149   -26500959.571 9 -20625500.13748  20225019.292    20225027.2304
 00  7 10  2 46 30.0000000  0  7 16 20 25 06 01 29 22
  23169511.845    -9658029.996 8  -7506941.97346  23169515.577    23169526.3844
  21999223.834   -15946409.359 9 -12384033.34447  21999224.600    21999233.1994
  21106860.873   -22008273.332 9 -17116787.49547  21106863.695    21106871.1584
  23838375.678    -7437718.861 8  -5784850.04345  23838378.380    23838387.1434
  23111757.730   -10322517.907 8  -8017118.28346  23111758.998    23111768.3914
  24145797.501    -3873827.247 7  -2774754.48145  24145798.132    24145812.0494
  20216035.607   -26548147.190 9 -20662269.68548  20216039.431    20216047.8014
 00  7 10  2 47  0.0000000  0  7 16 20 25 06 01 29 22
  23160919.838    -9703178.075 8  -7542122.26446  23160923.406    23160934.8494
  22002244.696   -15930528.580 9 -12371658.73347  22002246.858    22002255.6234
  21113250.786   -21974689.609 9 -17090618.36547  21113254.816    21113261.7414
  23841281.681    -7422432.269 8  -5772938.36545  23841288.102    23841295.9364
  23094490.750   -10413241.331 8  -8087811.80346  23094494.173    23094504.2934
  24164669.437    -3774644.232 7  -2697469.20845  24164672.888    24164686.0814
  20207160.623   -26594793.404 9 -20698617.35648  20207163.211    20207171.2704
 00  7 10  2 47 30.0000000  0  7 16 20 25 06 01 29 22
  23152427.665    -9747786.876 8  -7576882.30746  23152435.324    23152446.6314
  22005376.728   -15914063.254 8 -12358828.62147  22005379.991    22005388.9114
  21119678.877   -21940911.724 9 -17064297.93547  21119682.194    21119689.5014
  23844293.475    -7406630.162 8  -5760625.01145  23844294.181    23844303.1504
  23077255.350   -10503840.606 8  -8158408.59046  23077254.052    23077264.2714
  24183580.968    -3675294.033 7  -2620053.66945  24183577.327    24183592.8274
  20198386.457   -26640897.927 9 -20734542.92948  20198389.903    20198397.7394
 00  7 10  2 48  0.0000000  0  7 16 20 25 06 01 29 22
  23144052.703    -9791854.971 8  -7611221.03546  23144049.555    23144059.7764
  22008621.671   -15897014.347 8 -12345543.76847  22008624.165    22008632.7634
  21126142.299   -21906939.907 9 -17037826.39447  21126147.213    21126154.4044
  23847393.540    -7390312.689 8  -5747910.05645  23847399.912    23847408.9984
  23060033.382   -10594313.990 8  -8228907.22546  23060036.972    23060047.7214
  24202507.722    -3575778.200 7  -2542509.13345  24202516.786    24202530.4984
  20189718.255   -26686460.305 9 -20770046.05648  20189719.636    20189727.5024
 00  7 10  2 48 30.0000000  0  7 16 20 25 06 01 29 22
  23135763.159    -9835380.884 8  -7645137.30846  23135767.032    23135777.7144
  22011978.041   -15879382.804 8 -12331804.91547  22011979.346    22011987.8174
  21132644.651   -21872774.775 9 -17011204.21247  21132648.480    21132655.6634
  23850600.397    -7373479.984 8  -5734793.61945  23850603.158    23850612.2494
  23042844.748   -10684659.478 8  -8299306.24546  23042844.770    23042855.4044
  24221482.364    -3476098.374 7  -2464836.71945  24221485.077    24221498.4044
  20181149.424   -26731479.440 9 -20805125.88148  20181152.836    20181160.5294
 00  7 10  2 49  0.0000000  0  7 16 20 25 06 01 29 22
  23127585.759    -9878363.263 8  -7678630.03346  23127586.349    23127598.2734
  22015444.445   -15861169.832 8 -12317613.00647  22015445.082    22015453.8124
  21139184.086   -21838416.476 9 -16984431.51647  21139186.601    21139194.0114
  23853900.198    -7356131.963 8  -5721275.65145  23853904.154    23853913.6014
  23025675.226   -10774874.871 8  -8369603.87446  23025677.406    23025687.3684
  24240484.576    -3376255.575 7  -2387037.39045  24240486.953    24240498.8154
  20172687.898   -26775954.423 9 -20839781.69948  20172689.317    20172697.1084
 00  7 10  2 49 30.0000000  0  7 16 20 25 06 01 29 22
  23119509.237    -9920800.577 8  -7711698.02346  23119511.888    23119523.4144
  22019017.335   -15842376.455 8 -12302968.81947  22019021.424    22019030.7974
  21145758.660   -21803864.865 9 -16957508.19347  21145761.549    21145768.9324
  23857300.927    -7338268.778 8  -5707356.23745  23857303.740    23857313.1484
  23008532.898   -10864958.118 8  -8439798.53846  23008535.386    23008545.9304
  24259517.937    -3276251.461 7  -2309112.32945  24259515.373    24259528.9844
  20164326.087   -26819884.604 9 -20874012.98648  20164329.493    20164337.5674
 00  7 10  2 50  0.0000000  0  7 16 20 25 06 01 29 22
  23111534.815    -9962691.716 8  -7744340.41846  23111540.554    23111551.4064
  22022703.305   -15823003.988 8 -12287873.41347  22022707.645    22022716.5844
  21152369.468   -21769120.440 9 -16930434.63047  21152372.943    21152380.6914
  23860798.811    -7319890.576 8  -5693035.54345  23860801.259    23860810.7084
  22991414.538   -10954907.257 8  -8509888.70346  22991419.167    22991428.7304
  24278566.752    -3176087.434 7  -2231062.69645  24278577.689    24278588.2524
  20156072.089   -26863269.695 9 -20907819.52748  20156073.723    20156081.6044
 00  7 10  2 50 30.0000000  0  7 16 20 25 06 01 29 22
  23103672.396   -10004035.299 8  -7776556.14346  23103672.080    23103683.1144
  22026504.246   -15803053.310 9 -12272327.43147  22026505.403    22026512.5824
  21159015.467   -21734183.043 9 -16903210.68947  21159020.986    21159028.8324
  23864393.802    -7300997.759 8  -5678313.81645  23864395.329    23864405.1944
  22974322.654   -11044720.275 8  -8579872.79846  22974327.580    22974337.2434
  24297663.335    -3075764.993 7  -2152889.57445  24297667.588    24297679.0494
  20147920.614   -26906109.196 9 -20941200.92748  20147921.663    20147929.4214
 00  7 10  2 51  0.0000000  0  7 16 20 25 06 01 29 22
  23095902.879   -10044830.070 8  -7808344.23646  23095908.627    23095920.4284
  22030408.161   -15782525.751 9 -12256331.93147  22030411.101    22030419.6214
  21165702.022   -21699052.923 9 -16875836.58247  21165706.317    21165713.6214
  23868083.489    -7281590.534 8  -5663191.26645  23868088.104    23868097.4684
  22957263.016   -11134394.997 8  -8649749.14346  22957262.850    22957272.5474
  24316786.470    -2975285.612 7  -2074594.18845  24316787.489    24316801.1034
  20139871.450   -26948402.199 9 -20974156.48848  20139873.710    20139881.5834
 00  7 10  2 51 30.0000000  0  7 16 20 25 06 01 29 22
  23088248.643   -10085074.678 8  -7839703.63346  23088251.067    23088262.1714
  22034425.489   -15761422.430 8 -12239887.78447  22034426.560    22034435.0014
  21172424.230   -21663730.099 9 -16848312.31047  21172428.362    21172435.2734
  23871875.007    -7261669.148 8  -5647668.06045  23871879.483    23871888.2994
  22940226.857   -11223929.445 8  -8719516.15946  22940225.121    22940235.5084
  24335924.605    -2874650.656 7  -1996177.64245  24335938.784    24335952.3574
  20131928.477   -26990147.797 9 -21006685.50348  20131929.381    20131937.6274
 00  7 10  2 52  0.0000000  0  7 16 20 25 06 01 29 22
  23080696.581   -10124767.870 8  -7870633.32746  23080698.221    23080709.0744
  22038550.324   -15739744.564 9 -12222995.93847  22038552.355    22038560.6544
  21179183.576   -21628214.863 9 -16820638.10247  21179186.900    21179193.7944
  23875764.129    -7241233.874 8  -5631744.44045  23875768.555    23875776.9044
  22923208.456   -11313321.551 8  -8789172.26146  22923214.852    22923224.2344
  24355124.019    -2773861.664 7  -1917640.95845  24355116.482    24355129.1674
  20124086.633   -27031345.531 9 -21038787.60048  20124089.854    20124097.8234
 00  7 10  2 52 30.0000000  0  7 16 20 25 06 01 29 22
  23073248.094   -10163908.111 8  -7901132.18546  23073250.984    23073260.3624
  22042785.257   -15717493.571 9 -12205657.49447  22042786.558    22042794.9664
  21185978.948   -21592507.331 9 -16792814.04947  21185982.022    21185988.6624
  23879749.710    -7220284.905 8  -5615420.53645  23879754.854    23879764.4274
  22906226.181   -11402569.364 8  -8858715.91746  22906230.610    22906240.4434
  24374316.024    -2672920.260 7  -1838985.53745  24374326.945    24374340.8264
  20116351.928   -27071995.352 9 -21070462.76248  20116354.372    20116362.1834
 00  7 10  2 53  0.0000000  0  6 16 20 25 06 01 22
  23065907.121   -10202494.656 8  -7931199.58246  23065908.147    23065918.1014
  22047128.327   -15694670.632 9 -12187873.38547  22047129.057    22047138.0164
  21192809.885   -21556607.549 9 -16764840.19147  21192813.639    21192820.2284
  23883839.882    -7198822.578 8  -5598696.59345  23883838.817    23883848.4174
  22889273.814   -11491670.688 8  -8928145.46446  22889275.948    22889284.8894
  20108720.806   -27112096.715 9 -21101710.54348  20108723.157    20108731.3144
 00  7 10  2 53 30.0000000  0  7 03 16 20 25 06 01 22
  24687381.738    -1208430.62617   -687660.35655  24687388.494    24687401.9804
  23058663.845   -10240526.238 8  -7960834.56446  23058668.391    23058681.0924
  22051581.202   -15671277.148 8 -12169644.69947  22051580.543    22051589.3814
  21199677.347   -21520516.010 9 -16736716.90447  21199681.282    21199688.4264
  23888015.466    -7176847.399 8  -5581573.05845  23888020.368    23888029.5954
  22872346.950   -11580623.563 8  -8997459.30646  22872347.951    22872357.9674
  20101193.764   -27151648.701 9 -21132530.23148  20101196.825    20101204.7644
 00  7 10  2 54  0.0000000  0  7 03 16 20 25 06 01 22
  24667815.787    -1311294.258 7   -767813.72645  24667813.685    24667828.2874
  23051536.506   -10278001.515 8  -7990036.02046  23051538.058    23051549.5654
  22056137.803   -15647314.280 8 -12150972.32247  22056140.677    22056149.1714
  21206582.299   -21484232.827 9 -16708444.28747  21206585.891    21206592.9694
  23892295.562    -7154359.646 8  -5564050.09645  23892299.314    23892309.6134
  22855449.830   -11669425.861 8  -9066655.80246  22855450.243    22855459.2844
  20093773.178   -27190650.657 9 -21162921.34148  20093774.843    20093782.7884
 00  7 10  2 54 30.0000000  0  7 03 16 20 25 06 01 22
  24648224.591    -1414223.501 7   -848018.20845  24648227.577    24648239.5094
  23044506.097   -10314919.534 8  -8018803.29246  23044512.367    23044522.9744
  22060805.884   -15622783.410 9 -12131857.34147  22060808.540    22060817.0404
  21213524.863   -21447757.995 9 -16680022.33047  21213526.579    21213533.8034
  23896666.603    -7131359.537 8  -5546127.89545  23896676.163    23896685.2644
  22838577.322   -11758075.543 8  -9135733.38546  22838580.876    22838590.4984
  20086456.687   -27229102.416 9 -21192883.72948  20086457.871    20086465.8074
 00  7 10  2 55  0.0000000  0  7 03 16 20 25 06 01 22
  24628612.223    -1517215.544 7   -928271.57345  24628628.534    24628641.8354
  23037594.177   -10351278.872 8  -8047135.20246  23037594.549    23037604.5434
  22065580.587   -15597685.744 8 -12112300.71047  22065584.141    22065593.5444
  21220499.922   -21411091.526 9 -16651451.05247  21220503.832    21220511.2044
  23901154.030    -7107847.622 8  -5527806.85845  23901151.318    23901159.9554
  22821740.440   -11846570.549 8  -9204690.44746  22821740.069    22821749.0374
  20079242.461   -27267003.846 9 -21222417.28248  20079245.352    20079253.4344
 00  7 10  2 55 30.0000000  0  7 03 16 20 25 06 01 22
  24609016.779    -1620268.038 7  -1008572.11845  24609016.893    24609032.6764
  23030776.450   -10387078.713 8  -8075031.14046  23030782.088    23030792.2664
  22070465.565   -15572022.881 8 -12092303.66447  22070467.907    22070476.2984
  21227514.408   -21374233.653 9 -16622730.62847  21227517.712    21227525.1104
  23905718.808    -7083824.084 8  -5509087.19845  23905722.163    23905731.6004
  22804926.765   -11934908.835 8  -9273525.36446  22804929.321    22804939.6194
  20072135.450   -27304354.426 9 -21251521.60648  20072137.797    20072145.8234
 00  7 10  2 56  0.0000000  0  7 03 16 20 25 06 01 22
  24589402.020    -1723378.323 7  -1088917.66245  24589397.706    24589410.3214
  23024076.993   -10422317.761 8  -8102490.07746  23024076.549    23024087.0594
  22075457.912   -15545796.367 8 -12071867.39147  22075458.744    22075467.5834
  21234566.346   -21337184.242 9 -16593860.95547  21234567.981    21234575.3594
  23910385.353    -7059289.569 8  -5489969.37145  23910390.543    23910400.0334
  22788145.655   -12023088.127 8  -9342236.42146  22788149.909    22788159.0624
  20065132.074   -27341153.372 9 -21280196.08448  20065135.042    20065143.0364
 00  7 10  2 56 30.0000000  0  7 03 16 20 25 06 01 22
  24569749.611    -1826543.367 7  -1169305.88645  24569762.527    24569778.4644
  23017470.948   -10456995.081 8  -8129511.34246  23017476.421    23017488.4464
  22080552.197   -15519007.609 8 -12050993.01647  22080556.464    22080564.8124
  21241652.922   -21299943.749 9 -16564842.38747  21241654.803    21241662.2094
  23915154.913    -7034244.520 8  -5470453.71145  23915156.827    23915165.5374
  22771394.084   -12111106.344 8  -9410821.94846  22771399.615    22771409.9024
  20058237.063   -27377400.200 9 -21308440.34748  20058237.671    20058245.2344
 00  7 10  2 57  0.0000000  0  7 03 16 20 25 06 01 22
  24550113.603    -1929761.154 7  -1249735.17744  24550120.787    24550136.1174
  23010979.527   -10491109.740 8  -8156094.15746  23010984.844    23010995.8074
  22085758.305   -15491657.897 8 -12029681.55347  22085760.680    22085769.1834
  21248773.673   -21262512.180 9 -16535674.92347  21248778.017    21248785.1804
  23920016.183    -7008689.385 8  -5450540.59445  23920019.915    23920028.5954
  22754680.109   -12198961.347 8  -9479280.28546  22754681.644    22754691.8144
  20051443.411   -27413094.845 9 -21336254.32848  20051445.087    20051452.9294
 00  7 10  2 57 30.0000000  0  7 03 16 20 25 06 01 22
  24530460.680    -2033028.799 7  -1330203.33544  24530473.049    24530485.4134
  23004598.962   -10524660.502 8  -8182237.58246  23004600.913    23004611.1274
  22091070.878   -15463748.906 8 -12007934.27247  22091071.844    22091080.0994
  21255935.584   -21224889.716 9 -16506358.71047  21255937.444    21255944.6334
  23924967.450    -6982624.783 8  -5430230.46945  23924979.614    23924989.4424
  22737987.920   -12286651.124 8  -9547609.89346  22737994.839    22738004.0404
  20044755.595   -27448237.339 9 -21363638.06048  20044757.609    20044765.6724
 00  7 10  2 58  0.0000000  0  7 03 16 20 25 06 01 22
  24510809.979    -2136343.578 7  -1410708.20844  24510809.778    24510823.9804
  22998320.615   -10557646.394 8  -8207940.85146  22998323.593    22998333.4674
  22096488.399   -15435282.247 8 -11985752.44347  22096488.853    22096496.9214
  21263130.421   -21187076.549 9 -16476893.90147  21263133.045    21263140.0174
  23930032.969    -6956051.124 8  -5409523.68945  23930036.002    23930046.4164
  22721335.633   -12374173.475 8  -9615809.03946  22721340.106    22721349.9054
  20038173.000   -27482827.137 9 -21390591.13048  20038175.378    20038183.1604
 00  7 10  2 58 30.0000000  0  7 03 16 20 25 06 01 22
  24491136.745    -2239702.607 7  -1491247.58145  24491142.140    24491155.5824
  22992155.518   -10590066.708 8  -8233203.41046  22992155.270    22992165.0684
  22102006.936   -15406259.169 8 -11963137.04247  22102011.544    22102020.5044
  21270362.590   -21149072.898 9 -16447280.66247  21270364.775    21270371.6964
  23935189.142    -6928969.055 8  -5388420.74845  23935190.485    23935199.6274
  22704712.868   -12461526.317 8  -9683876.08146  22704717.252    22704726.6514
  20031695.913   -27516863.633 9 -21417113.04548  20031698.620    20031706.2994
 00  7 10  2 59  0.0000000  0  7 03 16 20 25 06 01 22
  24471453.262    -2343102.933 7  -1571819.08745  24471466.809    24471478.8204
  22986087.288   -10621919.931 8  -8258024.08446  22986092.952    22986103.5184
  22107636.640   -15376681.387 8 -11940089.41647  22107640.448    22107649.3904
  21277627.710   -21110878.749 9 -16417518.98847  21277632.771    21277639.7584
  23940440.541    -6901378.929 8  -5366921.92745  23940440.480    23940450.3134
  22688124.773   -12548707.377 8  -9751809.32746  22688127.110    22688136.0184
  20025325.348   -27550346.407 9 -21443203.47848  20025326.943    20025334.5364
 00  7 10  2 59 30.0000000  0  7 03 16 20 25 06 01 22
  24451785.177    -2446542.420 7  -1652421.12945  24451781.832    24451795.0514
  22980133.966   -10653205.776 8  -8282402.63446  22980138.746    22980149.5174
  22113371.315   -15346550.532 8 -11916610.81747  22113373.785    22113382.6234
  21284933.214   -21072493.859 9 -16387608.67747  21284936.993    21284944.1724
  23945784.196    -6873281.424 8  -5345027.74845  23945786.704    23945795.8474
  22671566.413   -12635714.750 8  -9819607.19346  22671569.859    22671578.7364
  20019058.565   -27583275.547 9 -21468862.50848  20019060.574    20019068.3014
 00  7 10  3  0  0.0000000  0  7 03 16 20 25 06 01 22
  24432095.454    -2550018.479 7  -1733051.65745  24432091.261    24432104.4524
  22974294.047   -10683922.803 8  -8306337.96146  22974294.308    22974304.3144
  22119208.369   -15315868.225 8 -11892702.52747  22119212.426    22119221.3604
  21292273.989   -21033918.655 9 -16357550.07447  21292277.490    21292284.8874
  23951224.731    -6844677.144 8  -5322738.68445  23951229.665    23951238.8794
  22655045.180   -12722546.087 8  -9887267.88646  22655046.503    22655056.3674
  20012897.627   -27615651.223 9 -21494090.25848  20012899.893    20012907.4194
 00  7 10  3  0 30.0000000  0  7 03 16 20 25 06 01 22
  24412390.448    -2653528.170 7  -1813708.37145  24412394.339    24412406.6754
  22968554.884   -10714070.682 8  -8329829.78846  22968557.046    22968567.0544
  22125154.708   -15284636.034 8 -11868365.75647  22125155.882    22125164.0764
  21299650.246   -20995153.179 9 -16327343.20447  21299654.084    21299661.5734
  23956767.089    -6815566.739 8  -5300055.22545  23956770.084    23956779.6374
  22638549.548   -12809199.343 8  -9954789.82446  22638556.130    22638565.0214
  20006840.527   -27647472.889 9 -21518886.31948  20006844.429    20006851.9104
 00  7 10  3  1  0.0000000  0  7 03 16 20 25 06 01 22
  24392683.833    -2757068.757 7  -1894389.13845  24392691.036    24392702.2884
  22962922.202   -10743648.448 8  -8352877.37446  22962928.210    22962939.9754
  22131200.997   -15252855.431 8 -11843601.64747  22131203.515    22131211.9214
  21307065.432   -20956197.313 9 -16296987.97447  21307067.258    21307074.8774
  23962399.115    -6785950.786 8  -5276977.82645  23962405.503    23962414.9324
  22622100.633   -12895672.349 8 -10022171.33246  22622102.488    22622111.7534
  20000892.488   -27678740.056 9 -21543250.31048  20000894.315    20000902.3944
 00  7 10  3  1 30.0000000  0  7 03 16 20 25 06 01 22
  24372985.809    -2860637.382 7  -1975091.78345  24372982.336    24372995.2064
  22957406.044   -10772654.934 8  -8375479.80446  22957409.009    22957419.8864
  22137353.570   -15220528.431 8 -11818411.76647  22137355.057    22137363.6654
  21314512.951   -20917051.490 9 -16266484.73547  21314516.325    21314524.0424
  23968135.579    -6755830.099 8  -5253507.15045  23968136.817    23968146.1174
  22605677.993   -12981962.985 8 -10089410.71046  22605680.532    22605691.3624
  19995047.333   -27709452.571 9 -21567182.10048  19995049.868    19995057.8264
 00  7 10  3  2  0.0000000  0  7 03 16 20 25 06 01 22
  24353263.045    -2964231.638 7  -2055814.39145  24353268.305    24353280.9274
  22951996.392   -10801089.436 8  -8397636.53246  22951998.619    22952008.4614
  22143609.348   -15187656.651 8 -11792797.40947  22143610.369    22143618.4594
  21321999.368   -20877715.416 9 -16235833.24347  21322001.742    21322009.5484
  23973959.086    -6725205.200 8  -5229643.54845  23973965.086    23973974.0204
  22589290.925   -13068069.147 8 -10156506.34046  22589295.360    22589305.7284
  19989308.150   -27739610.718 9 -21590681.92448  19989311.142    19989318.7134
 00  7 10  3  2 30.0000000  0  7 03 16 20 25 06 01 22
  24333551.333    -3067848.768 7  -2136554.82545  24333550.126    24333563.0864
  22946697.699   -10828951.518 8  -8419347.21346  22946696.728    22946705.9314
  22149968.370   -15154241.839 8 -11766759.90147  22149969.485    22149977.6504
  21329517.094   -20838189.341 9 -16205033.70247  21329523.319    21329530.8274
  23979886.697    -6694076.957 8  -5205387.75445  23979887.722    23979898.1424
  22572941.615   -13153988.428 8 -10223456.38646  22572946.292    22572955.4744
  19983675.506   -27769214.436 9 -21613749.72548  19983677.578    19983685.4464
 00  7 10  3  3  0.0000000  0  7 03 16 20 25 06 01 22
  24313819.214    -3171485.805 7  -2217310.77145  24313828.570    24313841.7154
  22941500.752   -10856239.907 8  -8440610.87646  22941503.009    22941512.8664
  22156430.262   -15120285.620 8 -11740300.51947  22156430.561    22156439.8344
  21337079.296   -20798473.663 9 -16174086.41747  21337081.189    21337088.3494
  23985903.255    -6662446.156 8  -5180740.35745  23985906.953    23985916.9864
  22556629.326   -13239718.656 8 -10290259.09946  22556631.552    22556641.9194
  19978146.297   -27798263.344 9 -21636385.20348  19978149.582    19978157.7934
 00  7 10  3  3 30.0000000  0  7 03 16 20 25 06 01 22
  24294100.814    -3275140.166 7  -2298080.18645  24294104.026    24294115.4394
  22936416.827   -10882954.213 8  -8461427.19646  22936419.480    22936429.4604
  22162992.631   -15085789.778 8 -11713420.66647  22162995.413    22163003.7354
  21344671.590   -20758568.381 9 -16142991.39347  21344674.854    21344681.8954
  23992021.903    -6630313.555 8  -5155701.93445  23992022.732    23992031.2574
  22540352.990   -13325257.839 8 -10356912.94446  22540354.548    22540363.5224
  19972725.274   -27826757.165 9 -21658588.15348  19972727.393    19972735.3564
 00  7 10  3  4  0.0000000  0  7 03 16 20 25 06 01 22
  24274363.290    -3378808.757 7  -2378860.69045  24274375.381    24274389.6464
  22931441.762   -10909093.771 8  -8481795.65046  22931444.903    22931454.7294
  22169657.862   -15050756.267 8 -11686121.85247  22169661.722    22169670.4234
  21352300.673   -20718473.516 9 -16111748.64347  21352304.413    21352311.7114
  23998227.978    -6597679.590 8  -5130272.85945  23998232.006    23998242.2894
  22524113.592   -13410603.622 8 -10423416.10346  22524114.285    22524122.6544
  19967408.333   -27854695.787 9 -21680358.48248  19967410.948    19967418.8014
 00  7 10  3  4 30.0000000  0  7 03 16 20 25 06 01 22
  24254640.342    -3482489.212 7  -2459650.43445  24254646.172    24254657.7974
  22926576.399   -10934657.732 8  -8501715.58046  22926579.770    22926590.2124
  22176429.306   -15015186.687 8 -11658405.31647  22176431.057    22176438.7224
  21359967.438   -20678188.767 9 -16080357.92747  21359970.198    21359977.7814
  24004534.939    -6564545.083 8  -5104453.74045  24004537.399    24004547.2074
  22507908.908   -13495753.694 8 -10489766.75946  22507910.369    22507919.2284
  19962198.028   -27882079.658 9 -21701696.53248  19962199.619    19962207.7564
 00  7 10  3  5  0.0000000  0  7 03 16 20 25 06 01 22
  24234913.453    -3586178.612 7  -2540447.16145  24234914.709    24234928.0274
  22921824.023   -10959645.609 8  -8521186.61446  22921825.552    22921835.5644
  22183300.136   -14979082.829 8 -11630272.46247  22183300.993    22183308.9854
  21367667.858   -20637714.277 9 -16048819.37447  21367672.342    21367679.9354
  24010932.637    -6530911.078 8  -5078245.41345  24010937.477    24010947.1844
  22491741.409   -13580705.811 8 -10555963.14646  22491744.335    22491752.8294
  19957092.157   -27908908.837 9 -21722602.34848  19957094.579    19957102.3664
 00  7 10  3  5 30.0000000  0  7 03 16 20 25 06 01 22
  24215183.426    -3689874.208 8  -2621248.70845  24215182.284    24215194.3514
  22917178.781   -10984056.421 8  -8540207.99546  22917179.391    22917190.3254
  22190271.978   -14942446.804 8 -11601724.94847  22190272.565    22190281.4114
  21375407.954   -20597050.198 9 -16017133.09247  21375410.434    21375417.7424
  24017428.115    -6496778.368 7  -5051648.47745  24017432.100    24017442.2644
  22475613.250   -13665457.910 8 -10622003.70646  22475615.822    22475624.2824
  19952092.468   -27935183.026 9 -21743075.70948  19952094.626    19952102.2804
 00  7 10  3  6  0.0000000  0  7 03 16 20 25 06 01 22
  24195440.395    -3793573.260 8  -2702052.95145  24195449.761    24195460.5174
  22912643.870   -11007889.969 8  -8558779.57446  22912645.494    22912655.5764
  22197341.629   -14905280.380 8 -11572764.14747  22197345.155    22197353.8244
  21383180.666   -20556196.863 9 -15985299.33747  21383184.458    21383192.1044
  24024018.923    -6462147.723 8  -5024663.52645  24024022.414    24024032.3964
  22459523.340   -13750007.712 8 -10687886.60246  22459526.936    22459536.9114
  19947199.909   -27960901.955 9 -21763116.39848  19947200.604    19947208.3184
 00  7 10  3  6 30.0000000  0  7 03 16 20 25 06 01 22
  24175709.648    -3897272.786 8  -2782857.59645  24175714.685    24175727.5554
  22908213.090   -11031145.465 8  -8576900.71146  22908219.781    22908230.4244
  22204513.808   -14867585.492 8 -11543391.54247  22204518.068    22204526.9514
  21390990.031   -20515154.069 9 -15953317.95347  21390994.720    21391002.1594
  24030697.222    -6427019.957 7  -4997291.22545  24030706.346    24030717.5354
  22443475.833   -13834352.848 8 -10753610.02447  22443476.465    22443486.0344
  19942408.254   -27986065.838 9 -21782724.57848  19942411.918    19942419.4784
 00  7 10  3  7  0.0000000  0  7 03 16 20 25 06 01 22
  24155975.559    -4000970.294 8  -2863660.61945  24155982.331    24155994.0724
  22903902.905   -11053822.270 8  -8594570.92046  22903903.804    22903915.4384
  22211786.524   -14829363.900 8 -11513608.52647  22211791.161    22211800.1494
  21398836.022   -20473922.115 9 -15921189.17147  21398840.942    21398848.1394
  24037489.969    -6391396.089 8  -4969532.33245  24037486.570    24037497.0554
  22427462.375   -13918491.268 8 -10819172.37047  22427465.581    22427475.1324
  19937726.757   -28010675.120 9 -21801900.60548  19937728.824    19937736.5094
 00  7 10  3  7 30.0000000  0  7 03 16 20 25 06 01 22
  24136251.358    -4104663.117 7  -2944460.01345  24136248.575    24136261.3084
  22899698.705   -11075920.134 8  -8611790.00046  22899699.525    22899710.2024
  22219158.051   -14790617.693 8 -11483416.73147  22219164.191    22219173.6054
  21406720.243   -20432501.076 9 -15888913.05647  21406723.663    21406730.6834
  24044358.341    -6355276.969 7  -4941387.52245  24044359.315    24044369.2214
  22411493.577   -14002420.789 8 -10884571.94947  22411494.586    22411504.0164
  19933149.617   -28034729.931 9 -21820644.57648  19933151.255    19933159.0824
 00  7 10  3  8  0.0000000  0  7 03 16 20 25 06 01 22
  24116500.887    -4208348.199 7  -3025253.36145  24116518.380    24116531.3194
  22895599.561   -11097438.264 8  -8628557.31346  22895602.830    22895614.9414
  22226634.920   -14751348.947 8 -11452817.74947  22226637.325    22226645.7934
  21414638.827   -20390890.905 9 -15856489.57047  21414641.411    21414649.2454
  24051317.228    -6318663.474 7  -4912857.50345  24051325.498    24051335.8034
  22395562.513   -14086139.233 8 -10949807.03047  22395563.362    22395572.6554
  19928676.157   -28058229.989 9 -21838956.28148  19928679.241    19928687.0094
 00  7 10  3  8 30.0000000  0  7 03 16 20 25 06 01 22
  24096797.577    -4312022.755 8  -3106038.54145  24096790.517    24096801.2814
  22891614.279   -11118376.422 8  -8644872.72646  22891618.300    22891630.0144
  22234205.834   -14711559.442 8 -11421812.99047  22234208.899    22234217.8464
  21422592.415   -20349091.756 9 -15823918.82947  21422595.427    21422603.3044
  24058382.056    -6281556.559 8  -4883942.97745  24058388.403    24058396.4994
  22379669.955   -14169644.249 8 -11014875.82247  22379672.613    22379682.0904
  19924310.645   -28081175.302 9 -21856835.71348  19924312.832    19924320.7084
 00  7 10  3  9  0.0000000  0  7 03 16 20 25 06 01 22
  24077053.731    -4415683.913 8  -3186813.30945  24077063.738    24077075.3274
  22887743.234   -11138733.918 8  -8660735.67546  22887746.161    22887755.1764
  22241875.304   -14671251.224 8 -11390404.02346  22241879.126    22241887.8784
  21430582.456   -20307103.311 9 -15791200.58947  21430585.785    21430593.2524
  24065541.891    -6243957.323 8  -4854644.86245  24065543.712    24065552.2254
  22363820.071   -14252933.589 8 -11079776.55347  22363823.542    22363832.3354
  19920050.730   -28103566.068 9 -21874283.03448  19920051.729    19920059.9754
 00  7 10  3  9 30.0000000  0  7 03 16 20 25 06 01 22
  24057338.468    -4519329.201 8  -3267575.66945  24057340.949    24057353.1484
  22883979.653   -11158510.366 8  -8676145.87846  22883982.913    22883991.5874
  22249643.320   -14630426.546 8 -11358592.60946  22249647.722    22249656.3824
  21438607.397   -20264926.021 9 -15758335.19247  21438611.865    21438619.5334
  24072790.111    -6205866.523 8  -4824963.69445  24072791.275    24072800.4794
  22348015.304   -14336005.047 8 -11144507.50047  22348015.497    22348024.1094
  19915893.018   -28125402.981 9 -21891298.78448  19915896.435    19915904.4294
 00  7 10  3 10  0.0000000  0  7 03 16 20 25 06 01 22
  24037612.406    -4622955.634 8  -3348323.41545  24037621.271    24037632.7744
  22880328.115   -11177705.589 8  -8691103.17146  22880329.928    22880339.7834
  22257510.807   -14589087.106 8 -11326380.09247  22257513.950    22257523.9694
  21446671.795   -20222559.596 9 -15725322.41647  21446674.329    21446681.5444
  24080133.590    -6167285.190 7  -4794900.29345  24080132.460    24080142.1804
  22332245.524   -14418856.326 8 -11209066.86547  22332248.613    22332258.0924
  19911844.462   -28146686.211 9 -21907883.09548  19911846.527    19911854.5094
 00  7 10  3 10 30.0000000  0  7 03 16 20 25 06 01 22
  24017902.819    -4726560.413 8  -3429054.25345  24017906.163    24017918.0724
  22876785.235   -11196318.824 8  -8705606.97946  22876788.221    22876799.2844
  22265476.667   -14547235.156 8 -11293768.21647  22265479.100    22265488.0144
  21454769.947   -20180004.304 9 -15692162.47747  21454772.274    21454779.3234
  24087562.082    -6128214.456 7  -4764455.54945  24087567.053    24087577.1214
  22316520.053   -14501485.011 8 -11273452.78547  22316524.784    22316534.0284
  19907898.170   -28167415.446 9 -21924035.72648  19907902.077    19907909.8704
 00  7 10  3 11  0.0000000  0  7 03 16 20 25 06 01 22
  23998182.759    -4830140.618 7  -3509765.98145  23998194.905    23998206.2144
  22873355.372   -11214349.812 8  -8719657.08046  22873356.696    22873367.3334
  22273537.243   -14504872.778 8 -11260758.60147  22273540.078    22273548.8934
  21462901.512   -20137260.356 9 -15658855.52947  21462905.906    21462913.3534
  24095096.524    -6088655.276 8  -4733630.18845  24095095.694    24095104.9334
  22300844.442   -14583888.855 8 -11337663.52147  22300844.359    22300852.9344
  19904061.929   -28187590.898 9 -21939756.84248  19904063.008    19904070.3804
 00  7 10  3 11 30.0000000  0  7 03 16 20 25 06 01 22
  23978488.372    -4933693.266 8  -3590456.24845  23978488.759    23978501.7654
  22870033.290   -11231798.479 8  -8733253.42746  22870036.358    22870047.0854
  22281695.577   -14462002.054 8 -11227352.88247  22281698.308    22281707.3474
  21471073.213   -20094327.672 9 -15625401.52047  21471075.575    21471083.4134
  24102713.941    -6048608.678 8  -4702425.03645  24102716.072    24102725.4934
  22285203.044   -14666065.659 8 -11401697.32847  22285205.424    22285214.6504
  19900326.849   -28207212.949 9 -21955046.72148  19900328.770    19900336.3034
 00  7 10  3 12  0.0000000  0  7 03 16 20 25 06 01 22
  23958790.228    -5037215.772 8  -3671123.02245  23958789.703    23958801.6034
  22866824.111   -11248664.220 8  -8746395.53046  22866826.394    22866837.4564
  22289949.871   -14418625.015 8 -11193552.61747  22289952.512    22289961.0544
  21479277.442   -20051206.128 9 -15591800.35147  21479281.461    21479288.8774
  24110420.198    -6008076.040 8  -4670841.12045  24110429.110    24110438.3204
  22269608.656   -14748013.060 8 -11465552.35147  22269612.301    22269621.6004
  19896696.901   -28226282.339 9 -21969905.96548  19896699.980    19896707.7384
 00  7 10  3 12 30.0000000  0  7 03 16 20 25 06 01 22
  23939101.070    -5140705.166 8  -3751764.00045  23939096.206    23939108.3924
  22863723.203   -11264946.943 8  -8759083.35246  22863727.563    22863738.1394
  22298301.924   -14374743.792 8 -11159359.49546  22298303.447    22298311.4444
  21487518.993   -20007895.429 9 -15558051.78947  21487523.424    21487530.8084
  24118223.760    -5967058.112 8  -4638879.08845  24118235.079    24118244.4174
  22254058.725   -14829728.671 8 -11529226.77847  22254062.328    22254071.6284
  19893174.530   -28244799.109 9 -21984334.59348  19893176.425    19893183.9924
 00  7 10  3 13  0.0000000  0  7 03 16 20 25 06 01 22
  23919410.524    -5244158.445 8  -3832376.83345  23919410.150    23919422.1834
  22860736.291   -11280646.372 8  -8771316.64746  22860741.607    22860750.1694
  22306749.266   -14330360.793 8 -11124775.36547  22306749.646    22306757.6524
  21495799.096   -19964396.022 9 -15524156.17647  21495801.266    21495808.4564
  24126134.954    -5925556.082 8  -4606539.85045  24126132.778    24126142.6984
  22238552.821   -14911210.390 8 -11592718.93847  22238556.183    22238565.5244
  19889756.131   -28262763.326 9 -21998332.64648  19889757.899    19889765.3484
 00  7 10  3 13 30.0000000  0  7 03 16 20 25 06 01 22
  23899726.866    -5347572.953 8  -3912959.50445  23899729.983    23899742.0534
  22857863.722   -11295762.041 8  -8783095.07846  22857865.147    22857873.2004
  22315286.339   -14285478.123 8 -11089801.88847  22315290.372    22315298.6734
  21504110.668   -19920707.802 9 -15490113.44347  21504114.859    21504122.1784
  24134117.547    -5883570.957 8  -4573824.17645  24134122.051    24134131.7074
  22223094.761   -14992455.935 8 -11656027.07347  22223095.519    22223105.1034
  19886443.858   -28280175.207 9 -22011900.30448  19886444.386    19886452.3364
 00  7 10  3 14  0.0000000  0  7 03 16 20 25 06 01 22
  23880055.961    -5450946.007 8  -3993509.88745  23880059.280    23880069.5034
  22855095.016   -11310294.059 8  -8794418.71646  22855099.374    22855108.5414
  22323923.579   -14240097.714 8 -11054440.55247  22323925.914    22323933.9224
  21512459.851   -19876831.030 9 -15455923.78147  21512464.622    21512471.9014
  24142205.102    -5841104.138 8  -4540733.14345  24142203.860    24142211.5594
  22207676.356   -15073462.943 8 -11719149.32047  22207680.186    22207689.4504
  19883235.167   -28297035.427 9 -22025038.10048  19883235.973    19883243.8214
 00  7 10  3 14 30.0000000  0  7 03 16 20 25 06 01 22
  23860400.911    -5554274.582 8  -4074025.57045  23860395.324    23860407.9214
  22852444.154   -11324241.977 8  -8805287.22446  22852446.556    22852454.4244
  22332651.650   -14194222.089 8 -11018693.33146  22332654.899    22332664.3754
  21520848.791   -19832765.830 9 -15421587.28847  21520849.729    21520857.1714
  24150368.443    -5798156.744 7  -4507267.63345  24150375.273    24150384.4794
  22192309.620   -15154229.188 8 -11782083.97447  22192311.886    22192321.1714
  19880130.916   -28313344.563 9 -22037746.48448  19880132.670    19880140.1314
 00  7 10  3 15  0.0000000  0  7 03 16 20 25 06 01 22
  23840735.293    -5657555.872 8  -4154504.47345  23840742.402    23840754.0594
  22849897.335   -11337605.824 8  -8815700.60246  22849902.209    22849911.2974
  22341476.313   -14147853.272 8 -10982561.83746  22341478.231    22341488.3224
  21529267.589   -19788511.828 9 -15387103.68547  21529271.162    21529278.4934
  24158636.243    -5754730.003 7  -4473428.59545  24158639.307    24158649.2034
  22176984.958   -15234752.333 8 -11844829.18447  22176988.419    22176996.8604
  19877132.299   -28329102.959 9 -22050025.73148  19877133.694    19877141.3984
 00  7 10  3 15 30.0000000  0  7 03 16 20 25 06 01 22
  23821094.603    -5760786.946 8  -4234944.21545  23821098.963    23821110.2414
  22847464.297   -11350385.227 8  -8825658.56846  22847469.947    22847479.7974
  22350393.763   -14100993.421 8 -10946047.69546  22350396.415    22350405.0404
  21537724.184   -19744069.249 9 -15352473.13247  21537727.928    21537735.6334
  24166993.599    -5710824.992 7  -4439216.91045  24166994.020    24167003.5574
  22161711.489   -15315030.170 8 -11907383.26147  22161712.073    22161720.3974
  19874237.565   -28344310.630 9 -22061875.84348  19874239.663    19874247.3974
 00  7 10  3 16  0.0000000  0  7 03 16 20 25 06 01 22
  23801464.901    -5863964.959 8  -4315342.64545  23801464.316    23801476.2404
  22845145.591   -11362580.339 8  -8835161.23246  22845148.309    22845159.3374
  22359404.176   -14053645.205 8 -10909152.99946  22359406.376    22359415.4004
  21546217.883   -19699437.944 9 -15317695.52647  21546221.143    21546228.5064
  24175433.232    -5666443.239 8  -4404633.72645  24175440.131    24175449.3864
  22146480.585   -15395060.327 8 -11969744.33747  22146482.832    22146492.0804
  19871448.325   -28358967.920 9 -22073297.07848  19871450.547    19871458.2164
 00  7 10  3 16 30.0000000  0  7 03 16 20 25 06 01 22
  23781833.459    -5967086.922 8  -4395697.37545  23781840.653    23781852.2734
  22842934.510   -11374191.151 8  -8844208.59546  22842938.929    22842950.2744
  22368509.159   -14005810.718 8 -10871879.40046  22368509.540    22368517.7154
  21554744.970   -19654618.178 9 -15282771.06147  21554749.701    21554757.4634
  24183971.357    -5621585.804 7  -4369679.89445  24183976.205    24183985.7824
  22131296.060   -15474840.443 8 -12031910.56247  22131301.050    22131309.9564
  19868764.281   -28373075.731 9 -22084290.15548  19868765.744    19868773.5784
 00  7 10  3 17  0.0000000  0  7 03 16 20 25 06 01 22
  23762224.750    -6070150.036 8  -4476006.23845  23762228.164    23762240.1274
  22840838.745   -11385217.336 8  -8852800.40446  22840841.149    22840851.6494
  22377704.436   -13957492.217 8 -10834228.65446  22377704.052    22377712.3994
  21563310.844   -19609609.472 9 -15247699.35747  21563314.304    21563322.3224
  24192599.953    -5576253.969 8  -4334356.37945  24192602.407    24192611.6994
  22116163.563   -15554368.346 8 -12093880.27747  22116167.173    22116176.2384
  19866182.489   -28386634.808 9 -22094855.65248  19866185.604    19866193.3164
 00  7 10  3 17 30.0000000  0  7 03 16 20 25 06 01 22
  23742614.474    -6173151.369 8  -4556266.92845  23742627.621    23742639.6094
  22838850.816   -11395658.980 8  -8860936.72746  22838853.813    22838865.3574
  22386989.181   -13908692.069 8 -10796202.58446  22386990.080    22386999.2404
  21571912.846   -19564412.334 9 -15212480.83647  21571915.515    21571922.8094
  24201315.211    -5530448.935 8  -4298664.17545  24201319.416    24201329.2694
  22101078.349   -15633641.569 8 -12155651.53347  22101082.043    22101091.4804
  19863707.464   -28399645.263 9 -22104993.65048  19863709.932    19863717.4684
 00  7 10  3 18  0.0000000  0  7 03 16 20 25 06 01 22
  23723040.722    -6276087.901 8  -4636477.14645  23723038.655    23723050.0874
  22836974.874   -11405516.099 8  -8868617.55646  22836978.308    22836989.5494
  22396363.949   -13859412.700 8 -10757803.09946  22396367.112    22396376.5654
  21580551.066   -19519026.823 9 -15177115.52547  21580552.448    21580560.0374
  24210118.551    -5484171.830 7  -4262604.10745  24210124.957    24210134.3734
  22086041.572   -15712657.912 8 -12217222.62747  22086045.253    22086054.3294
  19861336.602   -28412107.304 9 -22114704.31548  19861338.363    19861345.9484
 00  7 10  3 18 30.0000000  0  7 03 16 20 25 06 01 22
  23703453.922    -6378956.883 8  -4716634.73645  23703463.897    23703476.0434
  22835211.291   -11414788.908 8  -8875843.10146  22835213.701    22835225.3224
  22405832.927   -13809656.532 8 -10719032.10146  22405835.641    22405844.0034
  21589222.479   -19473452.877 9 -15141603.38047  21589224.622    21589232.2724
  24219019.876    -5437424.273 8  -4226177.46145  24219021.371    24219029.3274
  22071054.281   -15791414.993 8 -12278591.70647  22071058.279    22071067.6444
  19859068.742   -28424021.549 9 -22123988.12548  19859071.156    19859078.8234
 00  7 10  3 19  0.0000000  0  7 03 16 20 25 06 01 22
  23683895.711    -6481755.158 8  -4796737.23845  23683902.276    23683913.7024
  22833560.040   -11423477.024 8  -8882613.03646  22833560.664    22833571.2844
  22415391.707   -13759425.761 8 -10679891.26446  22415394.797    22415402.8174
  21597927.779   -19427690.179 9 -15105944.15647  21597933.014    21597940.9494
  24228007.196    -5390207.599 8  -4189385.26945  24228007.189    24228015.0954
  22056119.385   -15869910.519 8 -12339756.96447  22056120.984    22056130.4294
  19856906.552   -28435388.908 9 -22132845.78848  19856908.173    19856915.7074
 00  7 10  3 19 30.0000000  0  7 03 16 20 25 06 01 22
  23664349.714    -6584479.977 8  -4876782.45845  23664353.714    23664365.6914
  22832013.582   -11431580.643 8  -8888927.51646  22832018.492    22832028.9474
  22425041.762   -13708722.645 8 -10640382.36246  22425043.531    22425051.6044
  21606675.027   -19381738.837 9 -15070137.93947  21606677.567    21606685.1814
  24237071.071    -5342522.884 7  -4152228.34545  24237079.718    24237088.9174
  22041232.848   -15948142.157 8 -12400716.59947  22041233.720    22041243.7454
  19854846.500   -28446210.185 9 -22141277.93148  19854848.917    19854856.2334
 00  7 10  3 20  0.0000000  0  7 03 16 20 25 06 01 22
  23644811.406    -6687128.490 8  -4956768.27645  23644820.744    23644832.0444
  22830583.824   -11439100.029 8  -8894786.76946  22830588.062    22830597.6944
  22434778.305   -13657549.909 8 -10600507.53946  22434780.656    22434789.7034
  21615455.632   -19335599.161 9 -15034184.98047  21615457.543    21615464.9884
  24246243.532    -5294371.526 7  -4114707.82345  24246242.312    24246251.2924
  22026396.591   -16026107.469 8 -12461468.71547  22026397.953    22026407.1644
  19852890.435   -28456485.562 9 -22149284.70148  19852893.234    19852901.0624
 00  7 10  3 20 30.0000000  0  7 03 16 20 25 06 01 22
  23625296.203    -6789697.819 8  -5036692.34245  23625302.797    23625313.7734
  22829265.510   -11446034.969 8  -8900190.59746  22829268.867    22829277.1674
  22444602.814   -13605910.021 8 -10560268.69646  22444607.581    22444616.5354
  21624268.999   -19289271.058 9 -14998085.17647  21624273.100    21624281.1814
  24255494.756    -5245755.094 8  -4076824.90245  24255494.458    24255503.6394
  22011608.442   -16103804.216 8 -12522011.56047  22011612.606    22011621.8494
  19851040.027   -28466215.440 9 -22156866.41548  19851041.927    19851049.3484
 00  7 10  3 21  0.0000000  0  7 03 16 20 25 06 01 22
  23605799.303    -6892185.100 8  -5116552.43145  23605800.114    23605812.1704
  22828054.410   -11452386.122 8  -8905139.50846  22828059.128    22828069.0994
  22454520.430   -13553805.291 8 -10519667.65046  22454523.153    22454532.2074
  21633123.233   -19242754.258 9 -14961838.34847  21633125.158    21633132.9584
  24264825.798    -5196674.885 7  -4038580.60145  24264833.717    24264843.0584
  21996877.851   -16181230.101 8 -12582343.35647  21996878.914    21996887.8064
  19849291.924   -28475400.566 9 -22164023.63848  19849294.005    19849301.5214
 00  7 10  3 21 30.0000000  0  7 03 16 20 25 06 01 22
  23586305.885    -6994587.322 8  -5196346.25545  23586313.119    23586325.4244
  22826961.985   -11458153.495 8  -8909633.52746  22826963.012    22826971.6524
  22464523.810   -13501238.180 8 -10478706.29646  22464526.215    22464535.1494
  21642008.640   -19196049.030 9 -14925444.69347  21642012.810    21642020.6094
  24274257.161    -5147132.221 7  -3999975.95545  24274260.702    24274270.4784
  21982193.696   -16258382.739 8 -12642462.21647  21982197.353    21982206.1164
  19847648.160   -28484041.927 9 -22170757.14448  19847649.659    19847657.1764
 00  7 10  3 22  0.0000000  0  7 03 16 20 25 06 01 22
  23566840.167    -7096901.431 8  -5276071.41745  23566843.963    23566854.5534
  22825973.403   -11463337.330 8  -8913672.82746  22825976.121    22825985.3094
  22474615.262   -13448210.877 8 -10437386.35646  22474617.384    22474625.5534
  21650931.929   -19149155.359 9 -14888904.20047  21650936.388    21650944.1794
  24283775.698    -5097128.446 8  -3961012.00345  24283776.927    24283787.1194
  21967565.068   -16335259.764 8 -12702366.32047  21967567.829    21967576.3744
  19846106.365   -28492140.380 9 -22177067.61148  19846108.776    19846115.8324
 00  7 10  3 22 30.0000000  0  7 03 16 20 25 06 01 22
  23547392.781    -7199124.741 8  -5355725.84445  23547391.263    23547402.4674
  22825097.364   -11467937.602 8  -8917257.41746  22825100.269    22825110.2854
  22484790.991   -13394726.223 8 -10395710.03946  22484794.324    22484804.0284
  21659891.891   -19102073.072 9 -14852216.73047  21659895.975    21659903.9234
  24293378.117    -5046665.035 8  -3921689.87945  24293380.815    24293388.7134
  21952987.374   -16411858.746 8 -12762053.76547  21952991.409    21953000.1084
  19844670.109   -28499696.091 9 -22182955.16448  19844670.616    19844678.1694
 00  7 10  3 23  0.0000000  0  7 03 16 20 25 06 01 22
  23527950.791    -7301254.154 8  -5435307.08945  23527956.520    23527967.3484
  22824332.966   -11471954.758 8  -8920387.63546  22824335.871    22824346.7624
  22495055.085   -13340786.695 8 -10353679.26946  22495058.662    22495067.5514
  21668890.147   -19054802.343 9 -14815382.42747  21668891.249    21668899.2154
  24303060.428    -4995743.550 8  -3882010.80045  24303070.704    24303080.0454
  21938464.806   -16488177.250 8 -12821522.65747  21938468.657    21938477.2014
  19843333.784   -28506709.648 9 -22188420.25348  19843336.235    19843343.8654
 00  7 10  3 23 30.0000000  0  7 03 16 20 25 06 01 22
  23508529.971    -7403286.843 8  -5514812.95845  23508539.684    23508551.5434
  22823678.877   -11475389.238 8  -8923063.81746  22823681.813    22823692.5444
  22505404.469   -13286394.706 8 -10311295.95246  22505409.534    22505418.0524
  21677919.618   -19007343.055 9 -14778401.20447  21677922.698    21677930.4104
  24312846.500    -4944365.365 8  -3841975.85345  24312847.674    24312856.9594
  21923995.660   -16564213.034 8 -12880771.24547  21923999.226    21924008.3814
  19842102.659   -28513181.959 9 -22193463.59848  19842104.432    19842112.0994
 00  7 10  3 24  0.0000000  0  7 03 16 20 25 06 01 22
  23489142.792    -7505219.624 8  -5594240.96345  23489142.486    23489153.5594
  22823138.916   -11478240.837 8  -8925285.81946  22823139.620    22823150.4564
  22515841.161   -13231552.886 8 -10268562.11646  22515844.940    22515854.1214
  21686985.980   -18959695.390 9 -14741273.18447  21686989.386    21686997.3024
  24322708.045    -4892532.198 8  -3801586.39745  24322711.568    24322720.6644
  21909580.992   -16639963.753 8 -12939797.70347  21909584.419    21909593.0104
  19840972.755   -28519114.133 9 -22198086.05348  19840975.456    19840983.0784
 00  7 10  3 24 30.0000000  0  8 03 19 16 20 25 06 01 22
  23469759.544    -7607049.798 8  -5673589.01945  23469765.224    23469776.2454
  24686656.317     -237317.64717   -171824.61555  24686659.559    24686671.5794
  22822704.400   -11480510.364 8  -8927054.25646  22822707.722    22822718.3914
  22526365.934   -13176263.910 8 -10225479.84246  22526366.674    22526375.8604
  21696090.070   -18911859.012 9 -14703998.12047  21696092.819    21696100.2484
  24332653.022    -4840245.372 7  -3760843.44445  24332660.559    24332670.7164
  21895220.970   -16715427.096 8 -12998600.24047  21895224.380    21895232.3304
  19839947.395   -28524507.060 9 -22202288.31948  19839949.594    19839956.7844
 00  7 10  3 25  0.0000000  0  8 03 19 16 20 25 06 01 22
  23450404.319    -7708774.271 8  -5752854.73445  23450407.940    23450418.5534
  24670973.983     -319719.090 7   -236033.38745  24670979.883    24670992.1404
  22822384.921   -11482197.920 8  -8928369.19946  22822386.393    22822396.7834
  22536971.398   -13120530.075 8 -10182050.91946  22536972.891    22536981.2834
  21705227.098   -18863833.832 9 -14666575.93247  21705231.309    21705238.6584
  24342697.850    -4787506.411 8  -3719748.19545  24342697.233    24342706.2014
  21880917.159   -16790600.782 8 -13057177.06147  21880919.061    21880927.8424
  19839023.247   -28529360.933 9 -22206070.54348  19839025.443    19839033.3494
 00  7 10  3 25 30.0000000  0  8 03 19 16 20 25 06 01 22
  23431064.219    -7810390.482 8  -5832036.08345  23431070.601    23431081.0444
  24655292.943     -402120.865 7   -300242.48245  24655297.696    24655308.7904
  22822172.169   -11483304.094 8  -8929231.10746  22822175.699    22822185.5784
  22547659.614   -13064354.080 8 -10138277.45646  22547662.542    22547672.1524
  21714403.930   -18815620.023 9 -14629006.75247  21714406.158    21714413.9214
  24352810.380    -4734316.905 8  -3678301.86845  24352818.557    24352826.9124
  21866665.424   -16865482.416 9 -13115526.30347  21866668.899    21866677.8744
  19838204.261   -28533676.537 9 -22209433.33048  19838204.333    19838212.1004
 00  7 10  3 26  0.0000000  0  8 03 19 16 20 25 06 01 22
  23411757.356    -7911895.211 8  -5911130.55645  23411754.703    23411765.9154
  24639614.165     -484522.634 7   -364451.56245  24639617.139    24639629.0164
  22822072.787   -11483829.075 8  -8929640.13246  22822075.998    22822085.8194
  22558434.105   -13007738.564 8 -10094161.50446  22558436.829    22558445.4064
  21723613.309   -18767217.322 9 -14591290.40247  21723617.083    21723624.2424
  24363023.930    -4680678.554 8  -3636505.79345  24363025.446    24363034.1574
  21852472.545   -16940069.547 9 -13173646.06947  21852476.527    21852484.3844
  19837483.142   -28537454.880 9 -22212377.46648  19837485.307    19837493.0554
 00  7 10  3 26 30.0000000  0  8 03 19 16 20 25 06 01 22
  23392455.167    -8013285.618 8  -5990135.92745  23392460.431    23392471.7164
  24623932.253     -566924.566 7   -428660.74245  24623938.249    24623946.5954
  22822086.529   -11483773.583 8  -8929596.85646  22822086.059    22822096.0534
  22569290.367   -12950686.160 8 -10049705.14246  22569293.107    22569302.3674
  21732858.072   -18718626.350 9 -14553427.32847  21732863.246    21732870.9684
  24373313.997    -4626592.632 8  -3594360.94245  24373317.292    24373326.8424
  21838337.745   -17014360.001 9 -13231534.66747  21838339.814    21838347.4624
  19836867.422   -28540697.135 9 -22214903.88648  19836868.407    19836875.8234
 00  7 10  3 27  0.0000000  0  8 03 19 16 20 25 06 01 22
  23373186.654    -8114558.384 8  -6069049.64046  23373189.058    23373200.8354
  24608254.207     -649326.038 7   -492869.60645  24608255.252    24608268.6374
  22822203.466   -11483137.785 8  -8929101.39346  22822207.423    22822218.0044
  22580227.871   -12893199.342 8 -10004910.26546  22580232.480    22580241.0424
  21742143.645   -18669846.742 9 -14515417.27647  21742145.924    21742153.2614
  24383687.567    -4572060.708 8  -3551868.54245  24383694.575    24383703.7924
  21824257.061   -17088351.306 9 -13289190.16347  21824258.787    21824267.0864
  19836350.120   -28543404.005 9 -22217013.11348  19836353.347    19836360.5994
 00  7 10  3 27 30.0000000  0  8 03 19 16 20 25 06 01 22
  23353941.116    -8215710.860 8  -6147869.63746  23353940.321    23353950.7544
  24592572.985     -731726.888 7   -557077.96145  24592575.610    24592587.6434
  22822433.598   -11481922.372 8  -8928154.28546  22822438.464    22822448.9114
  22591252.391   -12835280.930 8  -9959779.06346  22591254.361    22591262.1674
  21751461.112   -18620878.309 9 -14477260.09747  21751464.318    21751472.1704
  24394158.194    -4517084.515 7  -3509029.98145  24394156.232    24394165.6784
  21810232.972   -17162041.247 9 -13346610.81147  21810236.305    21810244.8224
  19835938.391   -28545576.077 9 -22218705.61648  19835939.764    19835947.4384
 00  7 10  3 28  0.0000000  0  8 03 19 16 20 25 06 01 22
  23334715.216    -8316740.152 8  -6226593.63846  23334715.471    23334726.1134
  24576890.677     -814126.662 7   -621285.50545  24576895.513    24576907.3334
  22822777.050   -11480127.669 8  -8926755.80046  22822780.297    22822791.0534
  22602353.732   -12776933.532 8  -9914313.58146  22602357.521    22602366.2784
  21760816.204   -18571721.108 9 -14438955.81747  21760818.916    21760826.5144
  24404700.206    -4461665.801 7  -3465846.59545  24404701.408    24404710.9854
  21796270.114   -17235427.394 9 -13403794.74847  21796271.672    21796279.8854
  19835624.627   -28547214.082 9 -22219981.96848  19835627.934    19835635.9034
 00  7 10  3 28 30.0000000  0  8 03 19 16 20 25 06 01 22
  23315507.830    -8417643.078 8  -6305219.14646  23315513.811    23315524.7254
  24561214.247     -896525.405 7   -685492.17245  24561214.756    24561226.9294
  22823225.822   -11477754.360 8  -8924906.44046  22823231.748    22823241.4254
  22613540.219   -12718159.905 8  -9868516.01046  22613541.556    22613550.6264
  21770204.175   -18522375.144 9 -14400504.44847  21770209.136    21770216.6944
  24415328.203    -4405806.065 7  -3422319.56745  24415332.327    24415341.2284
  21782361.513   -17308507.363 9 -13460740.11147  21782364.581    21782372.8964
  19835415.813   -28548319.309 9 -22220843.16548  19835417.768    19835425.6244
 00  7 10  3 29  0.0000000  0  8 03 19 16 20 25 06 01 22
  23296333.213    -8518416.829 8  -6383744.00246  23296336.318    23296347.8044
  24545536.293     -978922.571 7   -749697.66445  24545535.888    24545547.7554
  22823791.895   -11474802.906 8  -8922606.59146  22823793.623    22823803.8104
  22624801.616   -12658962.614 8  -9822388.30646  22624805.585    22624815.1664
  21779631.189   -18472840.578 9 -14361906.11147  21779634.978    21779642.6694
  24426043.932    -4349506.859 8  -3378450.09245  24426045.715    24426055.0754
  21768514.127   -17381278.866 9 -13517445.10647  21768516.404    21768525.2524
  19835306.316   -28548893.087 9 -22221290.25248  19835308.487    19835316.2964
 00  7 10  3 29 30.0000000  0  8 03 19 16 20 25 06 01 22
  23277185.795    -8619058.428 8  -6462165.87645  23277185.084    23277196.1084
  24529853.576    -1061317.948 7   -813901.74045  24529858.085    24529867.6344
  22824462.875   -11471274.132 8  -8919856.86846  22824464.892    22824474.9914
  22636150.306   -12599344.241 8  -9775932.46746  22636151.111    22636159.8904
  21789093.525   -18423117.253 9 -14323160.68847  21789097.743    21789105.1884
  24436838.063    -4292769.997 8  -3334239.56545  24436843.211    24436852.4604
  21754726.478   -17453739.593 9 -13573907.94047  21754727.837    21754736.2264
  19835297.492   -28548935.960 9 -22221323.64248  19835300.235    19835307.8794
 00  7 10  3 30  0.0000000  0  8 03 19 16 20 25 06 01 22
  23258054.624    -8719564.915 8  -6540482.48246  23258058.616    23258070.3804
  24514170.686    -1143711.329 7   -878104.32745  24514178.222    24514188.0024
  22825244.072   -11467168.226 8  -8916657.45246  22825245.990    22825256.5054
  22647575.027   -12539307.799 8  -9729150.85446  22647576.172    22647584.6284
  21798592.169   -18373205.302 9 -14284268.28247  21798595.577    21798603.2024
  24447716.078    -4235597.115 8  -3289689.29845  24447721.466    24447731.2914
  21740994.306   -17525887.070 9 -13630126.69147  21740998.092    21741007.1724
  19835390.518   -28548448.675 9 -22220943.92248  19835392.818    19835400.6954
 00  7 10  3 30 30.0000000  0  8 03 19 16 20 25 06 01 22
  23238962.683    -8819933.004 8  -6618691.23346  23238959.894    23238970.8754
  24498497.906    -1226102.370 7   -942305.09145  24498498.303    24498509.7384
  22826135.156   -11462486.154 8  -8913009.07346  22826137.134    22826147.0404
  22659074.671   -12478855.610 8  -9682045.29346  22659079.069    22659088.3474
  21808127.338   -18323104.385 9 -14245228.62647  21808129.377    21808137.3764
  24458682.044    -4177989.999 8  -3244800.68045  24458684.638    24458693.1054
  21727325.271   -17597718.935 9 -13686099.50247  21727328.909    21727337.7884
  19835584.012   -28547432.094 9 -22220151.76448  19835586.447    19835594.4054
 00  7 10  3 31  0.0000000  0  8 03 19 16 20 25 06 01 22
  23219882.405    -8920160.055 8  -6696790.10046  23219887.342    23219897.6774
  24482815.410    -1308490.872 7  -1006503.89745  24482820.025    24482831.7434
  22827137.173   -11457228.731 8  -8908912.37246  22827136.807    22827147.7534
  22670660.357   -12417990.692 8  -9634618.12446  22670662.202    22670670.2104
  21817694.267   -18272814.405 9 -14206041.64647  21817698.958    21817707.0274
  24469722.691    -4119950.289 7  -3199574.97845  24469727.800    24469737.6414
  21713717.443   -17669233.001 9 -13741824.69247  21713720.750    21713729.2694
  19835877.257   -28545887.563 9 -22218948.21448  19835880.379    19835888.0014
 00  7 10  3 31 30.0000000  0  8 03 19 16 20 25 06 01 22
  23200828.706    -9020242.940 8  -6774776.60946  23200841.169    23200852.6794
  24467140.528    -1390876.450 7  -1070700.34045  24467140.635    24467151.1974
  22828245.207   -11451396.442 8  -8904367.73046  22828247.390    22828257.2084
  22682321.337   -12356715.725 8  -9586871.43246  22682322.157    22682330.8624
  21827303.592   -18222335.891 9 -14166707.76547  21827304.839    21827312.5014
  24480853.378    -4061479.620 7  -3154013.45645  24480855.385    24480864.0554
  21700172.270   -17740426.773 9 -13797300.31047  21700172.834    21700180.4094
  19836273.200   -28543816.338 9 -22217334.24948  19836274.775    19836282.0514
 00  7 10  3 32  0.0000000  0  8 03 19 16 20 25 06 01 22
  23181822.648    -9120178.659 8  -6852648.42946  23181823.629    23181835.0014
  24451469.280    -1473258.842 7  -1134894.33545  24451466.333    24451477.1974
  22829464.705   -11444989.599 8  -8899375.39146  22829466.836    22829476.9874
  22694056.032   -12295033.530 8  -9538807.42446  22694060.513    22694069.4784
  21836942.798   -18171668.264 9 -14127226.52547  21836946.663    21836954.0214
  24492063.133    -4002579.649 7  -3108117.41645  24492064.077    24492071.1414
  21686682.359   -17811297.850 9 -13852524.47947  21686686.282    21686694.6274
  19836767.007   -28541219.245 9 -22215310.52548  19836769.272    19836776.2314
 00  7 10  3 32 30.0000000  0  8 03 19 16 20 25 06 01 22
  23162834.596    -9219964.104 8  -6930403.13946  23162835.574    23162847.4064
  24435781.400    -1555637.787 7  -1199085.67145  24435791.256    24435800.9804
  22830792.530   -11438009.841 8  -8893936.61046  22830794.690    22830804.7524
  22705873.511   -12232946.773 8  -9490428.18346  22705875.327    22705883.5744
  21846624.827   -18120811.753 8 -14087598.08447  21846624.271    21846631.4924
  24503351.795    -3943252.300 7  -3061888.35345  24503352.904    24503360.6384
  21673257.024   -17881843.828 9 -13907495.31147  21673261.553    21673270.0534
  19837360.394   -28538097.116 9 -22212877.67748  19837363.226    19837370.4624
 00  7 10  3 33  0.0000000  0  8 03 19 16 20 25 06 01 22
  23143874.816    -9319596.732 8  -7008038.75545  23143874.672    23143887.3564
  24420113.908    -1638012.977 7  -1263274.01345  24420113.874    24420125.2984
  22832227.617   -11430456.971 8  -8888051.26146  22832231.759    22832241.6754
  22717764.066   -12170458.316 8  -9441735.91946  22717766.101    22717774.9234
  21856336.275   -18069766.262 9 -14047822.39147  21856338.203    21856345.3154
  24514720.035    -3883499.146 7  -3015327.47845  24514723.769    24514732.3484
  21659897.448   -17952062.308 9 -13962210.95947  21659899.789    21659907.5284
  19838054.664   -28534450.896 9 -22210036.44648  19838057.020    19838064.2234
 00  7 10  3 33 30.0000000  0  8 03 19 16 20 25 06 01 22
  23124940.956    -9419073.400 8  -7085552.84446  23124945.443    23124957.1144
  24404438.929    -1720384.066 7  -1327459.22545  24404439.048    24404450.5534
  22833772.948   -11422332.526 8  -8881720.54146  22833778.075    22833788.2744
  22729731.072   -12107570.882 8  -9392732.77346  22729732.506    22729742.2024
  21866082.386   -18018531.636 9 -14007899.31947  21866087.282    21866094.8044
  24526169.486    -3823321.988 7  -2968436.19645  24526174.196    24526184.4594
  21646598.427   -18021950.964 9 -14016669.60447  21646600.485    21646608.6834
  19838847.871   -28530282.071 9 -22206787.99048  19838850.544    19838857.6554
 00  7 10  3 34  0.0000000  0  8 03 19 16 20 25 06 01 22
  23106042.401    -9518391.087 8  -7162943.10646  23106047.555    23106057.7564
  24388768.680    -1802750.735 7  -1391640.96945  24388766.368    24388777.1524
  22835430.744   -11413636.774 8  -8874944.61446  22835432.020    22835443.0534
  22741774.403   -12044287.279 8  -9343420.91946  22741775.129    22741784.5944
  21875866.019   -17967108.045 8 -13967828.99947  21875873.239    21875880.4404
  24537701.344    -3762722.670 7  -2921215.98245  24537707.955    24537716.5574
  21633362.067   -18091507.573 9 -14070869.51547  21633364.042    21633372.4194
  19839740.647   -28525591.847 9 -22203133.24248  19839742.904    19839750.0654
 00  7 10  3 34 30.0000000  0  8 03 19 16 20 25 06 01 22
  23087179.314    -9617546.786 8  -7240207.13246  23087178.048    23087188.3444
  24373087.909    -1885112.593 7  -1455818.96345  24373092.831    24373103.2234
  22837196.507   -11404370.918 8  -8867724.49646  22837195.929    22837206.0274
  22753889.176   -11980610.302 8  -9293802.56146  22753892.074    22753901.6914
  21885691.441   -17915495.696 8 -13927611.59847  21885694.584    21885702.4504
  24549311.869    -3701703.001 7  -2873668.24545  24549318.119    24549327.3344
  21620190.279   -18160729.729 9 -14124808.79947  21620191.407    21620199.6914
  19840731.520   -28520381.207 9 -22199072.97348  19840734.232    19840741.4804
 00  7 10  3 35  0.0000000  0  8 03 19 16 20 25 06 01 22
  23068331.730    -9716537.654 8  -7317342.67746  23068339.483    23068351.6374
  24357416.109    -1967469.295 7  -1519992.93145  24357420.656    24357431.1394
  22839064.763   -11394535.596 8  -8860060.61346  22839067.148    22839077.3984
  22766080.735   -11916543.006 8  -9243880.04446  22766083.888    22766093.3244
  21895549.721   -17863694.096 9 -13887246.73247  21895552.733    21895559.5244
  24561009.822    -3640264.717 7  -2825794.29945  24561010.117    24561019.8414
  21607080.646   -18229615.161 9 -14178485.71247  21607082.881    21607090.5554
  19841823.660   -28514650.848 9 -22194607.73148  19841824.764    19841831.7534
 00  7 10  3 35 30.0000000  0  8 03 19 16 20 25 06 01 22
  23049534.268    -9815360.631 8  -7394347.40446  23049534.346    23049545.7394
  24341746.904    -2049820.349 7  -1584162.44945  24341750.220    24341759.8644
  22841047.076   -11384131.910 8  -8851953.83346  22841047.556    22841057.7954
  22778347.186   -11852088.098 8  -9193655.47846  22778349.920    22778358.8834
  21905442.382   -17811703.466 8 -13846734.56847  21905445.800    21905453.2614
  24572774.754    -3578409.640 7  -2777595.59845  24572780.229    24572790.2184
  21594036.584   -18298161.503 9 -14231898.40547  21594038.443    21594047.4414
  19843012.308   -28508402.065 9 -22189738.52248  19843013.606    19843020.9384
 00  7 10  3 36  0.0000000  0  8 03 19 16 20 25 06 01 22
  23030753.198    -9914012.760 8  -7471219.01946  23030762.219    23030772.3594
  24326079.355    -2132165.192 7  -1648327.12345  24326080.539    24326091.4734
  22843133.019   -11373160.693 8  -8843404.83846  22843134.876    22843146.0814
  22790685.653   -11787248.332 8  -9143131.03446  22790688.735    22790697.5944
  21915372.222   -17759523.659 8 -13806074.99447  21915375.567    21915382.5754
  24584629.379    -3516139.695 8  -2729073.62245  24584629.797    24584639.4964
  21581057.314   -18366366.360 9 -14285044.98547  21581059.642    21581068.9364
  19844299.601   -28501636.372 9 -22184466.51948  19844301.059    19844308.6254
 00  7 10  3 36 30.0000000  0  8 03 19 16 20 25 06 01 22
  23012016.583   -10012490.896 8  -7547955.06146  23012021.958    23012032.3074
  24310402.751    -2214504.053 7  -1712487.13445  24310410.945    24310423.3394
  22845325.841   -11361622.844 8  -8834414.28446  22845330.372    22845341.0574
  22803092.420   -11722026.670 8  -9092309.00046  22803099.479    22803108.5354
  21925337.328   -17707154.889 8 -13765268.17947  21925340.656    21925347.7744
  24596554.068    -3453456.641 7  -2680229.72645  24596558.453    24596567.8654
  21568142.665   -18434227.474 9 -14337923.73347  21568146.156    21568154.6694
  19845684.143   -28494355.109 9 -22178792.77448  19845686.825    19845694.2354
 00  7 10  3 37  0.0000000  0  8 03 19 16 20 25 06 01 22
  22993314.631   -10110791.988 8  -7624553.14546  22993315.518    22993325.6334
  24294744.820    -2296836.581 7  -1776642.26545  24294743.972    24294754.7814
  22847629.798   -11349519.286 8  -8824982.95046  22847633.468    22847643.7654
  22815582.891   -11656425.898 8  -9041191.55446  22815583.080    22815592.4604
  21935338.531   -17654596.774 8 -13724313.82247  21935342.015    21935349.7654
  24608560.947    -3390362.290 7  -2631065.36545  24608565.269    24608573.6644
  21555296.604   -18501742.575 9 -14390532.86247  21555298.539    21555306.9474
  19847168.487   -28486558.975 9 -22172717.84148  19847170.627    19847177.4844
 00  7 10  3 37 30.0000000  0  8 03 19 16 20 25 06 01 22
  22974642.720   -10208913.247 8  -7701011.10446  22974643.501    22974653.7324
  24279080.323    -2379162.040 7  -1840791.85245  24279077.655    24279089.3854
  22850039.523   -11336851.135 8  -8815111.66846  22850044.750    22850054.7834
  22828136.123   -11590449.092 8  -8989781.09346  22828137.889    22828146.3624
  21945378.391   -17601848.985 8 -13683211.67947  21945379.376    21945387.6314
  24620652.820    -3326858.552 7  -2581581.98645  24620649.695    24620659.1074
  21542513.655   -18568909.321 9 -14442870.53947  21542517.113    21542525.7824
  19848749.894   -28478249.206 9 -22166242.66548  19848751.419    19848758.7634
 00  7 10  3 38  0.0000000  0  8 03 19 16 20 25 06 01 22
  22956005.331   -10306851.601 8  -7777326.55146  22956005.769    22956016.4874
  24263403.869    -2461480.422 7  -1904935.91145  24263412.385    24263423.2014
  22852560.573   -11323619.374 8  -8804801.17446  22852562.849    22852573.3194
  22840761.091   -11524098.921 8  -8938079.68946  22840764.328    22840773.4644
  21955452.371   -17548911.811 8 -13641961.95747  21955453.126    21955461.4044
  24632812.872    -3262947.473 7  -2531781.17145  24632811.252    24632820.8364
  21529802.115   -18635725.193 9 -14494934.79847  21529802.481    21529811.0284
  19850427.736   -28469426.969 9 -22159368.17048  19850430.220    19850437.6624
 00  7 10  3 38 30.0000000  0  8 03 19 16 20 25 06 01 22
  22937399.208   -10404604.015 8  -7853497.07446  22937404.805    22937415.7154
  24247745.780    -2543791.240 7  -1969074.08345  24247750.619    24247760.2494
  22855185.803   -11309824.850 8  -8794052.19346  22855187.322    22855197.5654
  22853455.001   -11457378.284 8  -8886089.60046  22853461.203    22853470.1344
  21965557.969   -17495785.464 8 -13600564.81847  21965562.080    21965571.4604
  24645050.007    -3198630.944 7  -2481664.43945  24645050.840    24645060.0694
  21517152.627   -18702187.844 9 -14546723.81947  21517155.011    21517162.9014
  19852204.130   -28460093.984 9 -22152095.69648  19852206.225    19852213.8454
 00  7 10  3 39  0.0000000  0  8 03 19 16 20 25 06 01 22
  22918837.785   -10502167.630 8  -7929520.52446  22918838.880    22918849.5014
  24232086.546    -2626094.143 8  -2033206.12445  24232087.531    24232099.4824
  22857918.003   -11295468.918 8  -8782865.73446  22857918.968    22857930.4114
  22866228.324   -11390290.228 8  -8833813.24046  22866227.730    22866236.6974
  21975706.837   -17442470.084 8 -13559020.40347  21975708.533    21975716.0584
  24657369.455    -3133910.556 7  -2431233.00145  24657365.442    24657376.4854
  21504572.930   -18768294.988 9 -14598235.82647  21504574.968    21504582.8514
  19854076.979   -28450251.501 9 -22144426.21148  19854079.354    19854086.6434
 00  7 10  3 39 30.0000000  0  8 03 19 16 20 25 06 01 22
  22900305.446   -10599539.452 8  -8005394.48946  22900309.368    22900320.6324
  24216426.005    -2708388.630 7  -2097331.57545  24216427.968    24216439.5154
  22860757.463   -11280552.561 8  -8771242.61446  22860758.335    22860768.3114
  22879061.181   -11322837.435 8  -8781252.66046  22879063.398    22879072.9494
  21985885.980   -17388965.374 8 -13517328.45547  21985890.103    21985897.8644
  24669757.674    -3068788.496 7  -2380488.57745  24669759.122    24669768.3394
  21492061.142   -18834044.214 9 -14649468.93347  21492063.593    21492071.6634
  19856046.555   -28439900.390 9 -22136360.38448  19856049.087    19856056.3534
 00  7 10  3 40  0.0000000  0  8 03 19 16 20 25 06 01 22
  22881815.480   -10696716.353 8  -8081116.56446  22881816.125    22881827.5734
  24200757.222    -2790674.393 7  -2161450.21645  24200768.464    24200781.1124
  22863698.137   -11265076.968 8  -8759183.68446  22863702.482    22863712.9324
  22891963.943   -11255023.261 8  -8728410.51046  22891967.765    22891977.0014
  21996106.475   -17335270.903 8 -13475488.63647  21996107.798    21996115.7734
  24682220.051    -3003266.368 7  -2329432.42145  24682227.072    24682236.2354
  21479617.692   -18899433.398 9 -14700421.49747  21479620.124    21479628.3214
  19858113.835   -28429041.759 9 -22127899.08948  19858115.453    19858122.6354
 00  7 10  3 40 30.0000000  0  8 03 19 16 20 25 06 01 22
  22863356.697   -10793695.700 8  -8156684.70446  22863361.965    22863372.7114
  24185109.167    -2872951.380 7  -2225562.04745  24185112.377    24185121.5994
  22866751.736   -11249043.174 8  -8746689.80446  22866754.119    22866763.5974
  22904939.198   -11186850.360 8  -8675288.81346  22904940.460    22904950.1584
  22006359.842   -17281387.117 9 -13433501.31247  22006362.377    22006369.8394
  24694774.878    -2937346.431 7  -2278066.24645  24694771.909    24694781.0724
  21467242.112   -18964460.322 9 -14751091.77047  21467245.389    21467254.3264
  19860275.201   -28417677.155 9 -22119043.53048  19860277.937    19860285.1184
 00  7 10  3 41  0.0000000  0  8 03 19 16 20 25 06 01 22
  22844938.458   -10890474.121 8  -8232096.29346  22844945.840    22844956.1234
  24169456.717    -2955218.856 7  -2289666.49945  24169457.130    24169467.5654
  22869906.394   -11232452.452 8  -8733761.95346  22869911.272    22869920.6414
  22917978.479   -11118321.567 8  -8621889.80646  22917981.175    22917990.4544
  22016647.969   -17227313.892 8 -13391366.36547  22016651.822    22016659.1724
  24707378.405    -2871030.697 7  -2226391.66645  24707390.896    24707400.0694
  21454937.901   -19029122.380 9 -14801477.72547  21454940.923    21454949.5424
  19862533.614   -28405808.355 9 -22109795.09548  19862536.437    19862543.6014
 00  7 10  3 41 30.0000000  0  8 03 19 16 20 25 06 01 22
  22826567.379   -10987048.988 8  -8307349.28246  22826568.484    22826578.8474
  24153803.347    -3037476.366 8  -2353763.14945  24153804.648    24153814.6084
  22873169.880   -11215305.735 8  -8720400.88246  22873173.344    22873184.0364
  22931087.229   -11049440.104 8  -8568215.99346  22931088.624    22931098.1164
  22026972.687   -17173051.102 8 -13349083.70447  22026977.234    22026985.6224
  24720085.370    -2804320.978 7  -2174410.13745  24720085.966    24720093.8304
  21442702.446   -19093417.369 9 -14851577.66547  21442706.024    21442714.6104
  19864888.675   -28393436.369 9 -22100154.56348  19864890.843    19864897.9314
 00  7 10  3 42  0.0000000  0  8 03 19 16 20 25 06 01 22
  22808232.902   -11083417.125 8  -8382441.18946  22808230.472    22808240.4654
  24138150.264    -3119723.637 7  -2417851.82545  24138152.423    24138162.4694
  22876542.086   -11197604.128 8  -8706607.40346  22876542.499    22876553.0274
  22944261.285   -10980208.873 8  -8514269.65246  22944263.355    22944272.0804
  22037334.731   -17118598.550 8 -13306653.17647  22037339.120    22037347.0284
  24732856.000    -2737219.216 7  -2122123.08545  24732854.819    24732863.1164
  21430536.428   -19157342.872 9 -14901389.68847  21430541.320    21430549.6944
  19867338.399   -28380562.339 9 -22090122.83748  19867340.595    19867347.8474
 00  7 10  3 42 30.0000000  0  8 03 19 16 20 25 06 01 22
  22789929.536   -11179575.340 8  -8457369.51046  22789931.360    22789942.1644
  24122485.092    -3201960.154 7  -2481932.12145  24122503.176    24122513.5864
  22880011.731   -11179349.454 8  -8692382.96646  22880015.928    22880025.2364
  22957502.033   -10910630.807 8  -8460053.02046  22957503.894    22957512.7094
  22047734.437   -17063956.407 8 -13264074.92647  22047737.176    22047745.3374
  24745694.539    -2669727.330 7  -2069532.07445  24745698.055    24745706.7904
  21418443.052   -19220896.596 9 -14950912.02247  21418447.568    21418455.9674
  19869884.320   -28367187.444 9 -22079700.82648  19869885.702    19869893.0224
 00  7 10  3 43  0.0000000  0  8 03 19 16 20 25 06 01 22
  22771659.818   -11275521.008 8  -8532132.16646  22771673.026    22771683.9714
  24106855.371    -3284185.787 7  -2546003.99645  24106855.867    24106866.6714
  22883590.652   -11160542.432 8  -8677728.13546  22883595.952    22883603.9954
  22970807.468   -10840708.899 8  -8405568.47446  22970808.822    22970818.8844
  22058168.133   -17009124.798 8 -13221349.03747  22058171.032    22058179.5944
  24758607.594    -2601847.210 7  -2016638.49945  24758615.480    24758624.1704
  21406422.726   -19284076.306 9 -15000142.90647  21406424.582    21406433.4224
  19872523.712   -28353313.402 9 -22068889.87848  19872525.838    19872532.9944
 00  7 10  3 43 30.0000000  0  8 03 19 16 20 25 06 01 22
  22753453.081   -11371250.923 8  -8606726.74046  22753456.588    22753467.4684
  24091212.863    -3366400.155 8  -2610067.03145  24091212.276    24091223.0094
  22887272.951   -11141184.513 8  -8662644.01546  22887278.385    22887288.6204
  22984175.921   -10770446.126 8  -8350818.31346  22984179.425    22984189.0064
  22068635.726   -16954103.319 8 -13178475.19847  22068641.707    22068649.2614
  24771607.707    -2533581.155 7  -1963444.22145  24771604.995    24771614.8384
  21394469.376   -19346879.578 9 -15049080.47447  21394473.511    21394481.5924
  19875258.918   -28338941.879 9 -22057691.27548  19875260.509    19875267.8114
 00  7 10  3 44  0.0000000  0  8 03 19 16 20 25 06 01 22
  22735274.460   -11466762.088 8  -8681150.87046  22735281.179    22735291.9864
  24075567.713    -3448602.555 7  -2674120.73045  24075569.623    24075580.9254
  22891059.443   -11121277.140 8  -8647131.75446  22891066.894    22891076.3374
  22997609.415   -10699845.556 8  -8295804.94846  22997615.149    22997624.5004
  22079145.161   -16898892.369 8 -13135453.72947  22079148.132    22079156.3774
  24784663.375    -2464931.239 7  -1909950.81545  24784669.760    24784679.5064
  21382591.132   -19409304.198 9 -15097722.97847  21382594.940    21382602.9014
  19878087.123   -28324074.069 9 -22046105.95948  19878089.937    19878097.2654
 00  7 10  3 44 30.0000000  0  8 03 19 16 20 25 06 01 22
  22717143.798   -11562051.776 8  -8755402.38646  22717147.864    22717158.0424
  24059933.004    -3530792.504 8  -2738164.72645  24059928.758    24059939.5304
  22894958.542   -11100821.701 8  -8631192.44546  22894959.049    22894968.7624
  23011113.210   -10628910.050 8  -8240530.55546  23011113.276    23011123.0184
  22089688.448   -16843491.714 8 -13092284.42047  22089690.325    22089698.6724
  24797803.199    -2395899.407 7  -1856159.82845  24797805.527    24797814.9134
  21370786.734   -19471347.923 9 -15146068.69747  21370788.768    21370796.5174
  19881011.257   -28308711.030 9 -22034134.74548  19881013.490    19881020.7774
 00  7 10  3 45  0.0000000  0  8 03 19 16 20 25 06 01 22
  22699056.757   -11657116.724 8  -8829478.82646  22699057.961    22699067.5554
  24044284.395    -3612969.459 8  -2802198.64645  24044290.980    24044301.4194
  22898949.531   -11079819.151 8  -8614826.81046  22898955.893    22898965.7854
  23024674.037   -10557642.635 8  -8184997.54046  23024675.590    23024684.1554
  22100265.742   -16787901.071 8 -13048967.07647  22100269.286    22100277.2214
  24811013.716    -2326487.661 7  -1802072.81145  24811013.672    24811024.4294
  21359051.276   -19533008.574 9 -15194115.91847  21359054.877    21359062.7654
  19884027.878   -28292854.204 9 -22021778.76048  19884030.780    19884038.1634
 00  7 10  3 45 30.0000000  0  8 03 19 16 20 25 06 01 22
  22681005.613   -11751954.138 8  -8903377.97846  22681010.520    22681020.2314
  24028651.214    -3695133.147 8  -2866222.18845  24028657.022    24028666.3024
  22903056.230   -11058271.292 8  -8598036.26046  22903056.130    22903066.0814
  23038298.401   -10486046.438 8  -8129208.33846  23038299.850    23038308.6774
  22110881.375   -16732120.880 8 -13005502.02147  22110883.700    22110891.5794
  24824289.224    -2256698.027 7  -1747691.31345  24824293.585    24824303.6644
  21347390.637   -19594283.711 9 -15241862.73947  21347394.381    21347402.1704
  19887139.575   -28276505.306 9 -22009039.34648  19887141.782    19887149.2294
 00  7 10  3 46  0.0000000  0  8 03 19 16 20 25 06 01 22
  22663008.522   -11846561.087 8  -8977097.55446  22663007.468    22663016.9694
  24013020.366    -3777283.163 8  -2930235.11445  24013022.727    24013032.7774
  22907259.166   -11036178.990 8  -8580821.46146  22907260.735    22907271.4324
  23051982.440   -10414124.578 8  -8073165.38946  23051986.051    23051995.1234
  22121530.497   -16676150.670 8 -12961888.91147  22121534.828    22121542.3914
  24837644.501    -2186532.439 7  -1693016.89645  24837646.246    24837656.3544
  21335804.379   -19655171.127 9 -15289307.44247  21335807.978    21335815.8964
  19890344.303   -28259666.108 9 -21995917.87648  19890346.185    19890353.5254
 00  7 10  3 46 30.0000000  0  7 03 19 16 20 25 01 22
  22645048.426   -11940934.385 8  -9050635.03346  22645048.952    22645059.1224
  23997391.338    -3859418.902 8  -2994236.88645  23997392.194    23997403.0814
  22911564.565   -11013544.203 8  -8563183.96946  22911567.406    22911577.0494
  23065731.477   -10341879.955 8  -8016870.93946  23065733.516    23065742.8014
  22132220.161   -16619990.478 8 -12918127.75847  22132221.855    22132229.2004
  21324292.554   -19715668.604 9 -15336448.29847  21324295.114    21324303.4864
  19893641.604   -28242337.828 9 -21982415.30748  19893643.502    19893651.1584
 00  7 10  3 47  0.0000000  0  7 03 19 16 20 25 01 22
  22627128.442   -12035071.039 8  -9123988.11446  22627135.229    22627145.1194
  23981758.205    -3941540.103 8  -3058227.30745  23981765.360    23981776.1114
  22915973.596   -10990368.263 8  -8545124.75846  22915977.928    22915987.0924
  23079542.584   -10269315.508 8  -7960327.27946  23079541.867    23079551.3394
  22142938.549   -16563640.533 8 -12874218.73847  22142944.727    22142952.3434
  21312855.745   -19775773.851 9 -15383283.51147  21312857.538    21312865.7394
  19897031.860   -28224521.495 9 -21968532.44548  19897033.708    19897041.5144
 00  7 10  3 47 30.0000000  0  7 03 19 16 20 25 01 22
  22609262.658   -12128968.136 8  -9197154.56646  22609266.551    22609276.4994
  23966141.448    -4023646.407 7  -3122206.20145  23966141.507    23966151.2004
  22920489.008   -10966652.499 8  -8526644.92546  22920490.958    22920499.9324
  23093408.139   -10196434.545 8  -7903536.97346  23093411.780    23093419.9114
  22153702.674   -16507100.511 8 -12830161.62547  22153704.035    22153711.8654
  21301492.899   -19835484.582 9 -15429811.33047  21301495.052    21301503.1304
  19900514.532   -28206218.652 9 -21954270.48148  19900517.001    19900524.2274
 00  7 10  3 48  0.0000000  0  7 03 19 16 20 25 01 22
  22591444.008   -12222622.850 8  -9270132.12546  22591444.412    22591455.0334
  23950518.659    -4105737.308 8  -3186173.01045  23950519.812    23950530.4314
  22925105.747   -10942398.299 8  -8507745.52346  22925106.625    22925116.6454
  23107333.842   -10123239.917 8  -7846502.24146  23107339.787    23107348.5084
  22164496.052   -16450370.723 8 -12785956.62947  22164499.110    22164507.7544
  21290205.755   -19894798.328 9 -15476029.79947  21290208.279    21290216.2174
  19904090.678   -28187431.290 9 -21939630.98048  19904092.028    19904099.4184
 00  7 10  3 48 30.0000000  0  7 03 19 16 20 25 01 22
  22573668.089   -12316032.294 8  -9342918.55246  22573670.271    22573679.6254
  23934901.028    -4187812.442 8  -3250127.55145  23934902.324    23934912.2954
  22929822.533   -10917607.404 8  -8488427.93046  22929824.217    22929833.2704
  23121321.749   -10049734.745 8  -7789225.54846  23121327.339    23121336.5854
  22175330.303   -16393450.757 8 -12741603.45547  22175330.901    22175339.0504
  21278993.074   -19953713.117 9 -15521937.39947  21278996.911    21279005.2114
  19907755.444   -28168161.016 9 -21924615.17648  19907758.757    19907766.4344
 00  7 10  3 49  0.0000000  0  7 03 19 16 20 25 01 22
  22555939.941   -12409193.281 8  -9415511.42146  22555942.145    22555951.3564
  23919285.603    -4269871.226 8  -3314069.38345  23919286.085    23919295.9114
  22934641.071   -10892281.183 8  -8468693.19746  22934642.804    22934652.9174
  23135375.314    -9975922.018 8  -7731709.19646  23135373.558    23135382.5334
  22186192.459   -16336340.772 8 -12697102.22447  22186198.545    22186206.4694
  21267860.160   -20012226.622 9 -15567532.30347  21267862.043    21267870.1244
  19911514.417   -28148409.060 9 -21909224.02548  19911517.555    19911525.0404
 00  7 10  3 49 30.0000000  0  7 03 19 16 20 25 01 22
  22538253.279   -12502102.947 8  -9487908.42846  22538261.439    22538271.5584
  23903666.116    -4351913.074 7  -3377997.97945  23903673.018    23903683.9774
  22939562.049   -10866421.277 8  -8448542.61146  22939564.843    22939574.5194
  23149473.991    -9901804.977 8  -7673955.69346  23149477.001    23149486.4214
  22197099.005   -16279040.582 8 -12652452.76047  22197102.828    22197110.2494
  21256800.296   -20070336.549 9 -15612812.73147  21256804.039    21256811.8934
  19915365.158   -28128176.707 9 -21893458.54348  19915367.658    19915375.0214
 00  7 10  3 50  0.0000000  0  7 03 19 16 20 25 01 22
  22520631.836   -12594758.362 8  -9560107.31546  22520630.057    22520639.1794
  23888059.840    -4433937.521 8  -3441913.05645  23888064.586    23888076.0574
  22944584.414   -10840029.350 8  -8427977.46646  22944587.241    22944595.7734
  23163629.879    -9827386.663 8  -7615967.42346  23163638.889    23163648.0314
  22208042.623   -16221550.383 8 -12607655.24847  22208042.606    22208050.4814
  21245820.571   -20128040.771 9 -15657777.03647  21245823.366    21245831.4294
  19919307.512   -28107465.495 9 -21877319.91848  19919308.994    19919316.4404
 00  7 10  3 50 30.0000000  0  7 03 19 16 20 25 01 22
  22503042.827   -12687156.331 8  -9632105.61946  22503046.630    22503056.2244
  23872460.947    -4515943.945 8  -3505814.08345  23872460.157    23872470.1584
  22949708.306   -10813106.904 8  -8406998.93646  22949710.164    22949719.3584
  23177854.960    -9752669.907 8  -7557746.61546  23177858.105    23177865.7404
  22219014.026   -16163870.210 8 -12562709.70346  22219018.857    22219025.9804
  21234918.256   -20185337.111 9 -15702423.49947  21234920.339    21234928.1404
  19923337.780   -28086277.558 9 -21860809.81748  19923340.826    19923348.4344
 00  7 10  3 51  0.0000000  0  7 03 19 16 20 25 01 22
  22485506.644   -12779294.136 8  -9703901.20746  22485513.881    22485522.6944
  23856856.189    -4597931.953 8  -3569700.74345  23856857.717    23856868.2284
  22954932.412   -10785655.541 8  -8385608.25846  22954933.321    22954943.7234
  23192132.325    -9677658.092 8  -7499295.89846  23192131.768    23192141.3484
  22230027.929   -16105999.592 8 -12517615.75846  22230030.959    22230038.8604
  21224092.701   -20242223.352 9 -15746750.40847  21224095.305    21224102.7694
  19927460.781   -28064614.422 9 -21843929.43748  19927463.118    19927470.8164
 00  7 10  3 51 30.0000000  0  7 03 19 16 20 25 01 22
  22468031.168   -12871168.856 8  -9775491.79046  22468030.144    22468039.4304
  23841258.758    -4679900.906 8  -3633572.54245  23841259.057    23841270.5494
  22960251.528   -10757676.755 8  -8363806.62246  22960256.992    22960268.0124
  23206457.655    -9602354.303 8  -7440617.67346  23206461.289    23206470.9814
  22241077.192   -16047939.031 8 -12472373.80647  22241080.514    22241087.7284
  21213345.849   -20298697.117 9 -15790755.89847  21213348.745    21213356.1624
  19931673.354   -28042477.327 9 -21826679.73648  19931675.838    19931683.2414
 00  7 10  3 52  0.0000000  0  7 03 19 16 20 25 01 22
  22450594.049   -12962777.713 8  -9846875.21846  22450597.659    22450607.3094
  23825658.000    -4761850.254 8  -3697429.11245  23825665.134    23825674.9604
  22965677.287   -10729172.400 8  -8341595.45646  22965681.619    22965691.7114
  23220842.634    -9526761.436 8  -7381714.21746  23220846.649    23220855.0984
  22252162.353   -15989688.559 8 -12426983.87147  22252164.920    22252172.6234
  21202677.705   -20354756.268 9 -15834438.31047  21202680.848    21202688.4234
  19935975.552   -28019867.687 9 -21809061.82648  19935978.129    19935985.7454
 00  7 10  3 52 30.0000000  0  7 03 19 16 20 25 01 22
  22433210.911   -13054117.562 8  -9918049.01446  22433216.367    22433226.1464
  23810074.920    -4843779.938 8  -3761270.30245  23810074.644    23810083.4304
  22971204.768   -10700144.107 8  -8318976.00346  22971205.942    22971215.2624
  23235280.544    -9450882.702 8  -7322587.97146  23235285.295    23235294.8354
  22263283.646   -15931247.922 8 -12381445.75546  22263285.852    22263293.7724
  21192088.981   -20410398.626 9 -15877795.94647  21192092.355    21192099.9804
  19940367.780   -27996787.155 9 -21791076.98148  19940370.190    19940377.4944
 00  7 10  3 53  0.0000000  0  7 03 19 16 20 25 01 22
  22415883.554   -13145185.206 8  -9989010.73446  22415886.764    22415896.2714
  23794483.916    -4925689.090 8  -3825095.50745  23794486.529    23794496.6194
  22976829.921   -10670593.935 8  -8295949.89446  22976828.487    22976838.2714
  23249779.274    -9374721.429 8  -7263241.57346  23249778.875    23249787.7424
  22274440.067   -15872617.040 8 -12335759.39346  22274442.511    22274449.9574
  21181580.708   -20465621.945 9 -15920827.06247  21181583.847    21181591.6504
  19944849.259   -27973237.870 9 -21772726.88148  19944851.439    19944858.6114
 00  7 10  3 53 30.0000000  0  7 03 19 16 20 25 01 22
  22398609.540   -13235977.913 8 -10059758.18446  22398609.365    22398618.4504
  23778898.416    -5007577.369 8  -3888904.48745  23778904.412    23778914.0934
  22982549.183   -10640523.181 8  -8272518.14646  22982550.632    22982561.5304
  23264321.554    -9298280.348 8  -7203677.14846  23264324.455    23264334.1924
  22285634.528   -15813795.717 8 -12289924.63746  22285636.269    22285643.2454
  21171152.987   -20520424.006 9 -15963529.92747  21171154.785    21171162.9874
  19949420.383   -27949221.443 9 -21754012.76948  19949421.781    19949428.9334
 00  7 10  3 54  0.0000000  0  7 03 19 16 20 25 01 22
  22381378.637   -13326492.727 8 -10130289.10146  22381384.075    22381393.7944
  23763320.012    -5089444.207 8  -3952696.77145  23763325.901    23763336.3314
  22988369.899   -10609933.639 8  -8248682.16246  22988372.043    22988382.5294
  23278920.614    -9221562.872 8  -7143897.37246  23278923.220    23278932.5884
  22296860.083   -15754783.700 8 -12243941.29246  22296865.182    22296873.5254
  21160804.859   -20574802.679 9 -16005902.87247  21160807.141    21160815.3294
  19954079.401   -27924739.112 9 -21734935.60848  19954080.688    19954087.5814
 00  7 10  3 54 30.0000000  0  7 03 19 16 20 25 01 22
  22364210.147   -13416726.890 8 -10200601.33146  22364212.811    22364222.7864
  23747746.627    -5171289.050 8  -4016471.85345  23747752.413    23747762.4174
  22994289.053   -10578826.970 8  -8224443.23646  22994291.937    22994300.6894
  23293569.397    -9144572.027 8  -7083904.57046  23293574.313    23293583.2614
  22308128.274   -15695581.707 8 -12197809.91746  22308131.102    22308139.0424
  21150536.316   -20628755.898 9 -16047944.30547  21150539.951    21150547.7674
  19958824.513   -27899792.362 9 -21715496.56348  19958827.737    19958834.9534
